[[{"header":{"parameterUnit":"m.s-1","parameterCategory":1,"la1":31.0,"la2":29.5877,"lo1":-88.7671,"lo2":-86.6584,"dy":0.0162,"dx":0.0185,"nx":115,"ny":88,"refTime":"2024-09-20T06:00:00:Z","depth":0,"parameterNumber":2,"parameterNumberName":"U-component_of_WINDS"},"data":[0.0,0.0,0.0,0.0,0.0,0.0,0.0,0.0,0.0,0.0,0.0,0.0,0.0,0.0,0.0,0.0,0.0,0.0,0.0,0.0,0.0,0.0,0.0,0.0,0.0,0.0,0.0,0.0,0.0,0.0,0.0,0.0,0.0,0.0,0.0,0.0,0.0,0.0,0.0,0.0,0.0,0.0,0.0,0.0,0.0,0.0,0.0,0.0,0.0,0.0,0.0,0.0,0.0,0.0,0.0,0.0,0.0,0.0,0.0,0.0,0.0,0.0,0.0,0.0,0.0,0.0,0.0,0.0,0.0,0.0,0.0,0.0,0.0,0.0,0.0,0.0,0.0,0.0,0.0,0.0,0.0,0.0,0.0,0.0,0.0,0.0,0.0,0.0,0.0,0.0,0.0,0.0,0.0,0.0,0.0,0.0,0.0,0.0,0.0,0.0,0.0,0.0,0.0,0.0,0.0,0.0,0.0,0.0,0.0,0.0,0.0,0.0,0.0,0.0,0.0,0.0,0.0,0.0,0.0,0.0,0.0,0.0,0.0,0.0,0.0,0.0,0.0,0.0,0.0,0.0,0.0,0.0,0.0,0.0,0.0,0.0,0.0,0.0,0.0,0.0,0.0,0.0,0.0,0.0,0.0,0.0,0.0,0.0,0.0,0.0,0.0,0.0,0.0,0.0,0.0,0.0,0.0,0.0,0.0,0.0,0.0,0.0,0.0,0.0,0.0,0.0,0.0,0.0,0.0,0.0,0.0,0.0,0.0,0.0,0.0,0.0,0.0,0.0,0.0,0.0,0.0,0.0,0.0,0.0,0.0,0.0,0.0,0.0,0.0,0.0,0.0,0.0,0.0,0.0,0.0,0.0,0.0,0.0,0.0,0.0,0.0,0.0,0.0,0.0,0.0,0.0,0.0,0.0,0.0,0.0,0.0,0.0,0.0,0.0,0.0,0.0,0.0,0.0,0.0,0.0,0.0,0.0,0.0,0.0,0.0,0.0,0.0,0.0,0.0,0.0,0.0,0.0,0.0,0.0,0.0,0.0,0.0,0.0,0.0,0.0,0.0,0.0,0.0,0.0,0.0,0.0,0.0,0.0,0.0,0.0,0.0,0.0,0.0,0.0,0.0,0.0,0.0,0.0,0.0,0.0,0.0,0.0,0.0,0.0,0.0,0.0,0.0,0.0,0.0,0.0,0.0,0.0,0.0,0.0,0.0,0.0,0.0,0.0,0.0,0.0,0.0,0.0,0.0,0.0,0.0,0.0,0.0,0.0,0.0,0.0,0.0,0.0,0.0,0.0,0.0,0.0,0.0,0.0,0.0,0.0,0.0,0.0,0.0,0.0,0.0,0.0,0.0,0.0,0.0,0.0,0.0,0.0,0.0,0.0,0.0,0.0,0.0,0.0,0.0,0.0,0.0,0.0,0.0,0.0,0.0,0.0,0.0,0.0,0.0,0.0,0.0,0.0,0.0,0.0,0.0,0.0,0.0,0.0,0.0,0.0,0.0,0.0,0.0,0.0,0.0,0.0,0.0,0.0,0.0,0.0,0.0,0.0,0.0,0.0,0.0,0.0,0.0,0.0,0.0,0.0,0.0,0.0,0.0,0.0,0.0,0.0,0.0,0.0,0.0,0.0,0.0,0.0,0.0,0.0,0.0,0.0,0.0,0.0,0.0,0.0,0.0,0.0,0.0,0.0,0.0,0.0,0.0,0.0,0.0,0.0,0.0,0.0,0.0,0.0,0.0,0.0,0.0,0.0,0.0,0.0,0.0,0.0,0.0,0.0,0.0,0.0,0.0,0.0,0.0,0.0,0.0,0.0,0.0,0.0,0.0,0.0,0.0,0.0,0.0,0.0,0.0,0.0,0.0,0.0,0.0,0.0,0.0,0.0,0.0,0.0,0.0,0.0,0.0,0.0,0.0,0.0,0.0,0.0,0.0,0.0,0.0,0.0,0.0,0.0,0.0,0.0,0.0,0.0,0.0,0.0,0.0,0.0,0.0,0.0,0.0,0.0,0.0,0.0,0.0,0.0,0.0,0.0,0.0,0.0,0.0,0.0,0.0,0.0,0.0,0.0,0.0,0.0,0.0,0.0,0.0,0.0,0.0,0.0,0.0,0.0,0.0,0.0,0.0,0.0,0.0,0.0,0.0,0.0,0.0,0.0,0.0,0.0,0.0,0.0,0.0,0.0,0.0,0.0,0.0,0.0,0.0,0.0,0.0,0.0,0.0,0.0,0.0,0.0,0.0,0.0,0.0,0.0,0.0,0.0,0.0,0.0,0.0,0.0,0.0,0.0,0.0,0.0,0.0,0.0,0.0,0.0,0.0,0.0,0.0,0.0,0.0,0.0,0.0,0.0,0.0,0.0,0.0,0.0,0.0,0.0,0.0,0.0,0.0,0.0,0.0,0.0,0.0,0.0,0.0,0.0,0.0,0.0,0.0,0.0,0.0,0.0,0.0,0.0,0.0,0.0,0.0,0.0,0.0,0.0,0.0,0.0,0.0,0.0,0.0,0.0,0.0,0.0,0.0,0.0,0.0,0.0,0.0,0.0,0.0,0.0,0.0,0.0,0.0,0.0,0.0,0.0,0.0,0.0,0.0,0.0,0.0,0.0,0.0,0.0,0.0,0.0,0.0,0.0,0.0,0.0,0.0,0.0,0.0,0.0,0.0,0.0,0.0,0.0,0.0,0.0,0.0,0.0,0.0,0.0,0.0,0.0,0.0,0.0,0.0,0.0,0.0,0.0,0.0,0.0,0.0,0.0,0.0,0.0,0.0,0.0,0.0,0.0,0.0,0.0,0.0,0.0,0.0,0.0,0.0,0.0,0.0,0.0,0.0,0.0,0.0,0.0,0.0,0.0,0.0,0.0,0.0,0.0,0.0,0.0,0.0,0.0,0.0,0.0,0.0,0.0,0.0,0.0,0.0,0.0,0.0,0.0,0.0,0.0,0.0,0.0,0.0,0.0,0.0,0.0,0.0,0.0,0.0,0.0,0.0,0.0,0.0,0.0,0.0,0.0,0.0,0.0,0.0,0.0,0.0,0.0,0.0,0.0,0.0,0.0,0.0,0.0,0.0,0.0,0.0,0.0,0.0,0.0,0.0,0.0,0.0,0.0,0.0,0.0,0.0,0.0,0.0,0.0,0.0,0.0,0.0,0.0,0.0,0.0,0.0,0.0,0.0,0.0,0.0,0.0,0.0,0.0,0.0,0.0,0.0,0.0,0.0,0.0,0.0,0.0,0.0,0.0,0.0,0.0,0.0,0.0,0.0,0.0,0.0,0.0,0.0,0.0,0.0,0.0,0.0,0.0,0.0,0.0,0.0,0.0,0.0,0.0,0.0,0.0,0.0,0.0,0.0,0.0,0.0,0.0,0.0,0.0,0.0,0.0,0.0,0.0,0.0,0.0,0.0,0.0,0.0,0.0,0.0,0.0,0.0,0.0,0.0,0.0,0.0,0.0,0.0,0.0,0.0,0.0,0.0,0.0,0.0,0.0,0.0,0.0,0.0,0.0,0.0,0.0,0.0,0.0,0.0,0.0,0.0,0.0,0.0,0.0,0.0,0.0,0.0,0.0,0.0,0.0,0.0,0.0,0.0,0.0,0.0,0.0,0.0,0.0,0.0,0.0,0.0,0.0,0.0,0.0,0.0,0.0,0.0,0.0,0.0,0.0,0.0,0.0,0.0,0.0,0.0,0.0,0.0,0.0,0.0,0.0,0.0,0.0,0.0,0.0,0.0,0.0,0.0,0.0,0.0,0.0,0.0,0.0,0.0,0.0,0.0,0.0,0.0,0.0,0.0,0.0,0.0,0.0,0.0,0.0,0.0,0.0,0.0,0.0,0.0,0.0,0.0,0.0,0.0,0.0,0.0,0.0,0.0,0.0,0.0,0.0,0.0,0.0,0.0,0.0,0.0,0.0,0.0,0.0,0.0,0.0,0.0,0.0,0.0,0.0,0.0,0.0,0.0,0.0,0.0,0.0,0.0,0.0,0.0,0.0,0.0,0.0,0.0,0.0,0.0,0.0,0.0,0.0,0.0,0.0,0.0,0.0,0.0,0.0,0.0,0.0,0.0,0.0,0.0,0.0,0.0,0.0,0.0,0.0,0.0,0.0,0.0,0.0,0.0,0.0,0.0,0.0,0.0,0.0,0.0,0.0,0.0,0.0,0.0,0.0,0.0,0.0,0.0,0.0,0.0,0.0,0.0,0.0,0.0,0.0,0.0,0.0,0.0,0.0,0.0,0.0,0.0,0.0,0.0,0.0,-0.2289,0.0,0.0,0.0,0.0,0.0,0.0,0.0,0.0,0.0,0.0,0.0,0.0,0.0,0.0,0.0,0.0,0.0,0.0,0.0,0.0,0.0,0.0,0.0,0.0,0.0,0.0,0.0,0.0,0.0,0.0,0.0,0.0,0.0,0.0,0.0,0.0,0.0,0.0,0.0,0.0,0.0,0.0,0.0,0.0,0.0,0.0,0.0,0.0,0.0,0.0,0.0,0.0,0.0,0.0,0.0,0.0,0.0,0.0,0.0,0.0,0.0,0.0,0.0,0.0,0.0,0.0,0.0,0.0,0.0,0.0,0.0,0.0,0.0,0.0,0.0,0.0,0.0,0.0,0.0,0.0,0.0,0.0,0.0,0.0,0.0,0.0,0.0,0.0,0.0,0.0,0.0,0.0,0.0,0.0,0.0,0.0,0.0,0.0,0.0,0.0,0.0,0.0,0.0,0.0,0.0,0.0,0.0,0.0,0.0,0.0,-0.2258,-0.2258,-0.2322,-0.2349,-0.2349,0.0,0.0,0.0,0.0,0.0,0.0,0.0,0.0,0.0,0.0,0.0,0.0,0.0,0.0,0.0,0.0,0.0,0.0,0.0,0.0,0.0,0.0,0.0,0.0,0.0,0.0,0.0,0.0,0.0,0.0,0.0,0.0,0.0,0.0,0.0,0.0,0.0,0.0,0.0,0.0,0.0,0.0,0.0,0.0,0.0,0.0,0.0,0.0,0.0,0.0,0.0,0.0,0.0,0.0,0.0,0.0,0.0,0.0,0.0,0.0,0.0,0.0,0.0,0.0,0.0,0.0,0.0,0.0,0.0,0.0,0.0,0.0,0.0,0.0,0.0,0.0,0.0,0.0,0.0,0.0,0.0,0.0,0.0,0.0,0.0,0.0,0.0,0.0,0.0,0.0,0.0,0.0,0.0,0.0,0.0,0.0,0.0,0.0,0.0,0.0,0.0,0.0,0.0,0.0,0.0,0.0,0.0,0.0,0.0,0.0,0.0,0.0,-0.231,-0.2362,-0.236,0.0,0.0,0.0,0.0,0.0,0.0,0.0,0.0,0.0,0.0,0.0,0.0,0.0,0.0,0.0,0.0,0.0,0.0,0.0,0.0,0.0,0.0,0.0,0.0,0.0,0.0,0.0,0.0,0.0,0.0,0.0,0.0,0.0,0.0,0.0,0.0,0.0,0.0,0.0,0.0,0.0,0.0,0.0,0.0,0.0,0.0,0.0,0.0,0.0,0.0,0.0,0.0,0.0,0.0,0.0,0.0,0.0,0.0,0.0,0.0,0.0,0.0,0.0,0.0,0.0,0.0,0.0,0.0,0.0,0.0,0.0,0.0,0.0,0.0,0.0,0.0,0.0,0.0,0.0,0.0,0.0,0.0,0.0,0.0,0.0,0.0,0.0,0.0,0.0,0.0,0.0,0.0,0.0,0.0,0.0,0.0,0.0,0.0,0.0,0.0,0.0,0.0,0.0,0.0,0.0,0.0,0.0,0.0,0.0,0.0,-0.1883,-0.211,-0.2188,0.0,-0.2211,0.0,0.0,0.0,0.0,0.0,0.0,0.0,0.0,0.0,0.0,0.0,0.0,0.0,0.0,0.0,0.0,0.0,0.0,0.0,0.0,0.0,0.0,0.0,0.0,0.0,0.0,0.0,0.0,0.0,0.0,0.0,0.0,0.0,0.0,0.0,0.0,0.0,0.0,0.0,0.0,0.0,0.0,0.0,0.0,0.0,0.0,0.0,0.0,0.0,0.0,0.0,0.0,0.0,0.0,0.0,0.0,0.0,0.0,0.0,0.0,0.0,0.0,0.0,0.0,0.0,0.0,0.0,0.0,0.0,0.0,0.0,0.0,0.0,0.0,0.0,0.0,0.0,0.0,0.0,0.0,0.0,0.0,0.0,0.0,0.0,0.0,0.0,0.0,0.0,0.0,0.0,0.0,0.0,0.0,0.0,0.0,0.0,0.0,0.0,0.0,0.0,0.0,0.0,0.0,0.0,0.0,0.0,0.0,0.0,0.0,-0.2279,-0.239,-0.2532,-0.2566,0.0,0.0,0.0,0.0,0.0,0.0,0.0,0.0,0.0,0.0,0.0,0.0,0.0,0.0,0.0,0.0,0.0,0.0,0.0,0.0,0.0,0.0,0.0,0.0,0.0,0.0,0.0,0.0,0.0,0.0,0.0,0.0,0.0,0.0,0.0,0.0,0.0,0.0,0.0,0.0,0.0,0.0,0.0,0.0,0.0,0.0,0.0,0.0,0.0,0.0,0.0,0.0,0.0,0.0,0.0,0.0,0.0,0.0,0.0,0.0,0.0,0.0,0.0,0.0,0.0,0.0,0.0,0.0,0.0,0.0,0.0,0.0,0.0,0.0,0.0,0.0,0.0,0.0,0.0,0.0,0.0,0.0,0.0,0.0,0.0,0.0,0.0,0.0,0.0,0.0,0.0,0.0,0.0,0.0,0.0,0.0,0.0,0.0,0.0,0.0,0.0,0.0,0.0,0.0,0.0,0.0,0.0,0.0,0.0,0.0,-0.2304,-0.2525,-0.2633,-0.2768,-0.2738,-0.2501,0.0,0.0,0.0,0.0,0.0,0.0,0.0,0.0,0.0,0.0,0.0,0.0,0.0,0.0,0.0,0.0,0.0,0.0,0.0,0.0,0.0,0.0,0.0,0.0,0.0,0.0,0.0,0.0,0.0,0.0,0.0,0.0,0.0,0.0,0.0,0.0,0.0,0.0,0.0,0.0,0.0,0.0,0.0,0.0,0.0,0.0,0.0,0.0,0.0,0.0,0.0,0.0,0.0,0.0,0.0,0.0,0.0,0.0,0.0,0.0,0.0,0.0,0.0,0.0,0.0,0.0,0.0,0.0,0.0,0.0,0.0,0.0,0.0,0.0,0.0,0.0,0.0,0.0,0.0,0.0,0.0,0.0,0.0,0.0,0.0,0.0,0.0,0.0,0.0,0.0,0.0,0.0,0.0,0.0,0.0,0.0,0.0,0.0,0.0,0.0,0.0,0.0,0.0,0.0,0.0,0.0,0.0,0.0,-0.2508,-0.2334,-0.2385,-0.2685,-0.2712,-0.2566,0.0,0.0,0.0,0.0,0.0,0.0,0.0,0.0,0.0,0.0,0.0,0.0,0.0,0.0,0.0,0.0,0.0,0.0,0.0,0.0,0.0,0.0,0.0,0.0,0.0,0.0,0.0,0.0,0.0,0.0,0.0,0.0,0.0,0.0,0.0,0.0,0.0,0.0,0.0,0.0,0.0,0.0,0.0,0.0,0.0,0.0,0.0,0.0,0.0,0.0,0.0,0.0,0.0,0.0,0.0,0.0,0.0,0.0,0.0,0.0,0.0,0.0,0.0,0.0,0.0,0.0,0.0,0.0,0.0,0.0,0.0,0.0,0.0,0.0,0.0,0.0,0.0,0.0,0.0,0.0,0.0,0.0,0.0,0.0,0.0,0.0,0.0,0.0,0.0,0.0,0.0,0.0,0.0,0.0,0.0,0.0,0.0,0.0,0.0,0.0,0.0,0.0,0.0,0.0,0.0,0.0,0.0,0.0,0.0,-0.2083,-0.2147,-0.2434,-0.2924,-0.2582,-0.2428,0.0,0.0,0.0,0.0,0.0,0.0,0.0,0.0,0.0,0.0,0.0,0.0,0.0,0.0,0.0,0.0,0.0,0.0,0.0,0.0,0.0,0.0,0.0,0.0,0.0,0.0,0.0,0.0,0.0,0.0,0.0,0.0,0.0,0.0,0.0,0.0,0.0,0.0,0.0,0.0,0.0,0.0,0.0,0.0,0.0,0.0,0.0,0.0,0.0,0.0,0.0,0.0,0.0,0.0,0.0,0.0,0.0,0.0,0.0,0.0,0.0,0.0,0.0,0.0,0.0,0.0,0.0,0.0,0.0,0.0,0.0,0.0,0.0,0.0,0.0,0.0,0.0,0.0,0.0,0.0,0.0,0.0,0.0,0.0,0.0,0.0,0.0,0.0,0.0,0.0,0.0,0.0,0.0,0.0,0.0,0.0,0.0,0.0,0.0,0.0,0.0,0.0,0.0,0.0,0.0,0.0,0.0,0.0,0.0,-0.2146,0.0,-0.2767,-0.3011,-0.2651,-0.2406,0.0,0.0,0.0,0.0,0.0,0.0,0.0,0.0,0.0,0.0,0.0,0.0,0.0,0.0,0.0,0.0,0.0,0.0,0.0,0.0,0.0,0.0,0.0,0.0,0.0,0.0,0.0,0.0,0.0,0.0,0.0,0.0,0.0,0.0,0.0,0.0,0.0,0.0,0.0,0.0,0.0,0.0,0.0,0.0,0.0,0.0,0.0,0.0,0.0,0.0,0.0,0.0,0.0,0.0,0.0,0.0,0.0,0.0,0.0,0.0,0.0,0.0,0.0,0.0,0.0,0.0,0.0,0.0,0.0,0.0,0.0,0.0,0.0,0.0,0.0,0.0,0.0,0.0,0.0,0.0,0.0,0.0,0.0,0.0,0.0,0.0,0.0,0.0,0.0,0.0,0.0,0.0,0.0,0.0,0.0,0.0,0.0,0.0,0.0,0.0,0.0,0.0,0.0,0.0,0.0,0.0,0.0,0.0,-0.2092,-0.2845,-0.3253,-0.327,-0.2923,-0.2886,-0.2546,0.0,0.0,0.0,0.0,0.0,0.0,0.0,0.0,0.0,0.0,0.0,0.0,0.0,0.0,0.0,0.0,0.0,0.0,0.0,0.0,0.0,0.0,0.0,0.0,0.0,0.0,0.0,0.0,0.0,0.0,0.0,0.0,0.0,0.0,0.0,0.0,0.0,0.0,0.0,0.0,0.0,0.0,0.0,0.0,0.0,0.0,0.0,0.0,0.0,0.0,0.0,0.0,0.0,0.0,0.0,0.0,0.0,0.0,0.0,0.0,0.0,0.0,0.0,0.0,0.0,0.0,0.0,0.0,0.0,0.0,0.0,0.0,0.0,0.0,0.0,0.0,0.0,0.0,0.0,0.0,0.0,0.0,0.0,0.0,0.0,0.0,0.0,0.0,0.0,0.0,0.0,0.0,0.0,0.0,0.0,0.0,0.0,0.0,0.0,0.0,0.0,0.0,0.0,0.0,0.0,0.0,0.0,0.0,0.0,-0.2425,-0.2913,-0.3221,-0.3352,-0.2846,-0.259,0.0,0.0,0.0,0.0,0.0,0.0,0.0,0.0,0.0,0.0,0.0,0.0,0.0,0.0,0.0,0.0,0.0,0.0,0.0,0.0,0.0,0.0,0.0,0.0,0.0,0.0,0.0,0.0,0.0,0.0,0.0,0.0,0.0,0.0,0.0,0.0,0.0,0.0,0.0,0.0,0.0,0.0,0.0,0.0,0.0,0.0,0.0,0.0,0.0,0.0,0.0,0.0,0.0,0.0,0.0,0.0,0.0,0.0,0.0,0.0,0.0,0.0,0.0,0.0,0.0,0.0,0.0,0.0,0.0,0.0,0.0,0.0,0.0,0.0,0.0,0.0,0.0,0.0,0.0,0.0,0.0,0.0,0.0,0.0,0.0,0.0,0.0,0.0,0.0,0.0,0.0,0.0,0.0,0.0,0.0,0.0,0.0,0.0,0.0,0.0,0.0,0.0,0.0,0.0,0.0,0.0,0.0,0.0,0.0,-0.2806,-0.3285,-0.3615,-0.3723,-0.3077,-0.2761,-0.2819,0.0,0.0,0.0,0.0,0.0,0.0,0.0,0.0,0.0,0.0,0.0,0.0,0.0,0.0,0.0,0.0,0.0,0.0,0.0,0.0,0.0,0.0,0.0,0.0,0.0,0.0,0.0,0.0,0.0,0.0,0.0,0.0,0.0,0.0,0.0,0.0,0.0,0.0,0.0,0.0,0.0,0.0,0.0,0.0,0.0,0.0,0.0,0.0,0.0,0.0,0.0,0.0,0.0,0.0,0.0,0.0,0.0,0.0,0.0,0.0,0.0,0.0,0.0,0.0,0.0,0.0,0.0,0.0,0.0,0.0,0.0,0.0,0.0,0.0,0.0,0.0,0.0,0.0,0.0,0.0,0.0,0.0,0.0,0.0,0.0,0.0,0.0,0.0,0.0,0.0,0.0,0.0,0.0,0.0,0.0,0.0,0.0,0.0,0.0,0.0,0.0,0.0,0.0,0.0,0.0,0.0,0.0,0.0,-0.3806,-0.4303,-0.438,-0.3963,-0.3534,-0.304,0.0,0.0,0.0,0.0,0.0,0.0,0.0,0.0,0.0,0.0,0.0,0.0,0.0,0.0,0.0,0.0,0.0,0.0,0.0,0.0,0.0,0.0,0.0,0.0,0.0,0.0,0.0,0.0,0.0,0.0,0.0,0.0,0.0,0.0,0.0,0.0,0.0,0.0,0.0,0.0,0.0,0.0,0.0,0.0,0.0,0.0,0.0,0.0,0.0,0.0,0.0,0.0,0.0,0.0,0.0,0.0,0.0,0.0,0.0,0.0,0.0,0.0,0.0,0.0,0.0,0.0,0.0,0.0,0.0,0.0,0.0,0.0,0.0,0.0,0.0,0.0,0.0,0.0,0.0,0.0,0.0,0.0,0.0,0.0,0.0,0.0,0.0,0.0,0.0,0.0,0.0,0.0,0.0,0.0,0.0,0.0,0.0,0.0,0.0,0.0,0.0,0.0,0.0,0.0,0.0,0.0,0.0,0.0,0.0,-0.503,-0.5353,-0.5232,-0.4645,-0.3874,-0.3397,0.0,0.0,0.0,0.0,0.0,0.0,0.0,0.0,0.0,0.0,0.0,0.0,0.0,0.0,0.0,0.0,0.0,0.0,0.0,0.0,0.0,0.0,0.0,0.0,0.0,0.0,0.0,0.0,0.0,0.0,0.0,0.0,0.0,0.0,0.0,0.0,0.0,0.0,0.0,0.0,0.0,0.0,0.0,0.0,0.0,0.0,0.0,0.0,0.0,0.0,0.0,0.0,0.0,0.0,0.0,0.0,0.0,0.0,0.0,0.0,0.0,0.0,0.0,0.0,0.0,0.0,0.0,0.0,0.0,0.0,0.0,0.0,0.0,0.0,0.0,0.0,0.0,0.0,0.0,0.0,0.0,0.0,0.0,0.0,0.0,0.0,0.0,0.0,0.0,0.0,0.0,0.0,0.0,0.0,0.0,0.0,0.0,0.0,0.0,0.0,0.0,0.0,0.0,0.0,0.0,0.0,0.0,0.0,-0.4726,-0.5314,-0.5527,-0.546,-0.5083,-0.4337,-0.3787,0.0,0.0,0.0,0.0,0.0,0.0,0.0,0.0,0.0,0.0,0.0,0.0,0.0,0.0,0.0,0.0,0.0,0.0,0.0,0.0,0.0,0.0,0.0,0.0,0.0,0.0,0.0,0.0,0.0,0.0,0.0,0.0,0.0,0.0,0.0,0.0,0.0,0.0,0.0,0.0,0.0,0.0,0.0,0.0,0.0,0.0,0.0,0.0,0.0,0.0,0.0,0.0,0.0,0.0,0.0,0.0,0.0,0.0,0.0,0.0,0.0,0.0,0.0,0.0,0.0,0.0,0.0,0.0,0.0,0.0,0.0,0.0,0.0,0.0,0.0,0.0,0.0,0.0,0.0,0.0,0.0,0.0,0.0,0.0,0.0,0.0,0.0,0.0,0.0,0.0,0.0,0.0,0.0,0.0,0.0,0.0,0.0,0.0,0.0,0.0,0.0,0.0,0.0,0.0,0.0,0.0,0.0,0.0,-0.45,-0.5358,-0.5448,-0.5503,-0.5473,-0.4861,-0.4182,0.0,0.0,0.0,0.0,0.0,0.0,0.0,0.0,0.0,0.0,0.0,0.0,0.0,0.0,0.0,0.0,0.0,0.0,0.0,0.0,0.0,0.0,0.0,0.0,0.0,0.0,0.0,0.0,0.0,0.0,0.0,0.0,0.0,0.0,0.0,0.0,0.0,0.0,0.0,0.0,0.0,0.0,0.0,0.0,0.0,0.0,0.0,0.0,0.0,0.0,0.0,0.0,0.0,0.0,0.0,0.0,0.0,0.0,0.0,0.0,0.0,0.0,0.0,0.0,0.0,0.0,0.0,0.0,0.0,0.0,0.0,0.0,0.0,0.0,0.0,0.0,0.0,0.0,0.0,0.0,0.0,0.0,0.0,0.0,0.0,0.0,0.0,0.0,0.0,0.0,0.0,0.0,0.0,0.0,0.0,0.0,0.0,0.0,0.0,0.0,0.0,0.0,0.0,0.0,0.0,0.0,0.0,0.0,-0.6263,-0.7267,-0.6916,-0.672,-0.672,-0.5382,-0.4399,0.0,0.0,0.0,0.0,0.0,0.0,0.0,0.0,0.0,0.0,0.0,0.0,0.0,0.0,0.0,0.0,0.0,0.0,0.0,0.0,0.0,0.0,0.0,0.0,0.0,0.0,0.0,0.0,0.0,0.0,0.0,0.0,0.0,0.0,0.0,0.0,0.0,0.0,0.0,0.0,0.0,0.0,0.0,0.0,0.0,0.0,0.0,0.0,-0.2074,0.0,0.0,0.0,0.0,0.0,0.0,0.0,0.0,0.0,0.0,0.0,0.0,0.0,0.0,0.0,0.0,0.0,0.0,0.0,0.0,0.0,0.0,0.0,0.0,0.0,0.0,0.0,0.0,0.0,0.0,0.0,0.0,0.0,0.0,0.0,0.0,0.0,0.0,0.0,0.0,0.0,0.0,0.0,0.0,0.0,0.0,0.0,0.0,0.0,0.0,0.0,0.0,0.0,0.0,0.0,0.0,0.0,0.0,0.0,-0.6185,-0.7054,-0.6553,-0.6245,-0.6227,-0.5426,-0.4666,0.0,0.0,0.0,0.0,0.0,0.0,0.0,0.0,0.0,0.0,0.0,0.0,0.0,0.0,0.0,0.0,0.0,0.0,0.0,0.0,0.0,0.0,0.0,0.0,0.0,0.0,0.0,0.0,0.0,0.0,0.0,0.0,0.0,0.0,0.0,0.0,0.0,0.0,0.0,0.0,0.0,0.0,0.0,0.0,0.0,0.0,0.0,0.0,0.0,0.0,0.0,0.0,0.0,0.0,0.0,0.0,0.0,0.0,0.0,0.0,0.0,0.0,0.0,0.0,0.0,0.0,0.0,0.0,0.0,0.0,0.0,0.0,0.0,0.0,0.0,0.0,0.0,0.0,0.0,0.0,0.0,0.0,0.0,0.0,0.0,0.0,0.0,0.0,0.0,0.0,0.0,0.0,0.0,0.0,0.0,0.0,0.0,0.0,0.0,0.0,0.0,0.0,0.0,0.0,0.0,0.0,0.0,-0.5264,-0.5705,-0.6526,-0.5928,-0.5572,-0.5572,-0.5393,-0.4908,-0.4083,0.0,0.0,0.0,0.0,0.0,0.0,0.0,0.0,0.0,0.0,0.0,0.0,0.0,0.0,0.0,0.0,0.0,0.0,0.0,0.0,0.0,0.0,0.0,0.0,0.0,0.0,0.0,0.0,0.0,0.0,0.0,0.0,0.0,0.0,0.0,0.0,0.0,0.0,-0.2561,-0.3053,0.0,0.0,0.0,0.0,0.0,0.0,0.0,0.0,-0.302,0.0,0.0,0.0,0.0,0.0,0.0,0.0,0.0,0.0,0.0,0.0,0.0,0.0,0.0,0.0,0.0,0.0,0.0,0.0,0.0,0.0,0.0,0.0,0.0,0.0,0.0,0.0,0.0,0.0,0.0,0.0,0.0,0.0,0.0,0.0,0.0,0.0,0.0,0.0,0.0,0.0,0.0,0.0,0.0,0.0,0.0,0.0,0.0,0.0,0.0,0.0,0.0,0.0,0.0,0.0,0.0,-0.7026,-0.6424,-0.6841,-0.8316,-0.7335,-0.6801,-0.6774,-0.5814,-0.4977,-0.4283,0.0,0.0,0.0,0.0,0.0,0.0,0.0,0.0,0.0,0.0,0.0,0.0,0.0,0.0,0.0,0.0,0.0,0.0,0.0,0.0,0.0,0.0,0.0,0.0,0.0,0.0,0.0,0.0,0.0,0.0,0.0,0.0,0.0,0.0,0.0,0.0,0.0,0.0,0.0,-0.39,-0.4197,0.0,0.0,0.0,0.0,0.0,0.0,0.0,0.0,-0.3373,0.0,0.0,0.0,0.0,0.0,0.0,0.0,0.0,0.0,0.0,0.0,0.0,0.0,0.0,0.0,0.0,0.0,0.0,0.0,0.0,0.0,0.0,0.0,0.0,0.0,0.0,0.0,0.0,0.0,0.0,0.0,0.0,0.0,0.0,0.0,0.0,0.0,0.0,0.0,0.0,0.0,0.0,0.0,0.0,0.0,0.0,0.0,0.0,0.0,0.0,0.0,0.0,0.0,0.0,0.0,-0.6491,-0.6786,-0.737,-0.827,-0.7523,-0.6945,-0.6632,-0.5794,-0.4966,0.0,0.0,0.0,0.0,0.0,0.0,0.0,0.0,0.0,0.0,0.0,0.0,0.0,0.0,0.0,0.0,0.0,0.0,0.0,0.0,0.0,0.0,0.0,0.0,0.0,0.0,0.0,0.0,0.0,0.0,0.0,0.0,0.0,0.0,0.0,0.0,0.0,0.0,0.0,0.0,-0.4208,-0.4503,-0.4815,0.0,0.0,0.0,0.0,0.0,0.0,-0.3898,-0.3697,0.0,0.0,0.0,0.0,0.0,0.0,0.0,0.0,0.0,0.0,0.0,0.0,0.0,0.0,0.0,0.0,0.0,0.0,0.0,0.0,0.0,0.0,0.0,0.0,0.0,0.0,0.0,0.0,0.0,0.0,0.0,0.0,0.0,0.0,0.0,0.0,0.0,0.0,0.0,0.0,0.0,0.0,0.0,0.0,0.0,0.0,0.0,0.0,0.0,0.0,0.0,0.0,0.0,0.0,0.0,-0.5872,-0.6969,-0.7721,-0.8079,-0.7616,-0.7079,-0.6484,-0.5972,-0.52,0.0,0.0,0.0,0.0,0.0,0.0,0.0,0.0,0.0,0.0,0.0,0.0,0.0,0.0,0.0,0.0,0.0,0.0,0.0,0.0,0.0,0.0,0.0,0.0,0.0,0.0,0.0,0.0,0.0,0.0,0.0,0.0,0.0,0.0,0.0,0.0,0.0,0.0,0.0,0.0,0.0,-0.4903,-0.5304,-0.5134,0.0,0.0,0.0,0.0,-0.4685,-0.4525,0.0,0.0,0.0,0.0,0.0,0.0,0.0,0.0,0.0,0.0,0.0,0.0,0.0,0.0,0.0,0.0,0.0,0.0,0.0,0.0,0.0,0.0,0.0,0.0,0.0,0.0,0.0,0.0,0.0,0.0,0.0,0.0,0.0,0.0,0.0,0.0,0.0,0.0,0.0,0.0,0.0,0.0,0.0,0.0,0.0,0.0,0.0,0.0,0.0,0.0,0.0,0.0,0.0,0.0,0.0,0.0,-0.6311,-0.7211,-0.8078,-0.881,-0.8448,-0.795,-0.7367,-0.694,-0.5992,0.0,0.0,0.0,0.0,0.0,0.0,0.0,0.0,0.0,0.0,0.0,0.0,0.0,0.0,0.0,0.0,0.0,0.0,0.0,0.0,0.0,0.0,0.0,0.0,0.0,0.0,0.0,0.0,0.0,0.0,0.0,0.0,0.0,0.0,0.0,0.0,0.0,0.0,0.0,0.0,0.0,-0.5808,-0.5288,-0.5618,-0.5793,0.0,0.0,-0.5898,-0.5892,-0.6077,0.0,0.0,0.0,0.0,0.0,0.0,0.0,0.0,0.0,0.0,0.0,0.0,0.0,0.0,0.0,0.0,0.0,0.0,0.0,0.0,0.0,0.0,0.0,0.0,0.0,0.0,0.0,0.0,0.0,0.0,0.0,0.0,0.0,0.0,0.0,0.0,0.0,0.0,0.0,0.0,0.0,0.0,0.0,0.0,0.0,0.0,0.0,0.0,0.0,0.0,0.0,0.0,0.0,0.0,0.0,-0.6011,-0.6643,-0.7909,-0.8724,-0.9093,-0.8936,-0.8573,-0.8036,-0.7364,-0.6247,0.0,0.0,0.0,0.0,0.0,0.0,0.0,0.0,0.0,0.0,0.0,0.0,0.0,0.0,0.0,0.0,0.0,0.0,0.0,0.0,0.0,0.0,0.0,0.0,0.0,0.0,0.0,0.0,0.0,0.0,0.0,0.0,0.0,0.0,0.0,0.0,0.0,0.0,0.0,0.0,0.0,0.0,-0.6239,-0.6279,0.0,0.0,0.0,-0.6444,-0.6448,0.0,0.0,0.0,0.0,0.0,0.0,0.0,0.0,0.0,0.0,0.0,0.0,0.0,0.0,0.0,0.0,0.0,0.0,0.0,0.0,0.0,0.0,0.0,0.0,0.0,0.0,0.0,0.0,0.0,0.0,0.0,0.0,0.0,0.0,0.0,0.0,0.0,0.0,0.0,0.0,0.0,0.0,0.0,0.0,0.0,0.0,0.0,0.0,0.0,0.0,0.0,0.0,0.0,0.0,0.0,0.0,0.0,-0.6863,-0.8439,-0.9237,-0.925,-0.9277,-0.9047,-0.8508,-0.7809,0.0,0.0,0.0,0.0,0.0,0.0,0.0,0.0,0.0,0.0,0.0,0.0,0.0,0.0,0.0,0.0,0.0,0.0,0.0,0.0,0.0,0.0,0.0,0.0,0.0,0.0,0.0,-0.2264,0.0,0.0,0.0,0.0,0.0,0.0,0.0,0.0,0.0,0.0,0.0,0.0,0.0,0.0,-0.6351,-0.6916,-0.6862,-0.6794,0.0,0.0,-0.7033,-0.6886,-0.6911,-0.6662,0.0,0.0,0.0,0.0,0.0,0.0,0.0,0.0,0.0,0.0,0.0,0.0,0.0,0.0,0.0,0.0,0.0,0.0,0.0,0.0,0.0,0.0,0.0,0.0,0.0,0.0,0.0,0.0,0.0,0.0,0.0,0.0,0.0,0.0,0.0,0.0,0.0,0.0,0.0,0.0,0.0,0.0,0.0,0.0,0.0,0.0,0.0,0.0,0.0,0.0,0.0,0.0,0.0,0.0,-0.6582,-0.7017,-0.8571,-0.9387,-0.94,-0.9517,-0.9328,-0.8797,-0.8532,-0.7452,0.0,0.0,0.0,0.0,0.0,0.0,0.0,0.0,0.0,0.0,0.0,0.0,0.0,0.0,0.0,0.0,0.0,0.0,0.0,0.0,0.0,0.0,0.0,0.0,0.0,0.0,0.0,0.0,0.0,0.0,0.0,0.0,0.0,0.0,0.0,0.0,0.0,0.0,0.0,0.0,0.0,-0.7023,-0.6764,-0.7295,-0.7716,0.0,-0.7935,-0.792,-0.743,-0.776,-0.7625,-0.6201,0.0,0.0,0.0,0.0,0.0,0.0,0.0,0.0,0.0,0.0,0.0,0.0,0.0,0.0,0.0,0.0,0.0,0.0,0.0,0.0,0.0,0.0,0.0,0.0,0.0,0.0,0.0,0.0,-0.1863,0.0,0.0,0.0,0.0,0.0,0.0,0.0,0.0,0.0,0.0,0.0,0.0,0.0,0.0,0.0,0.0,0.0,0.0,0.0,0.0,0.0,0.0,0.0,0.0,-0.6834,-0.7366,-0.8789,-0.9523,-0.9523,-0.9575,-0.9497,-0.9302,-0.9056,-0.8194,0.0,0.0,0.0,0.0,0.0,0.0,0.0,0.0,0.0,0.0,0.0,0.0,0.0,0.0,0.0,0.0,0.0,0.0,0.0,0.0,0.0,0.0,0.0,0.0,0.0,0.0,0.0,0.0,-0.3166,-0.3312,-0.3235,0.0,0.0,0.0,0.0,0.0,0.0,0.0,0.0,0.0,0.0,-0.849,-0.8331,-0.8899,0.0,0.0,-0.9135,-0.9422,-0.8517,-0.8586,-0.8366,-0.7222,-0.6705,0.0,0.0,0.0,0.0,0.0,0.0,0.0,0.0,0.0,0.0,0.0,0.0,0.0,0.0,0.0,0.0,0.0,0.0,0.0,0.0,0.0,0.0,0.0,0.0,0.0,0.0,0.0,0.0,0.0,0.0,0.0,0.0,0.0,0.0,0.0,0.0,0.0,0.0,0.0,0.0,0.0,0.0,0.0,0.0,0.0,0.0,0.0,0.0,0.0,0.0,0.0,0.0,-0.7003,-0.76,-0.8926,-0.9614,-0.9614,-0.9614,-0.9614,-0.9607,-0.9341,-0.8663,0.0,0.0,0.0,0.0,0.0,0.0,0.0,0.0,0.0,0.0,0.0,0.0,0.0,0.0,0.0,0.0,0.0,0.0,0.0,0.0,0.0,0.0,0.0,0.0,0.0,0.0,0.0,0.0,-0.3389,-0.3509,-0.343,0.0,0.0,0.0,0.0,0.0,0.0,0.0,0.0,0.0,0.0,-0.9796,-0.9729,-1.0178,-1.0242,-0.9494,-1.0093,-1.0353,-0.9466,-0.9467,-0.9258,-0.8344,0.0,0.0,0.0,0.0,0.0,0.0,0.0,0.0,0.0,0.0,0.0,0.0,0.0,0.0,0.0,0.0,0.0,0.0,0.0,0.0,0.0,0.0,0.0,0.0,0.0,0.0,0.0,-0.2435,0.0,0.0,-0.2531,0.0,0.0,0.0,0.0,0.0,0.0,0.0,0.0,0.0,0.0,0.0,0.0,0.0,0.0,0.0,0.0,0.0,0.0,0.0,0.0,0.0,0.0,-0.6994,-0.7621,-0.8922,-0.9614,-0.9614,-0.9614,-0.9614,-0.9607,-0.9341,-0.8777,-0.7917,0.0,0.0,0.0,0.0,0.0,0.0,0.0,0.0,0.0,0.0,0.0,0.0,0.0,0.0,0.0,0.0,0.0,0.0,0.0,0.0,0.0,0.0,0.0,0.0,0.0,0.0,-0.3215,-0.321,-0.3232,0.0,0.0,0.0,0.0,0.0,0.0,0.0,0.0,0.0,-0.8853,-1.0018,-1.0747,-1.0706,-1.0875,-1.1027,-1.097,-1.0748,-1.0454,-1.0168,-1.041,-1.0378,0.0,0.0,0.0,0.0,0.0,0.0,0.0,0.0,0.0,0.0,0.0,0.0,0.0,0.0,0.0,0.0,0.0,0.0,0.0,0.0,0.0,0.0,0.0,0.0,0.0,0.0,0.0,-0.4418,-0.4401,0.0,0.0,0.0,0.0,0.0,0.0,0.0,0.0,0.0,0.0,0.0,-0.8144,-0.8413,0.0,0.0,0.0,0.0,0.0,0.0,0.0,0.0,0.0,0.0,0.0,0.0,-0.7352,-0.8005,-0.9068,-0.9614,-0.9614,-0.9614,-0.9614,-0.9614,-0.9532,-0.896,-0.7934,0.0,0.0,0.0,0.0,0.0,0.0,0.0,0.0,0.0,0.0,0.0,0.0,0.0,0.0,0.0,0.0,0.0,0.0,0.0,0.0,0.0,0.0,0.0,0.0,0.0,-0.3307,0.0,0.0,0.0,0.0,0.0,0.0,0.0,0.0,0.0,0.0,-0.8571,-0.9832,-1.0633,-1.1813,-1.2523,-1.2329,-1.2735,-1.2846,0.0,0.0,0.0,0.0,0.0,0.0,0.0,0.0,0.0,0.0,0.0,0.0,0.0,0.0,-1.0158,-0.7394,-0.6712,-0.6614,-0.6787,0.0,0.0,0.0,0.0,0.0,0.0,0.0,0.0,0.0,0.0,0.0,0.0,0.0,0.0,-0.5982,-0.6146,-0.6018,0.0,0.0,0.0,0.0,0.0,0.0,0.0,0.0,-0.8948,-0.9485,-0.951,-0.9893,-0.9857,-0.9467,-0.8856,-0.8033,0.0,0.0,0.0,0.0,0.0,0.0,0.0,0.0,-0.7888,-0.8677,-0.9602,-1.0098,-1.0078,-1.0098,-1.0025,-0.9914,-0.9906,-0.951,-0.8668,-0.8141,-0.7474,0.0,0.0,0.0,0.0,0.0,0.0,0.0,0.0,0.0,0.0,0.0,0.0,0.0,0.0,0.0,0.0,0.0,0.0,0.0,0.0,0.0,0.0,0.0,-0.4003,0.0,0.0,0.0,0.0,0.0,0.0,0.0,0.0,0.0,-0.8943,-1.0205,-1.1504,-1.2545,-1.3376,-1.3893,-1.3851,0.0,0.0,0.0,0.0,0.0,0.0,0.0,-1.3243,-1.3174,-1.2779,-1.2459,-1.2432,-1.3275,-1.3785,-1.3289,0.0,0.0,-0.939,-0.847,-0.8194,-0.8387,-0.8623,-0.8794,-0.8809,-0.9129,-0.9361,0.0,0.0,0.0,0.0,-0.6309,0.0,0.0,0.0,-0.7064,-0.7323,0.0,-0.732,0.0,0.0,0.0,0.0,-0.726,-0.82,0.0,0.0,-1.0521,-1.0968,-1.0733,-1.1027,-1.1019,-1.0718,-1.0681,-1.0328,-0.9596,-0.7743,-0.6572,0.0,0.0,0.0,0.0,0.0,-0.8658,-0.9637,-1.0538,-1.1019,-1.1019,-1.1006,-1.0854,-1.0528,-1.0491,-1.0337,-1.0011,-0.9651,-0.9129,-0.8351,-0.7117,0.0,0.0,0.0,0.0,0.0,0.0,0.0,0.0,0.0,0.0,0.0,0.0,0.0,0.0,0.0,0.0,0.0,0.0,0.0,0.0,-0.4837,0.0,0.0,0.0,0.0,0.0,0.0,0.0,0.0,0.0,-1.1522,-1.1194,-1.1769,-1.2798,-1.4447,0.0,0.0,0.0,0.0,-1.4872,-1.5189,-1.4983,-1.4914,-1.5206,-1.5522,-1.5634,-1.5292,0.0,0.0,-1.3615,-1.4119,-1.4482,-1.3539,-1.3954,-1.3943,-1.2808,-1.149,-1.0635,-1.0605,-1.0557,-1.0442,-1.0453,-1.0736,-1.0852,-0.9883,0.0,0.0,0.0,0.0,-0.8669,-0.925,-0.9826,-0.9826,-0.9804,-0.9732,-0.9614,0.0,0.0,0.0,0.0,0.0,0.0,-1.0346,-1.0924,-1.1773,-1.2229,-1.2406,-1.277,-1.2899,-1.2813,-1.2578,-1.221,-1.171,-1.0913,-0.9297,-0.6968,0.0,0.0,0.0,0.0,-0.9895,-1.0653,-1.1176,-1.1427,-1.1435,-1.1422,-1.1246,-1.0854,-1.0628,-1.0461,-1.0357,-1.0027,-0.9639,-0.9172,-0.8341,0.0,0.0,0.0,0.0,0.0,0.0,0.0,0.0,0.0,0.0,0.0,0.0,0.0,0.0,0.0,0.0,0.0,0.0,0.0,-0.5002,-0.5539,-0.6075,0.0,0.0,0.0,0.0,0.0,0.0,0.0,0.0,0.0,-1.393,-1.4173,-1.441,0.0,0.0,-1.5788,-1.5642,-1.5762,-1.5984,-1.6352,-1.6326,0.0,-1.6395,-1.6079,-1.5942,-1.6344,-1.6682,-1.6823,-1.666,-1.6855,-1.6943,-1.6624,-1.6268,-1.5875,-1.549,-1.4053,-1.3007,-1.3079,-1.3112,-1.3133,-1.3336,-1.3416,-1.3427,-1.2536,-1.0939,-1.081,-1.0585,-1.0388,-1.0837,-1.1341,-1.1789,-1.1789,-1.1866,-1.1951,-1.1705,-1.1066,-1.0181,-1.0112,0.0,0.0,0.0,-1.1905,-1.2454,-1.2986,-1.3263,-1.3359,-1.3718,-1.3811,-1.3709,-1.3484,-1.3276,-1.3044,-1.2808,-1.1583,-0.9448,0.0,-0.9478,-0.9375,-1.0213,-1.1001,-1.1673,-1.2003,-1.2161,-1.2138,-1.1998,-1.1715,-1.1327,-1.1114,-1.0963,-1.0828,-1.0627,-1.0421,-1.021,-0.9476,-0.8602,0.0,0.0,0.0,0.0,0.0,0.0,0.0,0.0,0.0,0.0,0.0,-0.4906,-0.4185,0.0,0.0,0.0,-0.4986,-0.5765,-0.6963,-0.7444,0.0,0.0,0.0,0.0,0.0,0.0,0.0,-1.2566,-1.4105,-1.5316,-1.5852,-1.6103,-1.6144,-1.5964,-1.6278,-1.6542,-1.6592,0.0,-1.6808,-1.7204,-1.7332,-1.7403,-1.7465,-1.712,-1.6944,-1.7287,-1.7543,-1.7757,-1.796,-1.8011,-1.8011,-1.7951,-1.7578,-1.7216,-1.7204,-1.6242,-1.5233,-1.4784,-1.4673,-1.4727,-1.4892,-1.4909,-1.4921,-1.47,-1.4616,-1.3347,-1.2775,-1.2743,-1.3047,-1.3189,-1.3214,-1.3232,-1.3576,-1.414,-1.3543,-1.3297,-1.3284,-1.2712,0.0,-1.3356,-1.3396,-1.354,-1.3819,-1.4181,-1.4149,-1.3838,-1.4176,-1.4152,-1.3872,-1.3864,-1.3856,-1.3824,-1.3745,-1.3432,-1.2838,-1.1862,-1.1336,-1.1242,-1.1501,-1.1994,-1.2655,-1.2921,-1.3023,-1.3029,-1.266,-1.2247,-1.1861,-1.1818,-1.1635,-1.1306,-1.1301,-1.1301,-1.1263,-1.0489,-0.9701,-0.8982,0.0,0.0,0.0,0.0,0.0,0.0,0.0,0.0,0.0,0.0,0.0,0.0,0.0,0.0,0.0,-0.672,0.0,-0.9534,-0.9995,0.0,0.0,0.0,-1.1824,-1.1447,-1.3111,-1.4278,-1.4305,0.0,0.0,-1.707,-1.7529,-1.7867,-1.7906,-1.7389,-1.722,-1.7752,-1.7538,-1.744,-1.7815,-1.8034,-1.8198,-1.8311,-1.8317,-1.8231,-1.8063,-1.806,-1.8063,-1.8072,-1.8052,-1.8031,-1.8052,-1.802,-1.7971,-1.7991,-1.7851,-1.7497,-1.5913,-1.564,-1.5641,-1.5694,-1.5625,-1.5555,-1.6625,-1.6578,-1.5979,-1.5239,-1.4494,-1.4562,-1.4789,-1.5109,-1.5128,-1.5082,-1.5012,-1.4863,-1.4647,-1.4425,-1.4511,-1.4648,-1.4798,-1.5079,-1.505,-1.4874,-1.5251,-1.5214,-1.4877,-1.5232,-1.539,-1.5305,-1.5297,-1.5153,-1.4866,-1.4824,-1.4612,-1.4232,-1.3977,-1.3295,-1.2309,-1.2759,-1.3114,-1.3277,-1.3352,-1.3382,-1.3374,-1.3046,-1.2669,-1.2256,-1.196,-1.1648,-1.1318,-1.1301,-1.1301,-1.1293,-1.1071,-1.0624,-0.9831,-0.8618,0.0,0.0,0.0,0.0,0.0,0.0,0.0,0.0,0.0,-0.7612,-0.5835,0.0,-0.8458,0.0,-0.8538,-0.937,-1.0354,-1.08,0.0,0.0,-1.3313,-1.38,-1.4775,-1.5476,-1.599,-1.6263,-1.7171,-1.7776,-1.7833,-1.8229,-1.8559,-1.868,-1.8314,-1.8053,-1.8045,-1.8234,-1.8364,-1.8453,-1.8521,-1.8565,-1.8605,-1.8612,-1.8591,-1.8531,-1.8531,-1.8531,-1.8531,-1.8382,-1.8293,-1.8302,-1.8132,-1.8011,-1.8028,-1.8011,-1.7907,-1.7477,-1.7375,-1.7375,-1.7375,-1.6858,-1.6399,-1.7571,-1.7555,-1.7321,-1.6997,-1.6575,-1.6046,-1.598,-1.6198,-1.6218,-1.6108,-1.5962,-1.6004,-1.5908,-1.5753,-1.5925,-1.6005,-1.6021,-1.622,-1.6168,-1.5959,-1.6192,-1.6176,-1.5958,-1.6005,-1.6036,-1.6063,-1.5882,-1.5694,-1.548,-1.5471,-1.5377,-1.5197,-1.5206,-1.472,-1.3802,-1.3945,-1.4033,-1.4024,-1.3853,-1.3691,-1.3496,-1.3314,-1.2969,-1.2429,-1.2179,-1.1833,-1.1318,-1.1301,-1.1203,-1.1049,-1.1203,-1.0937,-1.0137,-0.9403,-0.8633,0.0,0.0,0.0,0.0,0.0,0.0,0.0,0.0,0.0,0.0,0.0,-0.9845,-0.9878,-1.0386,-1.1266,-1.263,-1.3086,-1.3782,-1.4988,-1.5375,-1.5795,-1.6439,-1.6882,-1.7267,-1.7582,-1.8136,-1.8542,-1.8629,-1.8748,-1.8911,-1.9092,-1.8862,-1.8643,-1.8555,-1.8689,-1.8832,-1.8832,-1.8911,-1.8922,-1.8851,-1.876,-1.8709,-1.8709,-1.8709,-1.868,-1.8563,-1.8482,-1.8353,-1.8241,-1.8229,-1.828,-1.8268,-1.8442,-1.8537,-1.8516,-1.8524,-1.8456,-1.8293,-1.7736,-1.731,-1.8142,-1.8134,-1.8086,-1.8257,-1.851,-1.7462,-1.6986,-1.6938,-1.689,-1.6899,-1.6959,-1.7008,-1.7045,-1.7045,-1.7036,-1.7045,-1.7045,-1.7045,-1.7019,-1.6968,-1.6976,-1.697,-1.6882,-1.6549,-1.6395,-1.6441,-1.6045,-1.5865,-1.5874,-1.5805,-1.5805,-1.5805,-1.5805,-1.5625,-1.5317,-1.5,-1.4803,-1.47,-1.4314,-1.3922,-1.3588,-1.3521,-1.3151,-1.2432,-1.2389,-1.2052,-1.1336,-1.1301,-1.1134,-1.0831,-1.1109,-1.0968,-1.0294,-0.9884,-0.9485,0.0,-0.8424,0.0,0.0,0.0,0.0,0.0,0.0,0.0,0.0,-1.0372,-1.1059,-1.1929,-1.2356,-1.3364,-1.5251,-1.5744,-1.6127,-1.6581,-1.7258,-1.7579,-1.7339,-1.7856,-1.8306,-1.85,-1.8836,-1.9101,-1.9233,-1.9152,-1.9112,-1.9251,-1.9143,-1.906,-1.9105,-1.9078,-1.9033,-1.9042,-1.9163,-1.9212,-1.9062,-1.8936,-1.8899,-1.887,-1.8979,-1.8863,-1.8788,-1.8707,-1.8588,-1.8441,-1.8633,-1.8773,-1.8761,-1.9057,-1.9243,-1.9204,-1.9196,-1.9071,-1.8725,-1.8236,-1.8112,-1.9347,-1.9321,-1.9082,-1.9007,-1.9054,-1.8824,-1.8545,-1.8232,-1.7904,-1.7755,-1.7768,-1.7772,-1.7795,-1.7786,-1.7786,-1.7777,-1.7786,-1.7786,-1.7663,-1.7383,-1.7383,-1.722,-1.6899,-1.6822,-1.6788,-1.6771,-1.6395,-1.6242,-1.6288,-1.5969,-1.5805,-1.5805,-1.5805,-1.5833,-1.5922,0.0,0.0,0.0,-1.4306,-1.4074,-1.3982,-1.3658,-1.3136,-1.2437,-1.2389,0.0,-1.1344,-1.1301,-1.1254,-1.1186,-1.1258,0.0,0.0,0.0,0.0,0.0,0.0,0.0,0.0,0.0,0.0,0.0,-1.2118,-1.2053,-1.1356,-1.2811,-1.3915,-1.4114,-1.4706,-1.5383,-1.6109,-1.6536,-1.7025,-1.771,-1.8057,-1.8332,-1.8584,-1.8884,-1.9084,-1.9132,-1.9205,-1.9271,-1.9318,-1.9262,-1.928,-1.9337,-1.9271,-1.9388,-1.9697,-1.943,-1.924,-1.9242,-1.9346,-1.9309,-1.9251,-1.9483,-1.9641,-1.9709,-1.9975,-2.0089,-2.0017,-1.9889,-1.9832,-1.971,-1.9706,-1.9645,-1.9636,-1.9706,-1.9718,-1.9482,-1.9448,-1.9371,-1.9119,-1.8428,-1.7865,-1.9995,-1.9992,-1.9804,-1.9749,0.0,-1.953,-1.9341,-1.9114,-1.8759,-1.8473,-1.8276,-1.8076,-1.8011,-1.8011,-1.8011,-1.8011,-1.8011,-1.8011,-1.7909,-1.7749,-1.7757,-1.7635,-1.7447,-1.7269,-1.7192,-1.7175,-1.6892,-1.6786,-1.6768,-1.6541,-1.6348,-1.625,-1.6033,-1.5947,-1.5947,-1.5964,-1.5618,-1.4966,-1.4744,-1.4461,-1.4126,-1.3912,-1.3442,-1.2737,-1.2709,0.0,0.0,0.0,0.0,0.0,0.0,0.0,0.0,0.0,0.0,-1.0989,-1.1045,-1.111,-1.1251,-1.2052,-1.2814,-1.348,-1.4403,-1.438,-1.3088,-1.4229,-1.5183,-1.5668,-1.621,-1.6803,-1.7469,-1.7722,-1.8065,-1.8625,-1.8795,-1.8944,-1.9107,-1.9242,-1.9373,-1.9556,-1.9584,-1.9657,-1.9879,-1.9907,-1.9897,-1.9877,-1.9877,-1.995,-2.0115,-1.985,-1.9668,-1.987,-1.9907,-1.9886,-1.9916,-2.0033,-2.0177,-2.0234,-2.0363,-2.0461,-2.0383,-2.0277,-2.018,-2.0074,-2.0093,-2.0171,-2.0198,-2.0322,-2.0368,-2.0158,-2.0092,-2.0004,-1.9776,-1.907,-1.8558,-2.0292,-2.0292,-2.0292,-2.0292,-2.0266,-1.9944,-1.9794,-1.979,-1.9389,0.0,0.0,-1.8353,-1.8216,-1.8216,-1.814,-1.8114,-1.8085,-1.8025,-1.8011,-1.8011,-1.8011,-1.802,-1.8063,-1.7794,-1.7687,-1.7689,-1.7471,-1.7326,-1.73,-1.7173,-1.6988,-1.6779,-1.6429,-1.614,-1.5911,-1.6079,-1.5922,-1.5411,-1.5334,-1.5006,-1.4436,-1.4325,-1.3953,-1.3217,-1.3191,-1.3018,-1.2655,-1.2341,-1.2035,-1.1768,-1.2092,-1.2087,-1.1735,-1.2313,-1.2707,-1.2724,-1.3191,-1.3488,-1.3526,-1.4093,-1.4666,-1.5104,-1.6204,-1.627,-1.4914,-1.5413,-1.6135,-1.698,-1.7361,-1.7888,-1.8723,-1.8796,-1.8944,-1.9265,-1.9292,-1.932,-1.9382,-1.9412,-1.9586,-1.9923,-2.0014,-2.0124,-2.0418,-2.0463,-2.05,-2.0491,-2.0427,-2.0537,-2.0537,-2.0241,-2.0106,-2.0363,-2.039,-2.0463,-2.05,-2.0564,-2.0592,-2.0601,-2.0674,-2.0647,-2.0528,-2.0464,-2.04,-2.0356,-2.0515,-2.0685,-2.0747,-2.0935,-2.1033,-2.0857,-2.0835,-2.0744,-2.0435,-1.9914,-1.9556,-2.0292,-2.0292,-2.0292,-2.0292,-2.0292,-2.024,-2.0215,-2.0155,-1.95,-1.9166,-1.9114,-1.9063,-1.9016,-1.9012,-1.8686,-1.8511,-1.8494,-1.8157,-1.8011,-1.8011,-1.8011,-1.8112,-1.8342,-1.8301,-1.8364,-1.8506,-1.8137,-1.7883,-1.7712,-1.758,-1.7367,-1.7137,-1.6969,-1.6643,-1.629,-1.642,-1.6394,-1.6131,-1.5866,-1.5653,-1.5555,-1.5229,-1.469,-1.3977,-1.3942,-1.3593,-1.2898,-1.2827,-1.2742,-1.2711,-1.3066,-1.3258,-1.3208,-1.3617,-1.3853,-1.3871,-1.4259,-1.4535,-1.4676,-1.5377,-1.6116,-1.6775,-1.7206,-1.7078,-1.6476,-1.7188,-1.7917,-1.8365,-1.8447,-1.8685,-1.9155,-1.921,-1.9246,-1.9301,-1.9301,-1.9419,-1.9767,-1.9822,-1.9969,-2.0363,-2.0418,-2.0427,-2.0546,-2.0555,-2.0573,-2.0527,-2.0628,-2.0668,-2.0866,-2.0665,-2.0454,-2.0482,-2.05,-2.05,-2.061,-2.0802,-2.0989,-2.0995,-2.1288,-2.1421,-2.1377,-2.1355,-2.1333,-2.1397,-2.1402,-2.1457,-2.1475,-2.1552,-2.1463,-2.1293,-2.1257,-2.1167,-2.0885,-2.0609,-2.0373,-2.0428,-2.0314,-2.0473,-2.0428,-2.0292,-2.0292,-2.0292,-2.0289,-2.011,-1.9799,-1.9448,-1.9273,-1.92,-1.9183,-1.9012,-1.8926,-1.8909,-1.8623,-1.8492,-1.8474,-1.8426,-1.8451,-1.8551,-1.8571,-1.8591,-1.8683,-1.8644,-1.8555,-1.844,-1.8286,-1.807,-1.7844,-1.7497,-1.7133,-1.6839,-1.6892,-1.6838,-1.663,-1.6251,-1.5987,-1.5807,-1.5638,-1.5273,-1.4722,-1.4688,-1.4591,-1.4321,-1.4091,-1.3989,-1.3974,-1.4159,-1.4228,-1.4162,-1.4491,-1.4688,-1.4706,-1.5165,-1.5487,-1.5535,-1.6369,-1.7005,-1.7351,-1.7853,-1.8054,-1.7807,-1.8182,-1.8503,-1.8696,-1.8879,-1.91,-1.9292,-1.9512,-1.9621,-1.965,-1.9804,-2.0014,-2.0189,-2.0225,-2.039,-2.0738,-2.0821,-2.0903,-2.1141,-2.1159,-2.1159,-2.1159,-2.1159,-2.1233,-2.1388,-2.1269,-2.1159,-2.1138,-2.1138,-2.1159,-2.115,-2.1297,-2.1416,-2.1425,-2.159,-2.1678,-2.1687,-2.1687,-2.1687,-2.1687,-2.1687,-2.1687,-2.1687,-2.1687,-2.1607,-2.1459,-2.1401,-2.1293,-2.1073,-2.093,-2.0736,-2.0578,-2.0428,-2.0541,-2.0518,-2.0382,-2.0382,-2.0405,-2.0473,-2.0659,-2.0466,-1.9993,-1.9722,-1.9579,-1.9527,-1.9493,-1.9493,-1.9462,-1.9221,-1.9122,-1.9108,-1.8921,-1.8836,-1.8887,-1.8825,-1.88,-1.8851,-1.8973,-1.9042,-1.8986,-1.8901,-1.8701,-1.8448,-1.8052,-1.7711,-1.7397,-1.7415,-1.7324,-1.7157,-1.6766,-1.6402,-1.6077,-1.6043,-1.5855,-1.5489,-1.5444,-1.5474,-1.5535,-1.5228,-1.5074,-1.5083,-1.5165,-1.5163,-1.507,-1.5396,-1.5604,-1.5622,-1.6016,-1.6317,-1.6444,-1.7168,-1.7678,-1.7779,-1.8348,-1.8732,-1.8834,-1.8852,-1.8824,-1.888,-1.9118,-1.9309,-1.9447,-1.9703,-1.9921,-2.0033,-2.0308,-2.05,-2.061,-2.0628,-2.0784,-2.1163,-2.1233,-2.1383,-2.1595,-2.1687,-2.1659,-2.1641,-2.1687,-2.1687,-2.1687,-2.1687,-2.1687,-2.1687,-2.1687,-2.165,-2.1687,-2.1668,-2.1691,-2.1687,-2.1687,-2.1687,-2.1687,-2.1687,-2.1687,-2.1687,-2.1687,-2.1687,-2.1687,-2.1687,-2.1651,-2.1526,-2.1482,-2.1405,-2.1163,-2.1042,-2.0907,-2.0699,-2.0631,-2.045,-2.0473,-2.0654,-2.0654,-2.0758,-2.0907,-2.0975,-2.0934,-2.0828,-2.0864,-2.0716,-2.0551,-2.0426,-2.035,-2.0337,-1.999,-1.9812,-1.9768,-1.9413,-1.935,-1.9457,-1.9162,-1.9082,-1.9221,-1.9271,-1.9172,-1.9042,-1.9157,-1.9044,-1.8704,-1.8611,-1.8401,-1.8054,-1.8008,-1.799,-1.799,-1.7578,-1.7194,-1.6829,-1.6801,-1.6601,-1.62,-1.62,-1.605,-1.5737,-1.5652,-1.5634,-1.5654,-1.5959,-1.6152,-1.6189,-1.651,-1.6737,-1.6747,-1.68,-1.6965,-1.734,-1.777,-1.8192,-1.854,-1.864,-1.8851,-1.9191,-1.9237,-1.9246,-1.9265,-1.9283,-1.9465,-1.9795,-1.9914,-2.0115,-2.0408,-2.0527,-2.0628,-2.0958,-2.1031,-2.1196,-2.1608,-2.1608,-2.1659,-2.1678,-2.1687,-2.1687,-2.1687,-2.1687,-2.1687,-2.1687,-2.1687,-2.1687,-2.1687,-2.1687,-2.1687,-2.1687,-2.1687,-2.1687,-2.1687,-2.1687,-2.1687,-2.1687,-2.1687,-2.1687,-2.1687,-2.1687,-2.1687,-2.1687,-2.1687,-2.1687,-2.1651,-2.1629,-2.1597,-2.1383,-2.1217,-2.1028,-2.1015,-2.0893,-2.0925,-2.0902,-2.0893,-2.0871,-2.093,-2.0997,-2.1172,-2.1163,-2.1042,-2.1266,-2.1221,-2.0885,-2.0815,-2.0789,-2.0762,-2.0533,-2.0427,-2.0413,-2.0129,-2.0065,-2.0082,-1.9698,-1.9576,-1.9621,-1.9401,-1.9262,-1.9212,-1.9262,-1.921,-1.9062,-1.9063,-1.8842,-1.8485,-1.8457,-1.8338,-1.8109,-1.7954,-1.777,-1.7569,-1.7138,-1.6818,-1.6671,-1.6661,-1.6597,-1.6431,-1.6413,-1.6413,-1.6413,-1.6578,-1.6644,-1.6653,-1.7019,-1.7257,-1.7266,-1.7477,-1.7679,-1.7844,-1.8247,-1.8521,-1.8705,-1.8915,-1.9117,-1.9292,-1.9502,-1.9657,-1.9657,-1.9731,-1.9831,-1.995,-2.0326,-2.0674,-2.0869,-2.1059,-2.1279,-2.1425,-2.1462,-2.1544,-2.1668,-2.1687,-2.1687,-2.1687,-2.1687,-2.1687,-2.1687,-2.1687,-2.1687,-2.1687,-2.1687,-2.1687,-2.1687,-2.1687,-2.1687,-2.1687,-2.1687,-2.1687,-2.1687,-2.1687,-2.1687,-2.1687,-2.1687,-2.1687,-2.1687,-2.1687,-2.1687,-2.1687,-2.1687,-2.1687,-2.1687,-2.1687,-2.1664,-2.1584,-2.1495,-2.1419,-2.1293,-2.115,-2.1248,-2.1217,-2.1118,-2.1118,-2.1141,-2.1208,-2.1405,-2.1383,-2.1253,-2.1553,-2.1508,-2.1221,-2.1177,-2.1199,-2.1186,-2.1089,-2.1051,-2.1027,-2.0784,-2.0656,-2.0619,-2.0262,-2.0005,-1.9877,-1.9602,-1.9421,-1.932,-1.9292,-1.9292,-1.9292,-1.9292,-1.9164,-1.8907,-1.888,-1.8723,-1.8457,-1.8329,-1.8246,-1.8173,-1.7578,-1.7175,-1.7082,-1.7064,-1.7001,-1.6908,-1.6908,-1.6908,-1.6908,-1.7,-1.7064,-1.7082,-1.7449,-1.7669,-1.7679,-1.8036,-1.8265,-1.8284,-1.8631,-1.8871,-1.8898,-1.9135,-1.9347,-1.9503,-1.9767,-1.9987,-2.0097,-2.0332,-2.0491,-2.0326,-2.0769,-2.1126,-2.1273,-2.1553,-2.1687,-2.1678,-2.1687,-2.1678,-2.1687,-2.1687,-2.1687,-2.1687,-2.1687,-2.1687,-2.1687,-2.1687,-2.1687,-2.1687,-2.1687,-2.1687,-2.1687,-2.1687,-2.1687,-2.1687,-2.1687,-2.1687,-2.1687,-2.1687,-2.1687,-2.1687,-2.1687,-2.1687,-2.1687,-2.1687,-2.1687,-2.1687,-2.1687,-2.1687,-2.1687,-2.1687,-2.1687,-2.1674,-2.1651,-2.1616,-2.1401,-2.1338,-2.1118,-2.1172,-2.1369,-2.1369,-2.1482,-2.162,-2.1674,-2.1664,-2.1642,-2.1674,-2.1687,-2.1642,-2.162,-2.1664,-2.1642,-2.1628,-2.161,-2.1564,-2.1242,-2.108,-2.1031,-2.0677,-2.0289,-2.0012,-1.9912,-1.9685,-1.9347,-1.9311,-1.9292,-1.9292,-1.9292,-1.9292,-1.9237,-1.9237,-1.9256,-1.9136,-1.8852,-1.8668,-1.8631,-1.8265,-1.7862,-1.755,-1.7486,-1.7312,-1.7,-1.6927,-1.6936,-1.6927,-1.7284,-1.7477,-1.7504,-1.7853,-1.8082,-1.8128,-1.8457,-1.8668,-1.8714,-1.9036,-1.9237,-1.9256,-1.9311,-1.9476,-1.9804,-2.0051,-2.0241,-2.0463,-2.1104,-2.1348,-2.1059,-2.1077,-2.1288,-2.1568,-2.1659,-2.1687,-2.1687,-2.1687,-2.1687,-2.1687,-2.1687,-2.1687,-2.1687,-2.1687,-2.1687,-2.1687,-2.1687,-2.1687,-2.1687,-2.1687,-2.1687,-2.1687,-2.1687,-2.1687,-2.1687,-2.1687,-2.1687,-2.1687,-2.1687,-2.1687,-2.1687,-2.1687,-2.1687,-2.1687,-2.1687,-2.1687,-2.1687,-2.1687,-2.1687,-2.1687,-2.1687,-2.1687,-2.1687,-2.1549,-2.1504,-2.1584,-2.1584,-2.1486,-2.1517,-2.1584,-2.1584,-2.1629,-2.1687,-2.1687,-2.1687,-2.1687,-2.1687,-2.1687,-2.1687,-2.1687,-2.1687,-2.1687,-2.1687,-2.1687,-2.1678,-2.1562,-2.1489,-2.1443,-2.1068,-2.0833,-2.0656,-2.0408,-2.0079,-1.9721,-1.9685,-1.9538,-1.9329,-1.9292,-1.9292,-1.9292,-1.9292,-1.9292,-1.9283,-1.9155,-1.9062,-1.9072,-1.8934,-1.8687,-1.8274,-1.8008,-1.7816,-1.7688,-1.766,-1.7651,-1.766,-1.7807,-1.7871,-1.7917,-1.8265,-1.8604,-1.8852,-1.8989,-1.9071,-1.9089,-1.921,-1.9292,-1.9311,-1.9538,-1.9749,-1.996,-2.0399,-2.0796,-2.0958,-2.137,-2.1599,-2.1544,-2.1489,-2.1544,-2.165,-2.1687,-2.1687,-2.1687,-2.1687,-2.1687,-2.1687,-2.1687,-2.1687,-2.1687,-2.1687,-2.1687,-2.1687,-2.1687,-2.1687,-2.1687,-2.1687,-2.1687,-2.1687,-2.1687,-2.1687,-2.1687,-2.1687,-2.1687,-2.1687,-2.1687,-2.1687,-2.1687,-2.1687,-2.1687,-2.1687,-2.1687,-2.1687,-2.1687,-2.1687,-2.1687,-2.1687,-2.1687,-2.1687,-2.1687,-2.1584,-2.1584,-2.1687,-2.1687,-2.1687,-2.1687,-2.1687,-2.1687,-2.1687,-2.1687,-2.1687,-2.1687,-2.1687,-2.1687,-2.1687,-2.1687,-2.1687,-2.1687,-2.1687,-2.1687,-2.1687,-2.1687,-2.1687,-2.1687,-2.1641,-2.1425,-2.1236,-2.1062,-2.0683,-2.0344,-2.0134,-2.0106,-1.995,-1.9714,-1.9577,-1.9512,-1.9465,-1.9375,-1.9292,-1.9292,-1.9292,-1.9292,-1.9292,-1.9292,-1.9163,-1.8888,-1.8622,-1.8366,-1.8128,-1.81,-1.81,-1.8118,-1.8219,-1.8357,-1.8513,-1.8751,-1.9008,-1.9256,-1.9283,-1.9292,-1.93,-1.943,-1.9503,-1.9522,-1.9879,-2.0113,-2.0298,-2.0784,-2.1104,-2.1315,-2.1517,-2.1687,-2.1687,-2.1687,-2.1687,-2.1687,-2.1687,-2.1687,-2.1687,-2.1687,-2.1687,-2.1687,-2.1687,-2.1687,-2.1687,-2.1687,-2.1687,-2.1687,-2.1687,-2.1687,-2.1687,-2.1687,-2.1687,-2.1687,-2.1687,-2.1687,-2.1687,-2.1687,-2.1687,-2.1687,-2.1687,-2.1687,-2.1687,-2.1687,-2.1687,-2.1687,-2.1687,-2.1687,-2.1687,-2.1687,-2.1687,-2.1687,-2.1687,-2.1687,-2.1687,-2.1687,-2.1664,-2.1687,-2.1687,-2.1687,-2.1687,-2.1687,-2.1687,-2.1687,-2.1687,-2.1687,-2.1687,-2.1687,-2.1687,-2.1687,-2.1687,-2.1687,-2.1687,-2.1687,-2.1687,-2.1687,-2.1687,-2.1687,-2.1687,-2.1678,-2.1672,-2.1449,-2.1172,-2.0738,-2.0546,-2.0509,-2.05,-2.0463,-2.039,-2.006,-1.9884,-1.9884,-1.9584,-1.9366,-1.9366,-1.9366,-1.9329,-1.9292,-1.9292,-1.9263,-1.9256,-1.9199,-1.8869,-1.8201,-1.8173,-1.821,-1.8237,-1.8512,-1.8898,-1.9146,-1.9237,-1.9274,-1.9283,-1.9292,-1.9292,-1.9366,-1.9657,-1.985,-1.996,-2.028,-2.0637,-2.0885,-2.1077,-2.1288,-2.1572,-2.165,-2.1687,-2.1687,-2.1687,-2.1687,-2.1687,-2.1687,-2.1687,-2.1687,-2.1687,-2.1687,-2.1687,-2.1687,-2.1687,-2.1687,-2.1687,-2.1687,-2.1687,-2.1687,-2.1687,-2.1687,-2.1687,-2.1687,-2.1687,-2.1687,-2.1687,-2.1687,-2.1687,-2.1687,-2.1687,-2.1687,-2.1687,-2.1687,-2.1687,-2.1687,-2.1687,-2.1687,-2.1687,-2.1687,-2.1687,-2.1687,-2.1687,-2.1687,-2.1687,-2.1687,-2.1687,-2.1687,-2.1687,-2.1687,-2.1687,-2.1687,-2.1687,-2.1687,-2.1687,-2.1687,-2.1687,-2.1687,-2.1687,-2.1687,-2.1687,-2.1687,-2.1687,-2.1687,-2.1687,-2.1687,-2.1687,-2.1687,-2.1687,-2.1687,-2.1687,-2.1687,-2.1645,-2.1517,-2.1398,-2.1169,-2.0949,-2.0903,-2.0805,-2.0518,-2.039,-2.0317,-2.0317,-2.0179,-2.0005,-1.974,-1.9712,-1.9584,-1.9329,-1.9301,-1.9301,-1.9292,-1.9292,-1.9164,-1.8953,-1.8935,-1.8915,-1.8897,-1.9054,-1.9173,-1.9254,-1.9292,-1.9292,-1.9292,-1.9292,-1.9437,-1.9685,-1.985,-2.0069,-2.0317,-2.0674,-2.0921,-2.1095,-2.1352,-2.1544,-2.1709,-2.1687,-2.1687,-2.1687,-2.1687,-2.1687,-2.1687,-2.1687,-2.1687,-2.1687,-2.1687,-2.1687,-2.1687,-2.1687,-2.1687,-2.1687,-2.1687,-2.1687,-2.1687,-2.1687,-2.1687,-2.1687,-2.1687,-2.1687,-2.1687,-2.1687,-2.1687,-2.1687,-2.1687,-2.1687,-2.1687,-2.1687,-2.1687,-2.1687,-2.1687,-2.1687,-2.1687,-2.1687,-2.1687,-2.1687,-2.1687,-2.1687,-2.1687,-2.1687,-2.1687,-2.1687,-2.1687,-2.1687,-2.1687,-2.1687,-2.1687,-2.1687,-2.1687,-2.1687,-2.1687,-2.1687,-2.1687,-2.1687,-2.1687,-2.1687,-2.1687,-2.1687,-2.1687,-2.1687,-2.1687,-2.1687,-2.1687,-2.1687,-2.1687,-2.1687,-2.1687,-2.1687,-2.1687,-2.1687,-2.1687,-2.1581,-2.1333,-2.1306,-2.1196,-2.0985,-2.0802,-2.072,-2.0714,-2.0555,-2.0353,-2.0152,-2.0104,-2.0005,-1.9815,-1.976,-1.9731,-1.9751,-1.9751,-1.974,-1.9751,-1.976,-1.9613,-1.9366,-1.9292,-1.9292,-1.9301,-1.9439,-1.952,-1.9538,-1.9687,-1.9888,-2.0106,-2.0289,-2.0436,-2.0729,-2.1086,-2.1315,-2.137,-2.1608,-2.17,-2.1687,-2.1687,-2.1687,-2.1687,-2.1687,-2.1687,-2.1687,-2.1687,-2.1687,-2.1687,-2.1687,-2.1687,-2.1687,-2.1687,-2.1687,-2.1687,-2.1687,-2.1687,-2.1687,-2.1687,-2.1687,-2.1687,-2.1687,-2.1687,-2.1687,-2.1687,-2.1687,-2.1687,-2.1687,-2.1687,-2.1687,-2.1687,-2.1687,-2.1687,-2.1687,-2.1687,-2.1687,-2.1687,-2.1687,-2.1687,-2.1687,-2.1687,-2.1687,-2.1687,-2.1687,-2.1687,-2.1687,-2.1687,-2.1687,-2.1687,-2.1687,-2.1687,-2.1687,-2.1687,-2.1687,-2.1687,-2.1687,-2.1687,-2.1687,-2.1687,-2.1687,-2.1687,-2.1687,-2.1687,-2.1687,-2.1687,-2.1687,-2.1687,-2.1687,-2.1687,-2.1687,-2.1687,-2.1687,-2.1687,-2.1687,-2.1678,-2.1636,-2.1645,-2.1687,-2.1581,-2.1279,-2.1114,-2.1077,-2.0735,-2.0619,-2.0567,-2.0527,-2.0509,-2.0427,-2.0436,-2.0436,-2.0418,-2.0408,-2.0399,-2.0393,-2.0363,-2.0108,-1.9494,-1.9467,-1.9474,-1.9456,-1.9719,-1.9912,-1.995,-2.0289,-2.0427,-2.0582,-2.0796,-2.1022,-2.1132,-2.1434,-2.1687,-2.165,-2.165,-2.1687,-2.1687,-2.1687,-2.1687,-2.1687,-2.1687,-2.1687,-2.1687,-2.1687,-2.1687,-2.1687,-2.1687,-2.1687,-2.1687,-2.1687,-2.1687,-2.1687,-2.1687,-2.1687,-2.1687,-2.1687,-2.1687,-2.1687,-2.1687,-2.1687,-2.1687,-2.1687,-2.1687,-2.1687,-2.1687,-2.1687,-2.1687,-2.1687,-2.1687,-2.1687,-2.1687,-2.1687,-2.1687,-2.1687,-2.1687,-2.1687,-2.1687,-2.1687,-2.1687,-2.1687,-2.1687,-2.1687,-2.1687,-2.1687,-2.1687,-2.1687,-2.1687,-2.1687,-2.1687,-2.1687,-2.1687,-2.1687,-2.1687,-2.1687,-2.1687,-2.1687,-2.1687,-2.1687,-2.1687,-2.1687,-2.1687,-2.1687,-2.1687,-2.1687,-2.1687,-2.1687,-2.1687,-2.1687,-2.1687,-2.1687,-2.1687,-2.1687,-2.1687,-2.1687,-2.1687,-2.1687,-2.1568,-2.1535,-2.1517,-2.1385,-2.1224,-2.0976,-2.0952,-2.0784,-2.0564,-2.0537,-2.05,-2.05,-2.0527,-2.0527,-2.0509,-2.05,-2.0436,-2.0225,-2.0179,-2.02,-2.0163,-2.0262,-2.0344,-2.0372,-2.0454,-2.0647,-2.0894,-2.1053,-2.1224,-2.1508,-2.1627,-2.1687,-2.1687,-2.1687,-2.1687,-2.1687,-2.1687,-2.1687,-2.1687,-2.1687,-2.1687,-2.1687,-2.1687,-2.1687,-2.1687,-2.1687,-2.1687,-2.1687,-2.1687,-2.1687,-2.1687,-2.1687,-2.1687,-2.1687,-2.1687,-2.1687,-2.1687,-2.1687,-2.1687,-2.1687,-2.1687,-2.1687,-2.1687,-2.1687,-2.1687,-2.1687,-2.1687,-2.1687,-2.1687,-2.1687,-2.1687,-2.1687,-2.1687,-2.1687,-2.1687,-2.1687,-2.1687,-2.1687,-2.1687,-2.1687,-2.1687,-2.1687,-2.1687,-2.1842,-2.1687,-2.1687,-2.1687,-2.1687,-2.1687,-2.1687,-2.1687,-2.1687,-2.1687,-2.1687,-2.1687,-2.1687,-2.1687,-2.1687,-2.1687,-2.1687,-2.1687,-2.1687,-2.1687,-2.1687,-2.1687,-2.1687,-2.1687,-2.1687,-2.1687,-2.1687,-2.1687,-2.1687,-2.1687,-2.1687,-2.1687,-2.1687,-2.1687,-2.1668,-2.1678,-2.1599,-2.1388,-2.1352,-2.1224,-2.1031,-2.1004,-2.1013,-2.1013,-2.1013,-2.1013,-2.1013,-2.1013,-2.0875,-2.0601,-2.05,-2.05,-2.0518,-2.0665,-2.0729,-2.0756,-2.0894,-2.1141,-2.1288,-2.1343,-2.1453,-2.1632,-2.1687,-2.1687,-2.1687,-2.1687,-2.1687,-2.1687,-2.1687,-2.1687,-2.1687,-2.1687,-2.1687,-2.1687,-2.1687,-2.1687,-2.1687,-2.1687,-2.1687,-2.1687,-2.1687,-2.1687,-2.1687,-2.1687,-2.1687,-2.1687,-2.1687,-2.1687,-2.1687,-2.1687,-2.1687,-2.1687,-2.1687,-2.1687,-2.1687,-2.1687,-2.1687,-2.1687,-2.1687,-2.1687,-2.1687,-2.1687,-2.1687,-2.1687,-2.1687,-2.1687,-2.1687,-2.1687,-2.1687,-2.1687,-2.1687,-2.1664,-2.1642,-2.1508,-2.153,-2.2094,-2.1751,-2.1727,-2.1687,-2.1687,-2.1687,-2.1687,-2.1687,-2.1687,-2.1687,-2.1687,-2.1687,-2.1687,-2.1687,-2.1687,-2.1687,-2.1687,-2.1687,-2.1687,-2.1687,-2.1687,-2.1687,-2.1687,-2.1687,-2.1687,-2.1687,-2.1687,-2.1687,-2.1687,-2.1687,-2.1687,-2.1687,-2.1687,-2.1687,-2.1687,-2.1687,-2.1687,-2.165,-2.1614,-2.1595,-2.154,-2.154,-2.1544,-2.1553,-2.154,-2.1559,-2.1577,-2.1586,-2.1339,-2.0665,-2.0619,-2.0701,-2.072,-2.1004,-2.1123,-2.1196,-2.1416,-2.1595,-2.1668,-2.1632,-2.1659,-2.1687,-2.1687,-2.1687,-2.1687,-2.1687,-2.1687,-2.1687,-2.1687,-2.1687,-2.1687,-2.1687,-2.1687,-2.1687,-2.1687,-2.1687,-2.1687,-2.1687,-2.1687,-2.1687,-2.1687,-2.1687,-2.1687,-2.1687,-2.1687,-2.1687,-2.1687,-2.1687,-2.1687,-2.1687,-2.1687,-2.1687,-2.1687,-2.1687,-2.1687,-2.1687,-2.1687,-2.1687,-2.1687,-2.1687,-2.1687,-2.1687,-2.1687,-2.1687,-2.1687,-2.1687,-2.1687,-2.1687,-2.1687,-2.1687,-2.1687,-2.1597,-2.1508,-2.123,-2.1154,-2.2249,-2.2149,-2.1815,-2.1687,-2.1687,-2.1687,-2.1687,-2.1687,-2.1687,-2.1687,-2.1687,-2.1687,-2.1687,-2.1687,-2.1687,-2.1687,-2.1687,-2.1687,-2.1687,-2.1687,-2.1687,-2.1687,-2.1687,-2.1687,-2.1687,-2.1687,-2.1687,-2.1687,-2.1687,-2.1687,-2.1687,-2.1687,-2.1687,-2.1687,-2.1687,-2.1687,-2.1687,-2.1687,-2.1687,-2.1687,-2.1687,-2.1687,-2.1687,-2.1687,-2.1687,-2.1687,-2.1687,-2.1687,-2.1595,-2.1467,-2.1416,-2.1352,-2.1388,-2.148,-2.1535,-2.1553,-2.1595,-2.1687,-2.1687,-2.1687,-2.1687,-2.1687,-2.1687,-2.1687,-2.1687,-2.1687,-2.1687,-2.1687,-2.1687,-2.1687,-2.1687,-2.1687,-2.1687,-2.1687,-2.1687,-2.1687,-2.1687,-2.1687,-2.1687,-2.1687,-2.1687,-2.1687,-2.1687,-2.1687,-2.1687,-2.1687,-2.1687,-2.1687,-2.1687,-2.1687,-2.1687,-2.1687,-2.1687,-2.1687,-2.1687,-2.1687,-2.1687,-2.1687,-2.1687,-2.1687,-2.1687,-2.1687,-2.1687,-2.1687,-2.1687,-2.1687,-2.1687,-2.1687,-2.1687,-2.1687,-2.1642,-2.1365,-2.1141,-2.093,-2.0538,-2.2739,-2.2561,-2.2135,-2.197,-2.1934,-2.1778,-2.1687,-2.1687,-2.1687,-2.1687,-2.1687,-2.1687,-2.1687,-2.1687,-2.1687,-2.1687,-2.1687,-2.1687,-2.1687,-2.1687,-2.1687,-2.1687,-2.1687,-2.1687,-2.1687,-2.1687,-2.1687,-2.1687,-2.1687,-2.1687,-2.1687,-2.1687,-2.1687,-2.1687,-2.1687,-2.1687,-2.1687,-2.1687,-2.1687,-2.1687,-2.1687,-2.1687,-2.1687,-2.1687,-2.1687,-2.1687,-2.1687,-2.1687,-2.1687,-2.1687,-2.1687,-2.1687,-2.1687,-2.1687,-2.1687,-2.1687,-2.1687,-2.1687,-2.1687,-2.1687,-2.1687,-2.1687,-2.1687,-2.1687,-2.1687,-2.1687,-2.1687,-2.1687,-2.1687,-2.1687,-2.1687,-2.1687,-2.1687,-2.1687,-2.1687,-2.1687,-2.1687,-2.1687,-2.1687,-2.1687,-2.1687,-2.1687,-2.1687,-2.1687,-2.1687,-2.1687,-2.1687,-2.1687,-2.1687,-2.1687,-2.1687,-2.1687,-2.1687,-2.1687,-2.1687,-2.1687,-2.1687,-2.1687,-2.1687,-2.1687,-2.1687,-2.1687,-2.1687,-2.1687,-2.1687,-2.1687,-2.1687,-2.1687,-2.1687,-2.1687,-2.153,-2.1109,-2.0741,-2.0461,-1.994,-2.3306,-2.2959,-2.2547,-2.2396,-2.2332,-2.197,-2.1828,-2.1787,-2.1714,-2.1687,-2.1687,-2.1687,-2.1687,-2.1687,-2.1687,-2.1687,-2.1687,-2.1687,-2.1687,-2.1687,-2.1687,-2.1687,-2.1687,-2.1687,-2.1687,-2.1687,-2.1687,-2.1687,-2.1687,-2.1687,-2.1687,-2.1687,-2.1687,-2.1687,-2.1687,-2.1687,-2.1687,-2.1687,-2.1687,-2.1687,-2.1687,-2.1687,-2.1687,-2.1687,-2.1687,-2.1687,-2.1687,-2.1687,-2.1687,-2.1687,-2.1687,-2.1687,-2.1687,-2.1687,-2.1687,-2.1687,-2.1687,-2.1687,-2.1687,-2.1687,-2.1687,-2.1687,-2.1687,-2.1687,-2.1687,-2.1687,-2.1687,-2.1687,-2.1687,-2.1687,-2.1687,-2.1687,-2.1687,-2.1687,-2.1687,-2.1687,-2.1687,-2.1687,-2.1687,-2.1687,-2.1687,-2.1687,-2.1687,-2.1687,-2.1687,-2.1687,-2.1687,-2.1687,-2.1687,-2.1687,-2.1687,-2.1687,-2.1687,-2.1687,-2.1687,-2.1687,-2.1687,-2.1687,-2.1687,-2.1687,-2.1687,-2.1687,-2.1687,-2.1687,-2.1687,-2.1687,-2.1687,-2.1687,-2.1687,-2.1687,-2.1298,-2.0718,-2.0325,-1.9999,-1.9224,-2.3453,-2.3361,-2.2968,-2.2803,-2.273,-2.2378,-2.2195,-2.214,-2.1865,-2.1696,-2.1687,-2.1687,-2.1687,-2.1687,-2.1687,-2.1687,-2.1687,-2.1687,-2.1687,-2.1687,-2.1687,-2.1687,-2.1687,-2.1687,-2.1687,-2.1687,-2.1687,-2.1687,-2.1687,-2.1687,-2.1687,-2.1687,-2.1687,-2.1687,-2.1687,-2.1687,-2.1687,-2.1687,-2.1687,-2.1687,-2.1687,-2.1687,-2.1687,-2.1687,-2.1687,-2.1687,-2.1687,-2.1687,-2.1687,-2.1687,-2.1687,-2.1687,-2.1687,-2.1687,-2.1687,-2.1687,-2.1687,-2.1687,-2.1687,-2.1687,-2.1687,-2.1687,-2.1687,-2.1687,-2.1687,-2.1687,-2.1687,-2.1687,-2.1687,-2.1687,-2.1687,-2.1687,-2.1687,-2.1687,-2.1687,-2.1687,-2.1687,-2.1687,-2.1687,-2.1687,-2.1687,-2.1687,-2.1687,-2.1687,-2.1687,-2.1687,-2.1687,-2.1687,-2.1687,-2.1687,-2.1687,-2.1687,-2.1687,-2.1687,-2.1687,-2.1687,-2.1687,-2.1687,-2.1687,-2.1687,-2.1687,-2.1687,-2.1687,-2.1687,-2.1687,-2.1687,-2.1687,-2.1687,-2.1687,-2.1687,-2.1042,-2.028,-1.9681,-1.9109,-1.7847,-2.3859,-2.3822,-2.338,-2.3215,-2.3142,-2.2799,-2.2497,-2.2286,-2.2103,-2.1879,-2.1742,-2.1687,-2.1687,-2.1687,-2.1687,-2.1687,-2.1687,-2.1687,-2.1687,-2.1687,-2.1687,-2.1687,-2.1687,-2.1687,-2.1687,-2.1687,-2.1687,-2.1687,-2.1687,-2.1687,-2.1687,-2.1687,-2.1687,-2.1687,-2.1687,-2.1687,-2.1687,-2.1687,-2.1687,-2.1687,-2.1687,-2.1687,-2.1687,-2.1687,-2.1687,-2.1687,-2.1687,-2.1687,-2.1687,-2.1687,-2.1687,-2.1687,-2.1687,-2.1687,-2.1687,-2.1687,-2.1687,-2.1687,-2.1687,-2.1687,-2.1687,-2.1687,-2.1687,-2.1687,-2.1687,-2.1687,-2.1687,-2.1687,-2.1687,-2.1687,-2.1687,-2.1687,-2.1687,-2.1687,-2.1687,-2.1687,-2.1687,-2.1687,-2.1687,-2.1687,-2.1687,-2.1687,-2.1687,-2.1687,-2.1687,-2.1687,-2.1687,-2.1687,-2.1687,-2.1687,-2.1687,-2.1687,-2.1687,-2.1687,-2.1687,-2.1687,-2.1687,-2.1687,-2.1687,-2.1687,-2.1687,-2.1687,-2.1687,-2.1687,-2.1687,-2.153,-2.1687,-2.1687,-2.1687,-2.1575,-2.0808,-1.9999,-1.9018,-1.8033,-1.6927,-2.4211,-2.4174,-2.3794,-2.3642,-2.3578,-2.3197,-2.2849,-2.257,-2.2446,-2.2245,-2.1952,-2.1883,-2.1833,-2.1797,-2.1733,-2.1687,-2.1687,-2.1687,-2.1687,-2.1687,-2.1687,-2.1687,-2.1687,-2.1687,-2.1687,-2.1687,-2.1687,-2.1687,-2.1687,-2.1687,-2.1687,-2.1687,-2.1687,-2.1687,-2.1687,-2.1687,-2.1687,-2.1687,-2.1687,-2.1687,-2.1687,-2.1687,-2.1687,-2.1687,-2.1687,-2.1687,-2.1687,-2.1687,-2.1687,-2.1687,-2.1687,-2.1687,-2.1687,-2.1687,-2.1687,-2.1687,-2.1687,-2.1687,-2.1687,-2.1687,-2.1687,-2.1687,-2.1687,-2.1687,-2.1687,-2.1687,-2.1687,-2.1687,-2.1687,-2.1687,-2.1687,-2.1687,-2.1687,-2.1687,-2.1687,-2.1687,-2.1687,-2.1687,-2.1687,-2.1687,-2.1687,-2.1687,-2.1687,-2.1687,-2.1687,-2.1687,-2.1687,-2.1687,-2.1687,-2.1687,-2.1687,-2.1687,-2.1687,-2.1687,-2.1687,-2.1687,-2.1687,-2.1687,-2.1687,-2.1687,-2.1687,-2.1687,-2.1664,-2.1553,-2.1253,-2.1132,-2.141,-2.1597,-2.1477,-2.1154,-2.0506,-1.9613,-1.8427,-1.7505,-1.6527,-2.4211,-2.4202,-2.4122,-2.4128,-2.403,-2.3614,-2.3398,-2.3279,-2.295,-2.2812,-2.2629,-2.2405,-2.2231,-2.2121,-2.1806,-2.1705,-2.1687,-2.1687,-2.1687,-2.1687,-2.1687,-2.1687,-2.1687,-2.1687,-2.1687,-2.1687,-2.1687,-2.1687,-2.1687,-2.1687,-2.1687,-2.1687,-2.1687,-2.1687,-2.1687,-2.1687,-2.1687,-2.1687,-2.1687,-2.1687,-2.1687,-2.1687,-2.1687,-2.1687,-2.1687,-2.1687,-2.1687,-2.1687,-2.1687,-2.1687,-2.1687,-2.1687,-2.1687,-2.1687,-2.1687,-2.1687,-2.1687,-2.1687,-2.1687,-2.1687,-2.1687,-2.1687,-2.1687,-2.1687,-2.1687,-2.1687,-2.1687,-2.1687,-2.1687,-2.1687,-2.1687,-2.1687,-2.1687,-2.1687,-2.1687,-2.1687,-2.1687,-2.1687,-2.1687,-2.1687,-2.1687,-2.1687,-2.1687,-2.1687,-2.1687,-2.1687,-2.1687,-2.1687,-2.1687,-2.1687,-2.1687,-2.1687,-2.1687,-2.1687,-2.1687,-2.1687,-2.1664,-2.1687,-2.1664,-2.162,-2.141,-2.132,-2.1419,-2.1253,-2.0862,-2.0628,-2.0817,-2.0952,-2.1064,-2.0605,-1.9818,-1.8788,-1.7645,-1.6833,-1.6133,-2.4211,-2.4211,-2.4211,-2.4211,-2.4183,-2.396,-2.3758,-2.3489,-2.3316,-2.3114,-2.2913,-2.273,-2.251,-2.2268,-2.187,-2.1696,-2.1687,-2.1687,-2.1687,-2.1687,-2.1687,-2.1687,-2.1687,-2.1687,-2.1687,-2.1687,-2.1687,-2.1687,-2.1687,-2.1687,-2.1687,-2.1687,-2.1687,-2.1687,-2.1687,-2.1687,-2.1687,-2.1687,-2.1687,-2.1687,-2.1687,-2.1687,-2.1687,-2.1687,-2.1687,-2.1687,-2.1687,-2.1687,-2.1687,-2.1687,-2.1687,-2.1687,-2.1687,-2.1687,-2.1687,-2.1687,-2.1687,-2.1687,-2.1687,-2.1687,-2.1687,-2.1687,-2.1687,-2.1687,-2.1687,-2.1687,-2.1687,-2.1687,-2.1687,-2.1687,-2.1687,-2.1687,-2.1687,-2.1687,-2.1687,-2.1687,-2.1687,-2.1687,-2.1687,-2.1687,-2.1687,-2.1687,-2.1687,-2.1687,-2.1687,-2.1687,-2.1687,-2.1687,-2.1687,-2.1687,-2.1687,-2.1687,-2.1687,-2.1687,-2.1687,-2.1687,-2.162,-2.162,-2.1575,-2.141,-2.0943,-2.0831,-2.0763,-2.0357,-1.9689,-1.9712,-2.0107,-2.0099,-2.0008,-1.9552,-1.9049,-1.8079,-1.7138,-1.6527,-1.5967,-2.4211,-2.4211,-2.4211,-2.4211,-2.4211,-2.4211,-2.4012,-2.3697,-2.3678,-2.3514,-2.3266,-2.3111,-2.2776,-2.2341,-2.2011,-2.1846,-2.1687,-2.1687,-2.1687,-2.1687,-2.1687,-2.1687,-2.1687,-2.1687,-2.1687,-2.1687,-2.1687,-2.1687,-2.1687,-2.1687,-2.1687,-2.1687,-2.1687,-2.1687,-2.1687,-2.1687,-2.1687,-2.1687,-2.1687,-2.1687,-2.1687,-2.1687,-2.1687,-2.1687,-2.1687,-2.1687,-2.1687,-2.1687,-2.1687,-2.1687,-2.1687,-2.1687,-2.1687,-2.1687,-2.1687,-2.1687,-2.1687,-2.1687,-2.1687,-2.1687,-2.1687,-2.1687,-2.1687,-2.1687,-2.1687,-2.1687,-2.1687,-2.1687,-2.1687,-2.1687,-2.1687,-2.1687,-2.1687,-2.1687,-2.1687,-2.1687,-2.1687,-2.1687,-2.1687,-2.1687,-2.1687,-2.1687,-2.1687,-2.1687,-2.1687,-2.1687,-2.1687,-2.1687,-2.1664,-2.1664,-2.162,-2.162,-2.1597,-2.1575,-2.1575,-2.1575,-2.1553,-2.1298,-2.123,-2.0853,-2.0167,-1.9863,-1.9772,-1.9224,-1.8588,-1.8842,-1.9278,-1.9094,-1.8857,-1.8496,-1.8087,-1.7505,-1.6763,-1.618,-1.5849,-2.4211,-2.4211,-2.4211,-2.4211,-2.4211,-2.4211,-2.4183,-2.4085,-2.4103,-2.4076,-2.3929,-2.3557,-2.2868,-2.2386,-2.2066,-2.1862,-2.167,-2.1696,-2.1687,-2.1687,-2.1687,-2.1687,-2.1687,-2.1687,-2.1687,-2.1687,-2.1687,-2.1687,-2.1687,-2.1687,-2.1687,-2.1687,-2.1687,-2.1687,-2.1687,-2.1687,-2.1687,-2.1687,-2.1687,-2.1687,-2.1687,-2.1687,-2.1687,-2.1687,-2.1687,-2.1687,-2.1687,-2.1687,-2.1687,-2.1687,-2.1687,-2.1687,-2.1687,-2.1687,-2.1687,-2.1687,-2.1687,-2.1687,-2.1687,-2.1687,-2.1687,-2.1687,-2.1687,-2.1687,-2.1687,-2.1687,-2.1687,-2.1687,-2.1687,-2.1687,-2.1687,-2.1687,-2.1687,-2.1687,-2.1687,-2.1687,-2.1687,-2.1687,-2.1687,-2.1687,-2.1687,-2.1687,-2.1687,-2.1687,-2.1687,-2.1687,-2.1687,-2.1687,-2.1575,-2.1553,-2.1508,-2.1486,-2.1441,-2.1419,-2.1387,-2.1154,-2.056,-2.0212,-2.0076,-1.9613,-1.8995,-1.8834,-1.8788,-1.8257,-1.7754,-1.8102,-1.8311,-1.8072,-1.7824,-1.7552,-1.7185,-1.677,-1.6464,-1.6015,-1.5825,-2.4211,-2.4211,-2.4211,-2.4211,-2.4211,-2.4211,-2.4211,-2.4211,-2.4211,-2.4211,-2.4125,-2.3068,-2.2358,-2.2006,-2.1482,-2.1263,-2.117,-2.1558,-2.1675,-2.1687,-2.1687,-2.1687,-2.1687,-2.1705,-2.1687,-2.1687,-2.1687,-2.1687,-2.1687,-2.1687,-2.1687,-2.1687,-2.1687,-2.1687,-2.1687,-2.1687,-2.1687,-2.1687,-2.1687,-2.1687,-2.1687,-2.1687,-2.1687,-2.1687,-2.1687,-2.1687,-2.1687,-2.1687,-2.1687,-2.1687,-2.1687,-2.1687,-2.1687,-2.1687,-2.1687,-2.1687,-2.1687,-2.1687,-2.1687,-2.1687,-2.1687,-2.1687,-2.1687,-2.1687,-2.1687,-2.1687,-2.1687,-2.1687,-2.1687,-2.1687,-2.1687,-2.1687,-2.1687,-2.1687,-2.1687,-2.1687,-2.1687,-2.1687,-2.1687,-2.1687,-2.1687,-2.1687,-2.1687,-2.1687,-2.1687,-2.1687,-2.1687,-2.1642,-2.1432,-2.1087,-2.0907,-2.0727,-2.0614,-2.0357,-2.028,-1.9849,-1.9384,-1.9178,-1.8957,-1.8442,-1.7963,-1.787,-1.7738,-1.7225,-1.6873,-1.699,-1.703,-1.696,-1.692,-1.6998,-1.6692,-1.6204,-1.5967,-1.5825,-1.5801,-2.4211,-2.4211,-2.4211,-2.4211,-2.4211,-2.4211,-2.4211,-2.4211,-2.4211,-2.4211,-2.41,-2.2731,-2.2014,-2.175,-2.14,-2.1024,-2.1258,-2.169,-2.1994,-2.2053,-2.1998,-2.1888,-2.1824,-2.1751,-2.1687,-2.1687,-2.1687,-2.1687,-2.1687,-2.1687,-2.1687,-2.1687,-2.1687,-2.1687,-2.1687,-2.1687,-2.1687,-2.1687,-2.1687,-2.1687,-2.1687,-2.1687,-2.1687,-2.1687,-2.1687,-2.1687,-2.1687,-2.1687,-2.1687,-2.1687,-2.1687,-2.1687,-2.1687,-2.1687,-2.1687,-2.1687,-2.1687,-2.1687,-2.1696,-2.1687,-2.1687,-2.1687,-2.1687,-2.1687,-2.1687,-2.1687,-2.1687,-2.1687,-2.1687,-2.1696,-2.1705,-2.1687,-2.1687,-2.1687,-2.1687,-2.1687,-2.1687,-2.1687,-2.1687,-2.1687,-2.1696,-2.1705,-2.1714,-2.1723,-2.176,-2.1576,-2.1154,-2.1064,-2.0876,-2.0461,-1.9894,-1.9689,-1.9484,-1.9186,-1.8865,-1.8588,-1.8334,-1.8149,-1.787,-1.7388,-1.7021,-1.6974,-1.6857,-1.6504,-1.6173,-1.5896,-1.5991,-1.6315,-1.6527,-1.6669,-1.6298,-1.592,-1.5896,-1.5801,-1.5801,-2.4211,-2.4211,-2.4177,-2.4177,-2.4211,-2.4211,-2.4211,-2.4211,-2.4211,-2.4211,-2.4053,-2.2943,-2.2262,-2.1972,-2.1767,-2.1529,-2.1564,-2.2268,-2.2716,-2.2606,-2.24,-2.2291,-2.2195,-2.2048,-2.1906,-2.1733,-2.176,-2.181,-2.1687,-2.1687,-2.1687,-2.1687,-2.1687,-2.1687,-2.1687,-2.1687,-2.1687,-2.1687,-2.1687,-2.1687,-2.1687,-2.1687,-2.1687,-2.1687,-2.1687,-2.1687,-2.1687,-2.1687,-2.1687,-2.1687,-2.1687,-2.1687,-2.1687,-2.1687,-2.1687,-2.1687,-2.1687,-2.1696,-2.1714,-2.1705,-2.1723,-2.1705,-2.1687,-2.1687,-2.1687,-2.1687,-2.1751,-2.1806,-2.181,-2.1778,-2.1742,-2.176,-2.1833,-2.187,-2.1906,-2.1925,-2.1961,-2.197,-2.2034,-2.2071,-2.1879,-2.1733,-2.1742,-2.176,-2.1815,-2.1518,-2.0821,-2.0492,-2.0433,-1.9872,-1.9278,-1.8611,-1.8357,-1.8048,-1.7754,-1.7536,-1.7302,-1.7091,-1.6904,-1.6574,-1.6322,-1.6275,-1.6086,-1.5808,-1.5801,-1.5801,-1.5801,-1.5872,-1.6086,-1.6268,-1.6086,-1.5825,-1.5801,-1.5801,-1.5801,-2.4211,-2.4177,-2.4003,-2.4028,-2.4177,-2.4211,-2.4211,-2.4211,-2.4211,-2.4211,-2.3978,-2.3013,-2.2458,-2.227,-2.2039,-2.186,-2.1902,-2.242,-2.2889,-2.288,-2.2757,-2.2721,-2.262,-2.2501,-2.2327,-2.2144,-2.2094,-2.1947,-2.1687,-2.1778,-2.1723,-2.1687,-2.1806,-2.1687,-2.1687,-2.1687,-2.1687,-2.1687,-2.1687,-2.1687,-2.1687,-2.1687,-2.1687,-2.1687,-2.1687,-2.1687,-2.1687,-2.1687,-2.1687,-2.1687,-2.1687,-2.1687,-2.1687,-2.1687,-2.1718,-2.1705,-2.1714,-2.1833,-2.2011,-2.2094,-2.1934,-2.1824,-2.1769,-2.1778,-2.1705,-2.1696,-2.1815,-2.2025,-2.213,-2.2208,-2.2437,-2.2501,-2.2547,-2.2556,-2.2574,-2.2574,-2.2584,-2.2574,-2.2602,-2.262,-2.251,-2.2419,-2.2391,-2.2254,-2.2236,-2.2135,-2.1584,-2.0711,-2.0454,-1.9525,-1.8742,-1.7761,-1.7225,-1.692,-1.6683,-1.6816,-1.6773,-1.6617,-1.6405,-1.6086,-1.5872,-1.5881,-1.5848,-1.5868,-1.5835,-1.5801,-1.5801,-1.5801,-1.5801,-1.5825,-1.5841,-1.5828,-1.5801,-1.5801,-1.5801,-2.4152,-2.4053,-2.3978,-2.3978,-2.4053,-2.4044,-2.4112,-2.4177,-2.4211,-2.4211,-2.3954,-2.3013,-2.2493,-2.2407,-2.2253,-2.2116,-2.2214,-2.2969,-2.3358,-2.3321,-2.316,-2.3123,-2.3087,-2.2977,-2.2702,-2.2561,-2.2474,-2.2355,-2.2199,-2.2135,-2.2163,-2.219,-2.2099,-2.2199,-2.2108,-2.1961,-2.1687,-2.1687,-2.1687,-2.1687,-2.1687,-2.1687,-2.1687,-2.1687,-2.1687,-2.1687,-2.1687,-2.1687,-2.1696,-2.1705,-2.1705,-2.1705,-2.1714,-2.1727,-2.1791,-2.1865,-2.208,-2.2236,-2.2437,-2.2501,-2.2382,-2.2217,-2.2117,-2.2117,-2.208,-2.2089,-2.2227,-2.24,-2.2529,-2.2684,-2.2862,-2.2944,-2.2968,-2.2968,-2.2959,-2.294,-2.2922,-2.2895,-2.2904,-2.295,-2.2977,-2.2968,-2.2944,-2.2844,-2.2716,-2.2602,-2.2418,-2.1478,-2.0502,-1.947,-1.8496,-1.752,-1.6831,-1.6691,-1.6563,-1.6507,-1.6378,-1.6146,-1.6068,-1.6021,-1.6086,-1.6199,-1.6079,-1.5928,-1.5895,-1.5855,-1.5815,-1.5808,-1.5855,-1.5901,-1.5972,-1.5932,-1.5821,-1.5848,-1.5888,-2.4028,-2.3845,-2.4053,-2.4003,-2.3829,-2.3854,-2.3978,-2.4211,-2.4211,-2.4211,-2.4102,-2.3079,-2.2778,-2.2644,-2.2601,-2.2626,-2.2759,-2.3687,-2.3916,-2.3975,-2.3684,-2.3587,-2.344,-2.3233,-2.3111,-2.2977,-2.2895,-2.2849,-2.2867,-2.2679,-2.2697,-2.2771,-2.267,-2.2693,-2.251,-2.2254,-2.1952,-2.197,-2.197,-2.198,-2.1998,-2.1846,-2.1846,-2.1819,-2.1773,-2.1705,-2.1714,-2.1773,-2.1801,-2.181,-2.1819,-2.1787,-2.1769,-2.1764,-2.2002,-2.2295,-2.2657,-2.2743,-2.288,-2.2922,-2.2995,-2.2946,-2.295,-2.294,-2.2739,-2.2501,-2.2579,-2.2794,-2.2995,-2.3023,-2.3087,-2.3105,-2.3114,-2.3138,-2.3138,-2.312,-2.3111,-2.3111,-2.312,-2.3147,-2.3165,-2.3184,-2.3206,-2.316,-2.3119,-2.322,-2.2953,-2.2175,-2.1082,-1.9598,-1.8603,-1.7572,-1.7014,-1.6724,-1.6607,-1.652,-1.6462,-1.6375,-1.6455,-1.6466,-1.65,-1.646,-1.6353,-1.6188,-1.6008,-1.5961,-1.6068,-1.6035,-1.5955,-1.6015,-1.6199,-1.6106,-1.6052,-1.6041,-1.6088,-2.3746,-2.3497,-2.3406,-2.353,-2.3805,-2.3994,-2.4127,-2.4211,-2.4211,-2.4211,-2.4186,-2.387,-2.3587,-2.3687,-2.3712,-2.3671,-2.3795,-2.3994,-2.4118,-2.4103,-2.4012,-2.4002,-2.3938,-2.3785,-2.3611,-2.3422,-2.3321,-2.3215,-2.2977,-2.2917,-2.2935,-2.2871,-2.3023,-2.2972,-2.2895,-2.2675,-2.2602,-2.2519,-2.2501,-2.2437,-2.2373,-2.2236,-2.2195,-2.2103,-2.1897,-2.1842,-2.1856,-2.2048,-2.2112,-2.214,-2.24,-2.2529,-2.2533,-2.2556,-2.2666,-2.2693,-2.2876,-2.3004,-2.3261,-2.3325,-2.3431,-2.3666,-2.3739,-2.3376,-2.3059,-2.2831,-2.2882,-2.3193,-2.3361,-2.337,-2.3523,-2.3602,-2.3593,-2.3593,-2.3593,-2.3593,-2.3584,-2.3584,-2.3593,-2.3593,-2.3602,-2.3593,-2.362,-2.3447,-2.3447,-2.3678,-2.3416,-2.2535,-2.1675,-2.0179,-1.8999,-1.7985,-1.7207,-1.6951,-1.6794,-1.6693,-1.6687,-1.668,-1.678,-1.682,-1.6747,-1.6687,-1.6613,-1.6493,-1.6315,-1.6348,-1.6486,-1.64,-1.6242,-1.6406,-1.654,-1.6411,-1.6304,-1.6306,-1.6355,-2.3506,-2.3256,-2.3172,-2.3397,-2.3795,-2.4069,-2.4211,-2.4211,-2.4211,-2.4211,-2.4211,-2.4177,-2.4211,-2.4152,-2.4127,-2.4127,-2.4127,-2.4152,-2.4211,-2.4211,-2.4211,-2.4183,-2.4202,-2.4192,-2.4002,-2.3831,-2.3758,-2.3694,-2.3404,-2.3394,-2.3431,-2.3449,-2.3394,-2.3394,-2.3446,-2.3431,-2.3422,-2.3266,-2.3129,-2.2968,-2.2821,-2.2684,-2.2607,-2.2506,-2.2236,-2.2172,-2.2163,-2.246,-2.2524,-2.2519,-2.284,-2.2895,-2.2926,-2.3004,-2.3123,-2.3178,-2.3419,-2.3565,-2.3749,-2.3785,-2.3966,-2.4128,-2.4202,-2.3929,-2.3657,-2.3455,-2.3547,-2.3721,-2.373,-2.3767,-2.4002,-2.4192,-2.4183,-2.4174,-2.4174,-2.4174,-2.4174,-2.4174,-2.4165,-2.4165,-2.4156,-2.4137,-2.4016,-2.3771,-2.3454,-2.3141,-2.2664,-2.1963,-2.1469,-2.0778,-1.9701,-1.8724,-1.7828,-1.7154,-1.7034,-1.6974,-1.7027,-1.7081,-1.7154,-1.7154,-1.7034,-1.6921,-1.6854,-1.6767,-1.666,-1.67,-1.6727,-1.668,-1.6613,-1.6747,-1.6847,-1.6812,-1.6692,-1.6593,-1.6687,-2.3222,-2.2996,-2.3281,-2.3506,-2.3771,-2.4078,-2.4211,-2.4211,-2.4211,-2.4211,-2.4211,-2.4211,-2.4211,-2.4211,-2.4211,-2.4211,-2.4211,-2.4211,-2.4211,-2.4186,-2.4211,-2.4211,-2.4211,-2.4202,-2.4122,-2.4183,-2.4156,-2.4012,-2.4122,-2.403,-2.3975,-2.4192,-2.4119,-2.4012,-2.3975,-2.3984,-2.3947,-2.3856,-2.351,-2.322,-2.3114,-2.3014,-2.295,-2.295,-2.2853,-2.2816,-2.2858,-2.2913,-2.2959,-2.2959,-2.3023,-2.3078,-2.3215,-2.3376,-2.3532,-2.3633,-2.3865,-2.3975,-2.4048,-2.4067,-2.4103,-2.4192,-2.4202,-2.4137,-2.3957,-2.3883,-2.3957,-2.3984,-2.3984,-2.3984,-2.4165,-2.4211,-2.4211,-2.4211,-2.4211,-2.4211,-2.4211,-2.4127,-2.3978,-2.3895,-2.3621,-2.3546,-2.3004,-2.2644,-2.2417,-2.219,-2.1937,-2.1319,-2.093,-2.068,-1.9985,-1.9089,-1.82,-1.7414,-1.7414,-1.7388,-1.7474,-1.7535,-1.7488,-1.7468,-1.7328,-1.7234,-1.7113,-1.7054,-1.7027,-1.6921,-1.6894,-1.6927,-1.6967,-1.6974,-1.7074,-1.718,-1.712,-1.6961,-1.7007,-2.2946,-2.2745,-2.3197,-2.3422,-2.3546,-2.4003,-2.4211,-2.4211,-2.4211,-2.4152,-2.4186,-2.4177,-2.4152,-2.4053,-2.3945,-2.3895,-2.3969,-2.3721,-2.4127,-2.4078,-2.4053,-2.4078,-2.4211,-2.4211,-2.4211,-2.4211,-2.4211,-2.4211,-2.4211,-2.4211,-2.4211,-2.4202,-2.4211,-2.4211,-2.4211,-2.4211,-2.4192,-2.4149,-2.3966,-2.3745,-2.3745,-2.3495,-2.3352,-2.3261,-2.3187,-2.3023,-2.3068,-2.3233,-2.3306,-2.337,-2.3755,-2.3865,-2.3911,-2.3975,-2.4012,-2.4058,-2.4113,-2.4192,-2.4211,-2.4211,-2.4211,-2.4211,-2.4211,-2.4211,-2.4192,-2.4211,-2.4211,-2.4211,-2.4211,-2.4211,-2.4211,-2.4211,-2.4211,-2.4211,-2.4211,-2.4211,-2.4186,-2.3978,-2.3771,-2.3413,-2.3063,-2.2543,-2.1979,-2.1599,-2.137,-2.1242,-2.1191,-2.0859,-2.0398,-2.0069,-1.9572,-1.878,-1.8157,-1.7614,-1.7635,-1.7615,-1.7615,-1.7615,-1.7575,-1.7588,-1.7615,-1.7488,-1.7354,-1.7434,-1.7428,-1.7287,-1.7254,-1.7394,-1.7414,-1.7288,-1.7281,-1.7381,-1.7434,-1.7347,-1.7408,-2.2745,-2.2661,-2.3172,-2.3472,-2.3621,-2.4028,-2.4211,-2.4102,-2.3671,-2.3447,-2.3438,-2.3438,-2.3438,-2.3288,-2.2979,-2.287,-2.2845,-2.2703,-2.2929,-2.3238,-2.3596,-2.382,-2.3945,-2.4211,-2.4211,-2.4211,-2.4211,-2.4211,-2.4211,-2.4211,-2.4211,-2.4211,-2.4211,-2.4211,-2.4211,-2.4211,-2.4211,-2.4202,-2.4211,-2.4202,-2.4202,-2.3947,-2.3804,-2.3703,-2.3596,-2.344,-2.3538,-2.3712,-2.3758,-2.3831,-2.403,-2.4128,-2.4137,-2.4156,-2.4183,-2.4183,-2.4202,-2.4211,-2.4211,-2.4211,-2.4211,-2.4211,-2.4211,-2.4211,-2.4211,-2.4211,-2.4211,-2.4211,-2.4211,-2.4211,-2.4211,-2.4211,-2.4211,-2.4211,-2.4211,-2.4211,-2.3904,-2.3538,-2.3263,-2.2904,-2.24,-2.17,-2.1115,-2.0493,-2.0236,-1.9927,-1.9952,-1.9598,-1.9287,-1.9391,-1.8923,-1.8506,-1.7943,-1.7661,-1.7635,-1.7615,-1.7615,-1.7615,-1.7615,-1.7615,-1.7615,-1.7615,-1.7602,-1.7588,-1.7582,-1.7561,-1.7575,-1.7615,-1.7615,-1.7501,-1.7521,-1.7582,-1.7615,-1.7615,-1.7595,-2.2619,-2.272,-2.3197,-2.3456,-2.3596,-2.3845,-2.382,-2.3562,-2.2719,-2.2291,-2.2215,-2.2089,-2.2139,-2.1903,-2.1421,-2.1089,-2.1064,-2.1472,-2.181,-2.2426,-2.2627,-2.3363,-2.3945,-2.4211,-2.4211,-2.4211,-2.4211,-2.4211,-2.4211,-2.4211,-2.4211,-2.4211,-2.4211,-2.4211,-2.4211,-2.4211,-2.4211,-2.4211,-2.4211,-2.4211,-2.4211,-2.4211,-2.4165,-2.4174,-2.4211,-2.4211,-2.4202,-2.4192,-2.4168,-2.4158,-2.4149,-2.4192,-2.4211,-2.4211,-2.4211,-2.4211,-2.4211,-2.4211,-2.4211,-2.4211,-2.4211,-2.4211,-2.4211,-2.4211,-2.4211,-2.4211,-2.4211,-2.4211,-2.4211,-2.4211,-2.4211,-2.4211,-2.4211,-2.4177,-2.4177,-2.4003,-2.3546,-2.3054,-2.2652,-2.2266,-2.1446,-2.0731,-2.0063,-1.9409,-1.9131,-1.8819,-1.8487,-1.797,-1.7766,-1.8206,-1.8232,-1.8048,-1.7793,-1.7615,-1.7615,-1.7615,-1.7615,-1.7615,-1.7615,-1.7615,-1.7615,-1.7615,-1.7615,-1.7615,-1.7608,-1.7615,-1.7615,-1.7615,-1.7615,-1.7615,-1.7615,-1.7615,-1.7615,-1.7615,-1.7615,-2.2745,-2.2946,-2.3272,-2.3021,-2.2535,-2.2728,-2.2341,-2.1599,-2.137,-2.1191,-2.0954,-2.0287,-2.0261,-2.1191,-2.1064,-2.0757,-2.0372,-2.0526,-2.1446,-2.2375,-2.2224,-2.3104,-2.387,-2.4078,-2.4177,-2.4211,-2.4211,-2.4211,-2.4211,-2.4211,-2.4211,-2.4211,-2.4211,-2.4211,-2.4211,-2.4211,-2.4211,-2.4211,-2.4211,-2.4211,-2.4211,-2.4211,-2.4211,-2.4211,-2.4211,-2.4211,-2.4202,-2.4211,-2.4202,-2.4211,-2.4211,-2.4211,-2.4211,-2.4211,-2.4211,-2.4211,-2.4211,-2.4211,-2.4211,-2.4211,-2.4211,-2.4211,-2.4211,-2.4211,-2.4211,-2.4211,-2.4211,-2.4211,-2.4211,-2.4211,-2.4211,-2.4211,-2.4211,-2.4152,-2.4127,-2.3522,-2.2987,-2.2341,-2.1777,-2.0903,-1.9893,-1.9209,-1.8565,-1.8232,-1.8232,-1.8022,-1.8022,-1.7615,-1.7615,-1.7615,-1.7615,-1.7615,-1.7615,-1.7615,-1.7615,-1.7615,-1.7615,-1.7615,-1.7615,-1.7615,-1.7615,-1.7615,-1.7615,-1.7615,-1.7615,-1.7615,-1.7615,-1.7615,-1.7615,-1.7615,-1.7615,-1.7615,-1.7615,-1.7615,-1.7615]},{"header":{"parameterUnit":"m.s-1","parameterCategory":1,"la1":31.0,"la2":29.5877,"lo1":-88.7671,"lo2":-86.6584,"dy":0.0162,"dx":0.0185,"nx":115,"ny":88,"refTime":"2024-09-20T06:00:00:Z","depth":0,"parameterNumber":3,"parameterNumberName":"V-component_of_WINDS"},"data":[0.0,0.0,0.0,0.0,0.0,0.0,0.0,0.0,0.0,0.0,0.0,0.0,0.0,0.0,0.0,0.0,0.0,0.0,0.0,0.0,0.0,0.0,0.0,0.0,0.0,0.0,0.0,0.0,0.0,0.0,0.0,0.0,0.0,0.0,0.0,0.0,0.0,0.0,0.0,0.0,0.0,0.0,0.0,0.0,0.0,0.0,0.0,0.0,0.0,0.0,0.0,0.0,0.0,0.0,0.0,0.0,0.0,0.0,0.0,0.0,0.0,0.0,0.0,0.0,0.0,0.0,0.0,0.0,0.0,0.0,0.0,0.0,0.0,0.0,0.0,0.0,0.0,0.0,0.0,0.0,0.0,0.0,0.0,0.0,0.0,0.0,0.0,0.0,0.0,0.0,0.0,0.0,0.0,0.0,0.0,0.0,0.0,0.0,0.0,0.0,0.0,0.0,0.0,0.0,0.0,0.0,0.0,0.0,0.0,0.0,0.0,0.0,0.0,0.0,0.0,0.0,0.0,0.0,0.0,0.0,0.0,0.0,0.0,0.0,0.0,0.0,0.0,0.0,0.0,0.0,0.0,0.0,0.0,0.0,0.0,0.0,0.0,0.0,0.0,0.0,0.0,0.0,0.0,0.0,0.0,0.0,0.0,0.0,0.0,0.0,0.0,0.0,0.0,0.0,0.0,0.0,0.0,0.0,0.0,0.0,0.0,0.0,0.0,0.0,0.0,0.0,0.0,0.0,0.0,0.0,0.0,0.0,0.0,0.0,0.0,0.0,0.0,0.0,0.0,0.0,0.0,0.0,0.0,0.0,0.0,0.0,0.0,0.0,0.0,0.0,0.0,0.0,0.0,0.0,0.0,0.0,0.0,0.0,0.0,0.0,0.0,0.0,0.0,0.0,0.0,0.0,0.0,0.0,0.0,0.0,0.0,0.0,0.0,0.0,0.0,0.0,0.0,0.0,0.0,0.0,0.0,0.0,0.0,0.0,0.0,0.0,0.0,0.0,0.0,0.0,0.0,0.0,0.0,0.0,0.0,0.0,0.0,0.0,0.0,0.0,0.0,0.0,0.0,0.0,0.0,0.0,0.0,0.0,0.0,0.0,0.0,0.0,0.0,0.0,0.0,0.0,0.0,0.0,0.0,0.0,0.0,0.0,0.0,0.0,0.0,0.0,0.0,0.0,0.0,0.0,0.0,0.0,0.0,0.0,0.0,0.0,0.0,0.0,0.0,0.0,0.0,0.0,0.0,0.0,0.0,0.0,0.0,0.0,0.0,0.0,0.0,0.0,0.0,0.0,0.0,0.0,0.0,0.0,0.0,0.0,0.0,0.0,0.0,0.0,0.0,0.0,0.0,0.0,0.0,0.0,0.0,0.0,0.0,0.0,0.0,0.0,0.0,0.0,0.0,0.0,0.0,0.0,0.0,0.0,0.0,0.0,0.0,0.0,0.0,0.0,0.0,0.0,0.0,0.0,0.0,0.0,0.0,0.0,0.0,0.0,0.0,0.0,0.0,0.0,0.0,0.0,0.0,0.0,0.0,0.0,0.0,0.0,0.0,0.0,0.0,0.0,0.0,0.0,0.0,0.0,0.0,0.0,0.0,0.0,0.0,0.0,0.0,0.0,0.0,0.0,0.0,0.0,0.0,0.0,0.0,0.0,0.0,0.0,0.0,0.0,0.0,0.0,0.0,0.0,0.0,0.0,0.0,0.0,0.0,0.0,0.0,0.0,0.0,0.0,0.0,0.0,0.0,0.0,0.0,0.0,0.0,0.0,0.0,0.0,0.0,0.0,0.0,0.0,0.0,0.0,0.0,0.0,0.0,0.0,0.0,0.0,0.0,0.0,0.0,0.0,0.0,0.0,0.0,0.0,0.0,0.0,0.0,0.0,0.0,0.0,0.0,0.0,0.0,0.0,0.0,0.0,0.0,0.0,0.0,0.0,0.0,0.0,0.0,0.0,0.0,0.0,0.0,0.0,0.0,0.0,0.0,0.0,0.0,0.0,0.0,0.0,0.0,0.0,0.0,0.0,0.0,0.0,0.0,0.0,0.0,0.0,0.0,0.0,0.0,0.0,0.0,0.0,0.0,0.0,0.0,0.0,0.0,0.0,0.0,0.0,0.0,0.0,0.0,0.0,0.0,0.0,0.0,0.0,0.0,0.0,0.0,0.0,0.0,0.0,0.0,0.0,0.0,0.0,0.0,0.0,0.0,0.0,0.0,0.0,0.0,0.0,0.0,0.0,0.0,0.0,0.0,0.0,0.0,0.0,0.0,0.0,0.0,0.0,0.0,0.0,0.0,0.0,0.0,0.0,0.0,0.0,0.0,0.0,0.0,0.0,0.0,0.0,0.0,0.0,0.0,0.0,0.0,0.0,0.0,0.0,0.0,0.0,0.0,0.0,0.0,0.0,0.0,0.0,0.0,0.0,0.0,0.0,0.0,0.0,0.0,0.0,0.0,0.0,0.0,0.0,0.0,0.0,0.0,0.0,0.0,0.0,0.0,0.0,0.0,0.0,0.0,0.0,0.0,0.0,0.0,0.0,0.0,0.0,0.0,0.0,0.0,0.0,0.0,0.0,0.0,0.0,0.0,0.0,0.0,0.0,0.0,0.0,0.0,0.0,0.0,0.0,0.0,0.0,0.0,0.0,0.0,0.0,0.0,0.0,0.0,0.0,0.0,0.0,0.0,0.0,0.0,0.0,0.0,0.0,0.0,0.0,0.0,0.0,0.0,0.0,0.0,0.0,0.0,0.0,0.0,0.0,0.0,0.0,0.0,0.0,0.0,0.0,0.0,0.0,0.0,0.0,0.0,0.0,0.0,0.0,0.0,0.0,0.0,0.0,0.0,0.0,0.0,0.0,0.0,0.0,0.0,0.0,0.0,0.0,0.0,0.0,0.0,0.0,0.0,0.0,0.0,0.0,0.0,0.0,0.0,0.0,0.0,0.0,0.0,0.0,0.0,0.0,0.0,0.0,0.0,0.0,0.0,0.0,0.0,0.0,0.0,0.0,0.0,0.0,0.0,0.0,0.0,0.0,0.0,0.0,0.0,0.0,0.0,0.0,0.0,0.0,0.0,0.0,0.0,0.0,0.0,0.0,0.0,0.0,0.0,0.0,0.0,0.0,0.0,0.0,0.0,0.0,0.0,0.0,0.0,0.0,0.0,0.0,0.0,0.0,0.0,0.0,0.0,0.0,0.0,0.0,0.0,0.0,0.0,0.0,0.0,0.0,0.0,0.0,0.0,0.0,0.0,0.0,0.0,0.0,0.0,0.0,0.0,0.0,0.0,0.0,0.0,0.0,0.0,0.0,0.0,0.0,0.0,0.0,0.0,0.0,0.0,0.0,0.0,0.0,0.0,0.0,0.0,0.0,0.0,0.0,0.0,0.0,0.0,0.0,0.0,0.0,0.0,0.0,0.0,0.0,0.0,0.0,0.0,0.0,0.0,0.0,0.0,0.0,0.0,0.0,0.0,0.0,0.0,0.0,0.0,0.0,0.0,0.0,0.0,0.0,0.0,0.0,0.0,0.0,0.0,0.0,0.0,0.0,0.0,0.0,0.0,0.0,0.0,0.0,0.0,0.0,0.0,0.0,0.0,0.0,0.0,0.0,0.0,0.0,0.0,0.0,0.0,0.0,0.0,0.0,0.0,0.0,0.0,0.0,0.0,0.0,0.0,0.0,0.0,0.0,0.0,0.0,0.0,0.0,0.0,0.0,0.0,0.0,0.0,0.0,0.0,0.0,0.0,0.0,0.0,0.0,0.0,0.0,0.0,0.0,0.0,0.0,0.0,0.0,0.0,0.0,0.0,0.0,0.0,0.0,0.0,0.0,0.0,0.0,0.0,0.0,0.0,0.0,0.0,0.0,0.0,0.0,0.0,0.0,0.0,0.0,0.0,0.0,0.0,0.0,0.0,0.0,0.0,0.0,0.0,0.0,0.0,0.0,0.0,0.0,0.0,0.0,0.0,0.0,0.0,0.0,0.0,0.0,0.0,0.0,0.0,0.0,0.0,0.0,0.0,0.0,0.0,0.0,0.0,0.0,0.0,0.0,0.0,0.0,0.0,0.0,0.0,0.0,0.0,0.0,0.0,0.0,0.0,0.0,0.0,0.0,0.0,0.0,0.0,0.0,0.0,0.0,0.0,0.0,0.0,0.0,0.0,0.0,0.0,0.0,0.0,0.0,0.0,0.0,0.0,0.0,0.0,0.0,0.0,0.0,0.0,0.0,0.0,0.0,0.0,0.0,0.0,0.0,0.0,0.0,1.0015,0.0,0.0,0.0,0.0,0.0,0.0,0.0,0.0,0.0,0.0,0.0,0.0,0.0,0.0,0.0,0.0,0.0,0.0,0.0,0.0,0.0,0.0,0.0,0.0,0.0,0.0,0.0,0.0,0.0,0.0,0.0,0.0,0.0,0.0,0.0,0.0,0.0,0.0,0.0,0.0,0.0,0.0,0.0,0.0,0.0,0.0,0.0,0.0,0.0,0.0,0.0,0.0,0.0,0.0,0.0,0.0,0.0,0.0,0.0,0.0,0.0,0.0,0.0,0.0,0.0,0.0,0.0,0.0,0.0,0.0,0.0,0.0,0.0,0.0,0.0,0.0,0.0,0.0,0.0,0.0,0.0,0.0,0.0,0.0,0.0,0.0,0.0,0.0,0.0,0.0,0.0,0.0,0.0,0.0,0.0,0.0,0.0,0.0,0.0,0.0,0.0,0.0,0.0,0.0,0.0,0.0,0.0,0.0,0.0,0.0,1.0002,1.0002,1.0008,1.0001,1.0001,0.0,0.0,0.0,0.0,0.0,0.0,0.0,0.0,0.0,0.0,0.0,0.0,0.0,0.0,0.0,0.0,0.0,0.0,0.0,0.0,0.0,0.0,0.0,0.0,0.0,0.0,0.0,0.0,0.0,0.0,0.0,0.0,0.0,0.0,0.0,0.0,0.0,0.0,0.0,0.0,0.0,0.0,0.0,0.0,0.0,0.0,0.0,0.0,0.0,0.0,0.0,0.0,0.0,0.0,0.0,0.0,0.0,0.0,0.0,0.0,0.0,0.0,0.0,0.0,0.0,0.0,0.0,0.0,0.0,0.0,0.0,0.0,0.0,0.0,0.0,0.0,0.0,0.0,0.0,0.0,0.0,0.0,0.0,0.0,0.0,0.0,0.0,0.0,0.0,0.0,0.0,0.0,0.0,0.0,0.0,0.0,0.0,0.0,0.0,0.0,0.0,0.0,0.0,0.0,0.0,0.0,0.0,0.0,0.0,0.0,0.0,0.0,1.0611,1.0599,1.062,0.0,0.0,0.0,0.0,0.0,0.0,0.0,0.0,0.0,0.0,0.0,0.0,0.0,0.0,0.0,0.0,0.0,0.0,0.0,0.0,0.0,0.0,0.0,0.0,0.0,0.0,0.0,0.0,0.0,0.0,0.0,0.0,0.0,0.0,0.0,0.0,0.0,0.0,0.0,0.0,0.0,0.0,0.0,0.0,0.0,0.0,0.0,0.0,0.0,0.0,0.0,0.0,0.0,0.0,0.0,0.0,0.0,0.0,0.0,0.0,0.0,0.0,0.0,0.0,0.0,0.0,0.0,0.0,0.0,0.0,0.0,0.0,0.0,0.0,0.0,0.0,0.0,0.0,0.0,0.0,0.0,0.0,0.0,0.0,0.0,0.0,0.0,0.0,0.0,0.0,0.0,0.0,0.0,0.0,0.0,0.0,0.0,0.0,0.0,0.0,0.0,0.0,0.0,0.0,0.0,0.0,0.0,0.0,0.0,0.0,1.0853,1.24,1.2446,0.0,1.2462,0.0,0.0,0.0,0.0,0.0,0.0,0.0,0.0,0.0,0.0,0.0,0.0,0.0,0.0,0.0,0.0,0.0,0.0,0.0,0.0,0.0,0.0,0.0,0.0,0.0,0.0,0.0,0.0,0.0,0.0,0.0,0.0,0.0,0.0,0.0,0.0,0.0,0.0,0.0,0.0,0.0,0.0,0.0,0.0,0.0,0.0,0.0,0.0,0.0,0.0,0.0,0.0,0.0,0.0,0.0,0.0,0.0,0.0,0.0,0.0,0.0,0.0,0.0,0.0,0.0,0.0,0.0,0.0,0.0,0.0,0.0,0.0,0.0,0.0,0.0,0.0,0.0,0.0,0.0,0.0,0.0,0.0,0.0,0.0,0.0,0.0,0.0,0.0,0.0,0.0,0.0,0.0,0.0,0.0,0.0,0.0,0.0,0.0,0.0,0.0,0.0,0.0,0.0,0.0,0.0,0.0,0.0,0.0,0.0,0.0,1.1933,1.2627,1.262,1.2613,0.0,0.0,0.0,0.0,0.0,0.0,0.0,0.0,0.0,0.0,0.0,0.0,0.0,0.0,0.0,0.0,0.0,0.0,0.0,0.0,0.0,0.0,0.0,0.0,0.0,0.0,0.0,0.0,0.0,0.0,0.0,0.0,0.0,0.0,0.0,0.0,0.0,0.0,0.0,0.0,0.0,0.0,0.0,0.0,0.0,0.0,0.0,0.0,0.0,0.0,0.0,0.0,0.0,0.0,0.0,0.0,0.0,0.0,0.0,0.0,0.0,0.0,0.0,0.0,0.0,0.0,0.0,0.0,0.0,0.0,0.0,0.0,0.0,0.0,0.0,0.0,0.0,0.0,0.0,0.0,0.0,0.0,0.0,0.0,0.0,0.0,0.0,0.0,0.0,0.0,0.0,0.0,0.0,0.0,0.0,0.0,0.0,0.0,0.0,0.0,0.0,0.0,0.0,0.0,0.0,0.0,0.0,0.0,0.0,0.0,1.2246,1.284,1.3276,1.3269,1.3056,1.2646,0.0,0.0,0.0,0.0,0.0,0.0,0.0,0.0,0.0,0.0,0.0,0.0,0.0,0.0,0.0,0.0,0.0,0.0,0.0,0.0,0.0,0.0,0.0,0.0,0.0,0.0,0.0,0.0,0.0,0.0,0.0,0.0,0.0,0.0,0.0,0.0,0.0,0.0,0.0,0.0,0.0,0.0,0.0,0.0,0.0,0.0,0.0,0.0,0.0,0.0,0.0,0.0,0.0,0.0,0.0,0.0,0.0,0.0,0.0,0.0,0.0,0.0,0.0,0.0,0.0,0.0,0.0,0.0,0.0,0.0,0.0,0.0,0.0,0.0,0.0,0.0,0.0,0.0,0.0,0.0,0.0,0.0,0.0,0.0,0.0,0.0,0.0,0.0,0.0,0.0,0.0,0.0,0.0,0.0,0.0,0.0,0.0,0.0,0.0,0.0,0.0,0.0,0.0,0.0,0.0,0.0,0.0,0.0,1.469,1.3451,1.3482,1.5036,1.509,1.4323,0.0,0.0,0.0,0.0,0.0,0.0,0.0,0.0,0.0,0.0,0.0,0.0,0.0,0.0,0.0,0.0,0.0,0.0,0.0,0.0,0.0,0.0,0.0,0.0,0.0,0.0,0.0,0.0,0.0,0.0,0.0,0.0,0.0,0.0,0.0,0.0,0.0,0.0,0.0,0.0,0.0,0.0,0.0,0.0,0.0,0.0,0.0,0.0,0.0,0.0,0.0,0.0,0.0,0.0,0.0,0.0,0.0,0.0,0.0,0.0,0.0,0.0,0.0,0.0,0.0,0.0,0.0,0.0,0.0,0.0,0.0,0.0,0.0,0.0,0.0,0.0,0.0,0.0,0.0,0.0,0.0,0.0,0.0,0.0,0.0,0.0,0.0,0.0,0.0,0.0,0.0,0.0,0.0,0.0,0.0,0.0,0.0,0.0,0.0,0.0,0.0,0.0,0.0,0.0,0.0,0.0,0.0,0.0,0.0,1.1889,1.2413,1.4029,1.658,1.4736,1.3812,0.0,0.0,0.0,0.0,0.0,0.0,0.0,0.0,0.0,0.0,0.0,0.0,0.0,0.0,0.0,0.0,0.0,0.0,0.0,0.0,0.0,0.0,0.0,0.0,0.0,0.0,0.0,0.0,0.0,0.0,0.0,0.0,0.0,0.0,0.0,0.0,0.0,0.0,0.0,0.0,0.0,0.0,0.0,0.0,0.0,0.0,0.0,0.0,0.0,0.0,0.0,0.0,0.0,0.0,0.0,0.0,0.0,0.0,0.0,0.0,0.0,0.0,0.0,0.0,0.0,0.0,0.0,0.0,0.0,0.0,0.0,0.0,0.0,0.0,0.0,0.0,0.0,0.0,0.0,0.0,0.0,0.0,0.0,0.0,0.0,0.0,0.0,0.0,0.0,0.0,0.0,0.0,0.0,0.0,0.0,0.0,0.0,0.0,0.0,0.0,0.0,0.0,0.0,0.0,0.0,0.0,0.0,0.0,0.0,1.1759,0.0,1.516,1.6703,1.4704,1.3518,0.0,0.0,0.0,0.0,0.0,0.0,0.0,0.0,0.0,0.0,0.0,0.0,0.0,0.0,0.0,0.0,0.0,0.0,0.0,0.0,0.0,0.0,0.0,0.0,0.0,0.0,0.0,0.0,0.0,0.0,0.0,0.0,0.0,0.0,0.0,0.0,0.0,0.0,0.0,0.0,0.0,0.0,0.0,0.0,0.0,0.0,0.0,0.0,0.0,0.0,0.0,0.0,0.0,0.0,0.0,0.0,0.0,0.0,0.0,0.0,0.0,0.0,0.0,0.0,0.0,0.0,0.0,0.0,0.0,0.0,0.0,0.0,0.0,0.0,0.0,0.0,0.0,0.0,0.0,0.0,0.0,0.0,0.0,0.0,0.0,0.0,0.0,0.0,0.0,0.0,0.0,0.0,0.0,0.0,0.0,0.0,0.0,0.0,0.0,0.0,0.0,0.0,0.0,0.0,0.0,0.0,0.0,0.0,1.1788,1.4986,1.6638,1.6774,1.5349,1.5157,1.3572,0.0,0.0,0.0,0.0,0.0,0.0,0.0,0.0,0.0,0.0,0.0,0.0,0.0,0.0,0.0,0.0,0.0,0.0,0.0,0.0,0.0,0.0,0.0,0.0,0.0,0.0,0.0,0.0,0.0,0.0,0.0,0.0,0.0,0.0,0.0,0.0,0.0,0.0,0.0,0.0,0.0,0.0,0.0,0.0,0.0,0.0,0.0,0.0,0.0,0.0,0.0,0.0,0.0,0.0,0.0,0.0,0.0,0.0,0.0,0.0,0.0,0.0,0.0,0.0,0.0,0.0,0.0,0.0,0.0,0.0,0.0,0.0,0.0,0.0,0.0,0.0,0.0,0.0,0.0,0.0,0.0,0.0,0.0,0.0,0.0,0.0,0.0,0.0,0.0,0.0,0.0,0.0,0.0,0.0,0.0,0.0,0.0,0.0,0.0,0.0,0.0,0.0,0.0,0.0,0.0,0.0,0.0,0.0,0.0,1.3495,1.5073,1.6525,1.7653,1.4946,1.3723,0.0,0.0,0.0,0.0,0.0,0.0,0.0,0.0,0.0,0.0,0.0,0.0,0.0,0.0,0.0,0.0,0.0,0.0,0.0,0.0,0.0,0.0,0.0,0.0,0.0,0.0,0.0,0.0,0.0,0.0,0.0,0.0,0.0,0.0,0.0,0.0,0.0,0.0,0.0,0.0,0.0,0.0,0.0,0.0,0.0,0.0,0.0,0.0,0.0,0.0,0.0,0.0,0.0,0.0,0.0,0.0,0.0,0.0,0.0,0.0,0.0,0.0,0.0,0.0,0.0,0.0,0.0,0.0,0.0,0.0,0.0,0.0,0.0,0.0,0.0,0.0,0.0,0.0,0.0,0.0,0.0,0.0,0.0,0.0,0.0,0.0,0.0,0.0,0.0,0.0,0.0,0.0,0.0,0.0,0.0,0.0,0.0,0.0,0.0,0.0,0.0,0.0,0.0,0.0,0.0,0.0,0.0,0.0,0.0,1.5093,1.6612,1.792,1.8934,1.5737,1.4286,1.4892,0.0,0.0,0.0,0.0,0.0,0.0,0.0,0.0,0.0,0.0,0.0,0.0,0.0,0.0,0.0,0.0,0.0,0.0,0.0,0.0,0.0,0.0,0.0,0.0,0.0,0.0,0.0,0.0,0.0,0.0,0.0,0.0,0.0,0.0,0.0,0.0,0.0,0.0,0.0,0.0,0.0,0.0,0.0,0.0,0.0,0.0,0.0,0.0,0.0,0.0,0.0,0.0,0.0,0.0,0.0,0.0,0.0,0.0,0.0,0.0,0.0,0.0,0.0,0.0,0.0,0.0,0.0,0.0,0.0,0.0,0.0,0.0,0.0,0.0,0.0,0.0,0.0,0.0,0.0,0.0,0.0,0.0,0.0,0.0,0.0,0.0,0.0,0.0,0.0,0.0,0.0,0.0,0.0,0.0,0.0,0.0,0.0,0.0,0.0,0.0,0.0,0.0,0.0,0.0,0.0,0.0,0.0,0.0,1.8918,2.063,2.0774,1.9264,1.7419,1.5326,0.0,0.0,0.0,0.0,0.0,0.0,0.0,0.0,0.0,0.0,0.0,0.0,0.0,0.0,0.0,0.0,0.0,0.0,0.0,0.0,0.0,0.0,0.0,0.0,0.0,0.0,0.0,0.0,0.0,0.0,0.0,0.0,0.0,0.0,0.0,0.0,0.0,0.0,0.0,0.0,0.0,0.0,0.0,0.0,0.0,0.0,0.0,0.0,0.0,0.0,0.0,0.0,0.0,0.0,0.0,0.0,0.0,0.0,0.0,0.0,0.0,0.0,0.0,0.0,0.0,0.0,0.0,0.0,0.0,0.0,0.0,0.0,0.0,0.0,0.0,0.0,0.0,0.0,0.0,0.0,0.0,0.0,0.0,0.0,0.0,0.0,0.0,0.0,0.0,0.0,0.0,0.0,0.0,0.0,0.0,0.0,0.0,0.0,0.0,0.0,0.0,0.0,0.0,0.0,0.0,0.0,0.0,0.0,0.0,1.9539,2.1874,2.2946,2.2514,1.9203,1.7028,0.0,0.0,0.0,0.0,0.0,0.0,0.0,0.0,0.0,0.0,0.0,0.0,0.0,0.0,0.0,0.0,0.0,0.0,0.0,0.0,0.0,0.0,0.0,0.0,0.0,0.0,0.0,0.0,0.0,0.0,0.0,0.0,0.0,0.0,0.0,0.0,0.0,0.0,0.0,0.0,0.0,0.0,0.0,0.0,0.0,0.0,0.0,0.0,0.0,0.0,0.0,0.0,0.0,0.0,0.0,0.0,0.0,0.0,0.0,0.0,0.0,0.0,0.0,0.0,0.0,0.0,0.0,0.0,0.0,0.0,0.0,0.0,0.0,0.0,0.0,0.0,0.0,0.0,0.0,0.0,0.0,0.0,0.0,0.0,0.0,0.0,0.0,0.0,0.0,0.0,0.0,0.0,0.0,0.0,0.0,0.0,0.0,0.0,0.0,0.0,0.0,0.0,0.0,0.0,0.0,0.0,0.0,0.0,1.8608,2.1461,2.3359,2.4376,2.4438,2.1082,1.8563,0.0,0.0,0.0,0.0,0.0,0.0,0.0,0.0,0.0,0.0,0.0,0.0,0.0,0.0,0.0,0.0,0.0,0.0,0.0,0.0,0.0,0.0,0.0,0.0,0.0,0.0,0.0,0.0,0.0,0.0,0.0,0.0,0.0,0.0,0.0,0.0,0.0,0.0,0.0,0.0,0.0,0.0,0.0,0.0,0.0,0.0,0.0,0.0,0.0,0.0,0.0,0.0,0.0,0.0,0.0,0.0,0.0,0.0,0.0,0.0,0.0,0.0,0.0,0.0,0.0,0.0,0.0,0.0,0.0,0.0,0.0,0.0,0.0,0.0,0.0,0.0,0.0,0.0,0.0,0.0,0.0,0.0,0.0,0.0,0.0,0.0,0.0,0.0,0.0,0.0,0.0,0.0,0.0,0.0,0.0,0.0,0.0,0.0,0.0,0.0,0.0,0.0,0.0,0.0,0.0,0.0,0.0,0.0,2.0508,2.3619,2.4639,2.5147,2.5074,2.2808,1.9997,0.0,0.0,0.0,0.0,0.0,0.0,0.0,0.0,0.0,0.0,0.0,0.0,0.0,0.0,0.0,0.0,0.0,0.0,0.0,0.0,0.0,0.0,0.0,0.0,0.0,0.0,0.0,0.0,0.0,0.0,0.0,0.0,0.0,0.0,0.0,0.0,0.0,0.0,0.0,0.0,0.0,0.0,0.0,0.0,0.0,0.0,0.0,0.0,0.0,0.0,0.0,0.0,0.0,0.0,0.0,0.0,0.0,0.0,0.0,0.0,0.0,0.0,0.0,0.0,0.0,0.0,0.0,0.0,0.0,0.0,0.0,0.0,0.0,0.0,0.0,0.0,0.0,0.0,0.0,0.0,0.0,0.0,0.0,0.0,0.0,0.0,0.0,0.0,0.0,0.0,0.0,0.0,0.0,0.0,0.0,0.0,0.0,0.0,0.0,0.0,0.0,0.0,0.0,0.0,0.0,0.0,0.0,0.0,2.0367,2.22,2.3923,2.4809,2.4809,2.3252,2.1149,0.0,0.0,0.0,0.0,0.0,0.0,0.0,0.0,0.0,0.0,0.0,0.0,0.0,0.0,0.0,0.0,0.0,0.0,0.0,0.0,0.0,0.0,0.0,0.0,0.0,0.0,0.0,0.0,0.0,0.0,0.0,0.0,0.0,0.0,0.0,0.0,0.0,0.0,0.0,0.0,0.0,0.0,0.0,0.0,0.0,0.0,0.0,0.0,1.199,0.0,0.0,0.0,0.0,0.0,0.0,0.0,0.0,0.0,0.0,0.0,0.0,0.0,0.0,0.0,0.0,0.0,0.0,0.0,0.0,0.0,0.0,0.0,0.0,0.0,0.0,0.0,0.0,0.0,0.0,0.0,0.0,0.0,0.0,0.0,0.0,0.0,0.0,0.0,0.0,0.0,0.0,0.0,0.0,0.0,0.0,0.0,0.0,0.0,0.0,0.0,0.0,0.0,0.0,0.0,0.0,0.0,0.0,0.0,2.1308,2.3209,2.4348,2.4933,2.4917,2.4224,2.231,0.0,0.0,0.0,0.0,0.0,0.0,0.0,0.0,0.0,0.0,0.0,0.0,0.0,0.0,0.0,0.0,0.0,0.0,0.0,0.0,0.0,0.0,0.0,0.0,0.0,0.0,0.0,0.0,0.0,0.0,0.0,0.0,0.0,0.0,0.0,0.0,0.0,0.0,0.0,0.0,0.0,0.0,0.0,0.0,0.0,0.0,0.0,0.0,0.0,0.0,0.0,0.0,0.0,0.0,0.0,0.0,0.0,0.0,0.0,0.0,0.0,0.0,0.0,0.0,0.0,0.0,0.0,0.0,0.0,0.0,0.0,0.0,0.0,0.0,0.0,0.0,0.0,0.0,0.0,0.0,0.0,0.0,0.0,0.0,0.0,0.0,0.0,0.0,0.0,0.0,0.0,0.0,0.0,0.0,0.0,0.0,0.0,0.0,0.0,0.0,0.0,0.0,0.0,0.0,0.0,0.0,0.0,1.9861,2.2209,2.4679,2.499,2.5132,2.5132,2.5171,2.3277,1.9259,0.0,0.0,0.0,0.0,0.0,0.0,0.0,0.0,0.0,0.0,0.0,0.0,0.0,0.0,0.0,0.0,0.0,0.0,0.0,0.0,0.0,0.0,0.0,0.0,0.0,0.0,0.0,0.0,0.0,0.0,0.0,0.0,0.0,0.0,0.0,0.0,0.0,0.0,1.2115,1.4247,0.0,0.0,0.0,0.0,0.0,0.0,0.0,0.0,1.4094,0.0,0.0,0.0,0.0,0.0,0.0,0.0,0.0,0.0,0.0,0.0,0.0,0.0,0.0,0.0,0.0,0.0,0.0,0.0,0.0,0.0,0.0,0.0,0.0,0.0,0.0,0.0,0.0,0.0,0.0,0.0,0.0,0.0,0.0,0.0,0.0,0.0,0.0,0.0,0.0,0.0,0.0,0.0,0.0,0.0,0.0,0.0,0.0,0.0,0.0,0.0,0.0,0.0,0.0,0.0,0.0,1.991,1.9845,2.125,2.4238,2.4614,2.4787,2.4794,2.5057,2.3542,2.0095,0.0,0.0,0.0,0.0,0.0,0.0,0.0,0.0,0.0,0.0,0.0,0.0,0.0,0.0,0.0,0.0,0.0,0.0,0.0,0.0,0.0,0.0,0.0,0.0,0.0,0.0,0.0,0.0,0.0,0.0,0.0,0.0,0.0,0.0,0.0,0.0,0.0,0.0,0.0,1.75,1.8455,0.0,0.0,0.0,0.0,0.0,0.0,0.0,0.0,1.4536,0.0,0.0,0.0,0.0,0.0,0.0,0.0,0.0,0.0,0.0,0.0,0.0,0.0,0.0,0.0,0.0,0.0,0.0,0.0,0.0,0.0,0.0,0.0,0.0,0.0,0.0,0.0,0.0,0.0,0.0,0.0,0.0,0.0,0.0,0.0,0.0,0.0,0.0,0.0,0.0,0.0,0.0,0.0,0.0,0.0,0.0,0.0,0.0,0.0,0.0,0.0,0.0,0.0,0.0,0.0,1.8587,2.0467,2.2351,2.4233,2.4557,2.4727,2.4752,2.3676,2.1945,0.0,0.0,0.0,0.0,0.0,0.0,0.0,0.0,0.0,0.0,0.0,0.0,0.0,0.0,0.0,0.0,0.0,0.0,0.0,0.0,0.0,0.0,0.0,0.0,0.0,0.0,0.0,0.0,0.0,0.0,0.0,0.0,0.0,0.0,0.0,0.0,0.0,0.0,0.0,0.0,1.8272,1.9266,2.0497,0.0,0.0,0.0,0.0,0.0,0.0,1.6719,1.5623,0.0,0.0,0.0,0.0,0.0,0.0,0.0,0.0,0.0,0.0,0.0,0.0,0.0,0.0,0.0,0.0,0.0,0.0,0.0,0.0,0.0,0.0,0.0,0.0,0.0,0.0,0.0,0.0,0.0,0.0,0.0,0.0,0.0,0.0,0.0,0.0,0.0,0.0,0.0,0.0,0.0,0.0,0.0,0.0,0.0,0.0,0.0,0.0,0.0,0.0,0.0,0.0,0.0,0.0,0.0,1.7023,2.0715,2.3202,2.4277,2.4528,2.4689,2.4791,2.2886,2.0906,0.0,0.0,0.0,0.0,0.0,0.0,0.0,0.0,0.0,0.0,0.0,0.0,0.0,0.0,0.0,0.0,0.0,0.0,0.0,0.0,0.0,0.0,0.0,0.0,0.0,0.0,0.0,0.0,0.0,0.0,0.0,0.0,0.0,0.0,0.0,0.0,0.0,0.0,0.0,0.0,0.0,2.0375,2.1323,2.0882,0.0,0.0,0.0,0.0,2.0447,1.894,0.0,0.0,0.0,0.0,0.0,0.0,0.0,0.0,0.0,0.0,0.0,0.0,0.0,0.0,0.0,0.0,0.0,0.0,0.0,0.0,0.0,0.0,0.0,0.0,0.0,0.0,0.0,0.0,0.0,0.0,0.0,0.0,0.0,0.0,0.0,0.0,0.0,0.0,0.0,0.0,0.0,0.0,0.0,0.0,0.0,0.0,0.0,0.0,0.0,0.0,0.0,0.0,0.0,0.0,0.0,0.0,1.6824,1.9448,2.1897,2.4001,2.4275,2.4422,2.4625,2.4403,2.2558,0.0,0.0,0.0,0.0,0.0,0.0,0.0,0.0,0.0,0.0,0.0,0.0,0.0,0.0,0.0,0.0,0.0,0.0,0.0,0.0,0.0,0.0,0.0,0.0,0.0,0.0,0.0,0.0,0.0,0.0,0.0,0.0,0.0,0.0,0.0,0.0,0.0,0.0,0.0,0.0,0.0,2.3733,2.2512,2.217,2.1762,0.0,0.0,2.1916,2.2038,2.2434,0.0,0.0,0.0,0.0,0.0,0.0,0.0,0.0,0.0,0.0,0.0,0.0,0.0,0.0,0.0,0.0,0.0,0.0,0.0,0.0,0.0,0.0,0.0,0.0,0.0,0.0,0.0,0.0,0.0,0.0,0.0,0.0,0.0,0.0,0.0,0.0,0.0,0.0,0.0,0.0,0.0,0.0,0.0,0.0,0.0,0.0,0.0,0.0,0.0,0.0,0.0,0.0,0.0,0.0,0.0,1.5998,1.7534,2.0772,2.299,2.3999,2.41,2.421,2.4415,2.2621,2.0474,0.0,0.0,0.0,0.0,0.0,0.0,0.0,0.0,0.0,0.0,0.0,0.0,0.0,0.0,0.0,0.0,0.0,0.0,0.0,0.0,0.0,0.0,0.0,0.0,0.0,0.0,0.0,0.0,0.0,0.0,0.0,0.0,0.0,0.0,0.0,0.0,0.0,0.0,0.0,0.0,0.0,0.0,2.3644,2.333,0.0,0.0,0.0,2.3892,2.4437,0.0,0.0,0.0,0.0,0.0,0.0,0.0,0.0,0.0,0.0,0.0,0.0,0.0,0.0,0.0,0.0,0.0,0.0,0.0,0.0,0.0,0.0,0.0,0.0,0.0,0.0,0.0,0.0,0.0,0.0,0.0,0.0,0.0,0.0,0.0,0.0,0.0,0.0,0.0,0.0,0.0,0.0,0.0,0.0,0.0,0.0,0.0,0.0,0.0,0.0,0.0,0.0,0.0,0.0,0.0,0.0,0.0,1.8056,2.1949,2.3986,2.3981,2.3971,2.4037,2.4192,2.1601,0.0,0.0,0.0,0.0,0.0,0.0,0.0,0.0,0.0,0.0,0.0,0.0,0.0,0.0,0.0,0.0,0.0,0.0,0.0,0.0,0.0,0.0,0.0,0.0,0.0,0.0,0.0,1.0321,0.0,0.0,0.0,0.0,0.0,0.0,0.0,0.0,0.0,0.0,0.0,0.0,0.0,0.0,2.2662,2.4471,2.4588,2.4708,0.0,0.0,2.5797,2.6099,2.5405,2.4177,0.0,0.0,0.0,0.0,0.0,0.0,0.0,0.0,0.0,0.0,0.0,0.0,0.0,0.0,0.0,0.0,0.0,0.0,0.0,0.0,0.0,0.0,0.0,0.0,0.0,0.0,0.0,0.0,0.0,0.0,0.0,0.0,0.0,0.0,0.0,0.0,0.0,0.0,0.0,0.0,0.0,0.0,0.0,0.0,0.0,0.0,0.0,0.0,0.0,0.0,0.0,0.0,0.0,0.0,1.7202,1.8102,2.1898,2.3907,2.3902,2.3855,2.3909,2.4088,2.3166,2.0899,0.0,0.0,0.0,0.0,0.0,0.0,0.0,0.0,0.0,0.0,0.0,0.0,0.0,0.0,0.0,0.0,0.0,0.0,0.0,0.0,0.0,0.0,0.0,0.0,0.0,0.0,0.0,0.0,0.0,0.0,0.0,0.0,0.0,0.0,0.0,0.0,0.0,0.0,0.0,0.0,0.0,2.4542,2.4757,2.6028,2.6965,0.0,2.7674,2.7678,2.6234,2.7175,2.6483,2.1852,0.0,0.0,0.0,0.0,0.0,0.0,0.0,0.0,0.0,0.0,0.0,0.0,0.0,0.0,0.0,0.0,0.0,0.0,0.0,0.0,0.0,0.0,0.0,0.0,0.0,0.0,0.0,0.0,0.9527,0.0,0.0,0.0,0.0,0.0,0.0,0.0,0.0,0.0,0.0,0.0,0.0,0.0,0.0,0.0,0.0,0.0,0.0,0.0,0.0,0.0,0.0,0.0,0.0,1.7376,1.8699,2.2064,2.3832,2.3832,2.3811,2.3842,2.3919,2.3176,2.1416,0.0,0.0,0.0,0.0,0.0,0.0,0.0,0.0,0.0,0.0,0.0,0.0,0.0,0.0,0.0,0.0,0.0,0.0,0.0,0.0,0.0,0.0,0.0,0.0,0.0,0.0,0.0,0.0,1.2214,1.2498,1.1993,0.0,0.0,0.0,0.0,0.0,0.0,0.0,0.0,0.0,0.0,2.457,2.5736,2.6309,0.0,0.0,2.7857,2.7905,2.8133,2.7704,2.6586,2.4382,2.3191,0.0,0.0,0.0,0.0,0.0,0.0,0.0,0.0,0.0,0.0,0.0,0.0,0.0,0.0,0.0,0.0,0.0,0.0,0.0,0.0,0.0,0.0,0.0,0.0,0.0,0.0,0.0,0.0,0.0,0.0,0.0,0.0,0.0,0.0,0.0,0.0,0.0,0.0,0.0,0.0,0.0,0.0,0.0,0.0,0.0,0.0,0.0,0.0,0.0,0.0,0.0,0.0,1.7498,1.9111,2.2198,2.3795,2.3795,2.3795,2.3795,2.3777,2.3084,2.1714,0.0,0.0,0.0,0.0,0.0,0.0,0.0,0.0,0.0,0.0,0.0,0.0,0.0,0.0,0.0,0.0,0.0,0.0,0.0,0.0,0.0,0.0,0.0,0.0,0.0,0.0,0.0,0.0,1.2538,1.2627,1.2061,0.0,0.0,0.0,0.0,0.0,0.0,0.0,0.0,0.0,0.0,2.5068,2.6638,2.6909,2.7302,2.8273,2.7919,2.7782,2.8447,2.7642,2.6557,2.5444,0.0,0.0,0.0,0.0,0.0,0.0,0.0,0.0,0.0,0.0,0.0,0.0,0.0,0.0,0.0,0.0,0.0,0.0,0.0,0.0,0.0,0.0,0.0,0.0,0.0,0.0,0.0,1.1303,0.0,0.0,1.0058,0.0,0.0,0.0,0.0,0.0,0.0,0.0,0.0,0.0,0.0,0.0,0.0,0.0,0.0,0.0,0.0,0.0,0.0,0.0,0.0,0.0,0.0,1.7502,1.9102,2.2221,2.3795,2.3795,2.3795,2.3795,2.3777,2.3084,2.1964,2.0392,0.0,0.0,0.0,0.0,0.0,0.0,0.0,0.0,0.0,0.0,0.0,0.0,0.0,0.0,0.0,0.0,0.0,0.0,0.0,0.0,0.0,0.0,0.0,0.0,0.0,0.0,1.1188,1.1149,1.1203,0.0,0.0,0.0,0.0,0.0,0.0,0.0,0.0,0.0,2.2333,2.4601,2.6392,2.7354,2.8148,2.8634,2.8718,2.8092,2.7368,2.6662,2.703,2.6644,0.0,0.0,0.0,0.0,0.0,0.0,0.0,0.0,0.0,0.0,0.0,0.0,0.0,0.0,0.0,0.0,0.0,0.0,0.0,0.0,0.0,0.0,0.0,0.0,0.0,0.0,0.0,1.5699,1.434,0.0,0.0,0.0,0.0,0.0,0.0,0.0,0.0,0.0,0.0,0.0,2.0807,2.1289,0.0,0.0,0.0,0.0,0.0,0.0,0.0,0.0,0.0,0.0,0.0,0.0,1.8284,1.9937,2.2478,2.3795,2.3795,2.3795,2.3795,2.3795,2.3555,2.2458,2.0469,0.0,0.0,0.0,0.0,0.0,0.0,0.0,0.0,0.0,0.0,0.0,0.0,0.0,0.0,0.0,0.0,0.0,0.0,0.0,0.0,0.0,0.0,0.0,0.0,0.0,1.1324,0.0,0.0,0.0,0.0,0.0,0.0,0.0,0.0,0.0,0.0,2.0253,2.2645,2.4491,2.6147,2.7519,2.8566,2.8772,2.9151,0.0,0.0,0.0,0.0,0.0,0.0,0.0,0.0,0.0,0.0,0.0,0.0,0.0,0.0,2.9139,2.3185,2.1659,2.1465,2.1984,0.0,0.0,0.0,0.0,0.0,0.0,0.0,0.0,0.0,0.0,0.0,0.0,0.0,0.0,1.8757,1.788,1.7262,0.0,0.0,0.0,0.0,0.0,0.0,0.0,0.0,2.2358,2.37,2.4026,2.4757,2.4708,2.3917,2.2374,2.0263,0.0,0.0,0.0,0.0,0.0,0.0,0.0,0.0,1.9162,2.1013,2.304,2.4082,2.4069,2.4082,2.3943,2.3714,2.3696,2.2888,2.1122,1.9777,1.8383,0.0,0.0,0.0,0.0,0.0,0.0,0.0,0.0,0.0,0.0,0.0,0.0,0.0,0.0,0.0,0.0,0.0,0.0,0.0,0.0,0.0,0.0,0.0,1.2007,0.0,0.0,0.0,0.0,0.0,0.0,0.0,0.0,0.0,2.0476,2.2887,2.5279,2.7057,2.8005,2.8883,2.9832,0.0,0.0,0.0,0.0,0.0,0.0,0.0,2.9187,3.0073,2.9924,2.9848,3.0387,3.2448,3.359,3.2231,0.0,0.0,2.7173,2.6019,2.6087,2.66,2.7611,2.8376,2.8371,2.9458,3.0265,0.0,0.0,0.0,0.0,1.8587,0.0,0.0,0.0,2.1074,2.1419,0.0,2.0282,0.0,0.0,0.0,0.0,1.8342,2.0553,0.0,0.0,2.5999,2.7061,2.644,2.7121,2.7103,2.6362,2.6271,2.5403,2.3676,1.9348,1.6577,0.0,0.0,0.0,0.0,0.0,2.0152,2.2431,2.3914,2.4641,2.4641,2.4647,2.4308,2.3577,2.3529,2.3148,2.2353,2.1551,2.0415,1.8923,1.669,0.0,0.0,0.0,0.0,0.0,0.0,0.0,0.0,0.0,0.0,0.0,0.0,0.0,0.0,0.0,0.0,0.0,0.0,0.0,0.0,1.2746,0.0,0.0,0.0,0.0,0.0,0.0,0.0,0.0,0.0,2.4258,2.3635,2.5566,2.7801,2.9787,0.0,0.0,0.0,0.0,3.0492,3.1229,3.072,3.0537,3.122,3.1914,3.2098,3.1439,0.0,0.0,3.237,3.4086,3.4908,3.2635,3.3584,3.4348,3.3807,3.3019,3.2791,3.2883,3.2857,3.3181,3.328,3.3538,3.4157,2.679,0.0,0.0,0.0,0.0,2.5087,2.6167,2.7413,2.7413,2.6486,2.4904,2.4447,0.0,0.0,0.0,0.0,0.0,0.0,2.5606,2.6952,2.8335,2.9118,2.9404,2.9546,2.949,2.925,2.8671,2.7873,2.6812,2.4986,2.177,1.7302,0.0,0.0,0.0,0.0,2.2191,2.3927,2.4955,2.5442,2.546,2.5466,2.5074,2.4308,2.3767,2.3392,2.3161,2.2389,2.1492,2.0481,1.8735,0.0,0.0,0.0,0.0,0.0,0.0,0.0,0.0,0.0,0.0,0.0,0.0,0.0,0.0,0.0,0.0,0.0,0.0,0.0,1.2619,1.3392,1.4247,0.0,0.0,0.0,0.0,0.0,0.0,0.0,0.0,0.0,2.88,2.9507,3.0,0.0,0.0,3.2414,3.2116,3.2318,3.2818,3.3573,3.3521,0.0,3.3661,3.2967,3.2687,3.3556,3.4585,3.5319,3.5526,3.6146,3.6385,3.565,3.6114,3.6566,3.6327,3.462,3.3501,3.385,3.4047,3.4269,3.4798,3.5122,3.5265,3.2029,2.9502,2.8674,2.8404,2.8539,2.9227,3.0082,3.0914,3.0914,3.0172,2.8896,2.8258,2.6471,2.3877,2.3715,0.0,0.0,0.0,2.8131,2.9384,3.0091,3.0503,3.0632,3.0857,3.0795,3.0477,3.0021,2.9515,2.9041,2.8226,2.5864,2.2024,0.0,2.1072,2.1182,2.2476,2.3898,2.5395,2.5888,2.6116,2.6105,2.5804,2.5268,2.45,2.4039,2.3679,2.3354,2.2887,2.238,2.1896,2.0407,1.8659,0.0,0.0,0.0,0.0,0.0,0.0,0.0,0.0,0.0,0.0,0.0,1.2887,1.1176,0.0,0.0,0.0,1.2056,1.3339,1.5457,1.6311,0.0,0.0,0.0,0.0,0.0,0.0,0.0,2.722,2.9366,3.1014,3.1882,3.2564,3.2827,3.2371,3.3283,3.3915,3.3738,0.0,3.4177,3.4983,3.505,3.5146,3.5464,3.4763,3.4501,3.5443,3.5969,3.6408,3.6874,3.698,3.698,3.7009,3.7166,3.7292,3.7319,3.5847,3.4928,3.5692,3.5865,3.6053,3.6514,3.6612,3.6586,3.6043,3.5782,3.2777,3.1471,3.1441,3.214,3.2441,3.2452,3.2444,3.2725,3.306,3.1616,3.0445,2.949,2.8098,0.0,2.9693,2.9739,3.0146,3.0812,3.1528,3.1456,3.0718,3.1423,3.137,3.066,3.0642,3.0625,3.051,2.9687,2.8928,2.8212,2.6103,2.4947,2.4776,2.47,2.5396,2.6833,2.675,2.67,2.6676,2.5921,2.5145,2.442,2.4332,2.3922,2.3148,2.3107,2.3107,2.3061,2.1808,2.0366,1.8805,0.0,0.0,0.0,0.0,0.0,0.0,0.0,0.0,0.0,0.0,0.0,0.0,0.0,0.0,0.0,1.5138,0.0,1.9601,2.055,0.0,0.0,0.0,2.472,2.5155,2.7525,2.9478,3.0331,0.0,0.0,3.3411,3.4777,3.5788,3.5768,3.5262,3.5062,3.5605,3.5079,3.4931,3.5683,3.5682,3.5861,3.6527,3.6589,3.6566,3.678,3.6978,3.6933,3.695,3.696,3.697,3.696,3.6997,3.6999,3.6989,3.6906,3.7204,3.7718,3.7874,3.7937,3.7831,3.7838,3.7846,3.8007,3.79,3.6585,3.5415,3.4459,3.4621,3.463,3.4492,3.4484,3.4226,3.3766,3.3384,3.2753,3.1975,3.2214,3.2517,3.2899,3.3523,3.3557,3.3165,3.3273,3.286,3.2133,3.2205,3.2129,3.1953,3.1936,3.1636,3.1037,3.0819,3.0336,2.963,2.9059,2.7913,2.6284,2.6676,2.7112,2.7489,2.7452,2.7438,2.742,2.6711,2.5939,2.5162,2.4589,2.3916,2.3142,2.3107,2.3107,2.3089,2.2763,2.1873,2.0325,1.7918,0.0,0.0,0.0,0.0,0.0,0.0,0.0,0.0,0.0,1.6922,1.3202,0.0,1.7908,0.0,1.7826,1.9399,2.1287,2.2113,0.0,0.0,2.6884,2.7754,3.0127,3.0913,3.1594,3.2397,3.3974,3.4981,3.4952,3.5824,3.6423,3.6317,3.6285,3.611,3.5655,3.5931,3.6237,3.6411,3.6399,3.6486,3.6663,3.6725,3.6735,3.6766,3.6766,3.6766,3.6766,3.6819,3.6841,3.6859,3.6921,3.698,3.7015,3.698,3.7074,3.7214,3.7261,3.7261,3.7261,3.7477,3.7658,3.9233,3.9198,3.8789,3.812,3.7282,3.6683,3.6371,3.6274,3.6265,3.5758,3.4924,3.4517,3.4066,3.3686,3.4102,3.4323,3.4358,3.4783,3.4721,3.4323,3.4235,3.3961,3.3503,3.309,3.288,3.2888,3.2564,3.2177,3.1739,3.1721,3.1528,3.1116,3.1133,3.0306,2.8775,2.875,2.8772,2.8754,2.8403,2.807,2.7708,2.7297,2.6553,2.5447,2.5004,2.426,2.3142,2.3107,2.2938,2.2622,2.2938,2.2394,2.0871,1.9252,1.765,0.0,0.0,0.0,0.0,0.0,0.0,0.0,0.0,0.0,0.0,0.0,2.0101,1.9867,2.0945,2.2689,2.5195,2.6103,2.7567,3.0021,3.0504,3.1167,3.2527,3.3178,3.3706,3.4092,3.5213,3.5905,3.5882,3.6304,3.6572,3.6433,3.6575,3.649,3.6074,3.6335,3.6613,3.6613,3.6572,3.6544,3.6602,3.6671,3.6719,3.6719,3.6719,3.6712,3.6728,3.6768,3.6811,3.6888,3.7221,3.7479,3.7506,3.7812,3.8006,3.8016,3.8033,3.7893,3.7559,3.7394,3.7334,3.9983,3.9965,3.9858,3.9716,3.9469,3.8318,3.7762,3.7655,3.7548,3.7029,3.6162,3.536,3.4995,3.4995,3.4978,3.4995,3.4995,3.4995,3.4943,3.4837,3.4855,3.4793,3.4662,3.3977,3.3661,3.3617,3.2897,3.2529,3.2546,3.2449,3.2406,3.2406,3.2406,3.2037,3.1318,3.0712,3.0309,3.0098,2.9308,2.8544,2.7859,2.7761,2.6964,2.5489,2.5401,2.4675,2.3177,2.3107,2.2797,2.2206,2.2745,2.2487,2.1164,2.0321,1.9473,0.0,1.7296,0.0,0.0,0.0,0.0,0.0,0.0,0.0,0.0,2.1148,2.2334,2.3602,2.448,2.6334,2.9691,3.0733,3.1524,3.2367,3.3688,3.427,3.3756,3.4809,3.5543,3.5443,3.6039,3.6451,3.6315,3.6402,3.6423,3.635,3.6385,3.6516,3.6603,3.6551,3.6464,3.6482,3.6374,3.6371,3.6471,3.6669,3.6842,3.6835,3.6998,3.697,3.7073,3.7114,3.713,3.7291,3.7784,3.8173,3.82,3.8751,3.9182,3.9157,3.914,3.894,3.8392,3.7912,3.7603,4.0391,4.0338,3.9673,3.9405,3.9339,3.9081,3.8609,3.7958,3.7379,3.7017,3.6837,3.664,3.6586,3.6568,3.6568,3.655,3.6568,3.6568,3.6215,3.5591,3.5591,3.5258,3.4697,3.4539,3.4469,3.4434,3.3661,3.3301,3.3257,3.2695,3.2406,3.2406,3.2406,3.2283,3.2022,0.0,0.0,0.0,2.9291,2.8817,2.8667,2.8042,2.6971,2.5465,2.5401,0.0,2.3195,2.3107,2.3043,2.2903,2.3019,0.0,0.0,0.0,0.0,0.0,0.0,0.0,0.0,0.0,0.0,0.0,2.4075,2.4174,2.2622,2.5279,2.7237,2.7552,2.8785,3.015,3.1446,3.228,3.3325,3.4664,3.5012,3.531,3.5795,3.6035,3.6129,3.6125,3.6263,3.6339,3.638,3.6322,3.6356,3.6415,3.6339,3.6608,3.7241,3.6785,3.6377,3.6332,3.6432,3.6363,3.635,3.6934,3.7381,3.7411,3.7867,3.8182,3.8198,3.8309,3.8404,3.8423,3.8623,3.8763,3.8746,3.8885,3.912,3.9129,3.9168,3.9119,3.9091,3.9184,3.9315,4.1053,4.099,4.0604,4.0435,0.0,4.0042,3.9656,3.9245,3.8462,3.7928,3.7524,3.7165,3.698,3.698,3.698,3.698,3.698,3.698,3.6769,3.6391,3.6408,3.6207,3.5821,3.5407,3.5249,3.5214,3.4396,3.3991,3.3956,3.3175,3.2835,3.2906,3.2512,3.2293,3.2293,3.2284,3.1758,3.0642,3.0229,2.965,2.8922,2.8483,2.7561,2.6079,2.5984,0.0,0.0,0.0,0.0,0.0,0.0,0.0,0.0,0.0,0.0,2.2499,2.2428,2.2374,2.2413,2.3781,2.508,2.6209,2.8041,2.8184,2.6036,2.7888,2.944,3.0179,3.1306,3.2407,3.3469,3.3954,3.4656,3.573,3.5817,3.5959,3.6316,3.6332,3.6484,3.6829,3.6881,3.7019,3.7387,3.7439,3.7422,3.7433,3.7433,3.7571,3.7881,3.7381,3.6991,3.737,3.7439,3.745,3.7456,3.7726,3.8047,3.8105,3.8347,3.8582,3.869,3.8745,3.8818,3.8873,3.917,3.9482,3.9534,3.9777,4.0083,4.0211,4.0244,4.0287,4.0378,3.9982,3.9684,4.1604,4.1604,4.1604,4.1604,4.1552,4.0948,4.0695,4.0632,3.9698,0.0,0.0,3.7682,3.7401,3.7401,3.7243,3.719,3.7183,3.706,3.698,3.698,3.698,3.6997,3.6933,3.6282,3.5964,3.592,3.509,3.4704,3.4652,3.3841,3.3475,3.3515,3.2773,3.2371,3.2354,3.2205,3.1891,3.1381,3.1223,3.0513,2.9314,2.9129,2.8333,2.6801,2.6748,2.6289,2.5313,2.4685,2.4073,2.3442,2.4154,2.4309,2.3764,2.5003,2.5768,2.5803,2.6421,2.6797,2.6799,2.7585,2.8476,2.9327,3.1045,3.1297,2.9468,3.0047,3.1037,3.2359,3.3085,3.3999,3.5259,3.5397,3.5628,3.6232,3.6284,3.6335,3.6501,3.6508,3.6835,3.7519,3.7691,3.7898,3.845,3.8537,3.8606,3.8588,3.8468,3.8675,3.8675,3.8168,3.7864,3.8347,3.8399,3.8537,3.8606,3.8726,3.8778,3.8795,3.8933,3.9036,3.9121,3.9154,3.9188,3.9365,3.9832,4.0162,4.0283,4.0648,4.1169,4.1324,4.1335,4.138,4.1382,4.0549,3.9985,4.1604,4.1604,4.1604,4.1604,4.1604,4.1499,4.1446,4.1323,3.9926,3.9241,3.9136,3.9031,3.8989,3.8926,3.8259,3.7953,3.7918,3.7278,3.698,3.698,3.698,3.693,3.6839,3.6706,3.6631,3.6516,3.574,3.543,3.5428,3.4642,3.4269,3.4231,3.3485,3.2752,3.2187,3.2011,3.1958,3.196,3.1307,3.0845,3.061,3.0009,2.8947,2.7469,2.7399,2.6678,2.5279,2.514,2.5007,2.4913,2.5609,2.595,2.5888,2.6688,2.7225,2.726,2.7873,2.8258,2.8229,2.9538,3.0959,3.2311,3.2659,3.2373,3.1608,3.2712,3.383,3.4631,3.4786,3.5235,3.6025,3.6128,3.6197,3.6301,3.6301,3.657,3.7226,3.7329,3.7605,3.8347,3.845,3.8468,3.8692,3.8709,3.8744,3.8657,3.8847,3.887,3.9296,3.8916,3.8519,3.8571,3.8606,3.8606,3.8813,3.9175,3.9474,3.9537,4.0089,4.0394,4.0417,4.0429,4.0441,4.0562,4.0625,4.0729,4.0763,4.0855,4.1012,4.1123,4.1163,4.121,4.1266,4.1055,4.1086,4.1538,4.1593,4.1515,4.1538,4.1604,4.1604,4.1604,4.1541,4.078,4.0258,3.993,3.9515,3.9312,3.9277,3.8926,3.875,3.8715,3.792,3.7549,3.7514,3.7058,3.6806,3.6755,3.6745,3.6735,3.6667,3.6248,3.6074,3.6045,3.5268,3.4852,3.488,3.4202,3.3445,3.2696,3.258,3.2345,3.1946,3.168,3.1333,3.0898,3.0568,2.9855,2.8777,2.875,2.8405,2.7621,2.7213,2.698,2.6987,2.7309,2.7515,2.7571,2.8325,2.875,2.8785,2.9406,2.9789,2.9764,3.1113,3.2235,3.2936,3.3709,3.4044,3.3711,3.4286,3.4845,3.5163,3.5552,3.5921,3.6284,3.6697,3.695,3.6956,3.7295,3.7691,3.8019,3.8088,3.8399,3.9054,3.9209,3.9365,3.9813,3.9848,3.9848,3.9848,3.9848,3.9986,4.0279,4.0055,3.9848,3.9859,3.9859,3.9848,3.983,4.0106,4.0331,4.0348,4.0658,4.0877,4.0894,4.0894,4.0894,4.0894,4.0894,4.0894,4.0894,4.0894,4.0959,4.1058,4.1111,4.1123,4.1192,4.1243,4.1363,4.1442,4.1538,4.1482,4.1493,4.156,4.156,4.1549,4.1515,4.1379,4.1105,4.0598,3.9991,3.9757,3.9761,3.9582,3.9473,3.9357,3.8604,3.8196,3.8115,3.7335,3.6918,3.6869,3.6748,3.6651,3.6602,3.6496,3.6482,3.6423,3.5783,3.5403,3.525,3.4817,3.4158,3.333,3.3321,3.2972,3.2353,3.2294,3.1888,3.1133,3.1107,3.0742,3.0074,2.9987,2.9884,2.9566,2.9021,2.8727,2.8744,2.89,2.9011,2.9103,2.9814,3.0256,3.0291,3.0725,3.1096,3.1338,3.2458,3.3248,3.3438,3.4507,3.5276,3.5421,3.5456,3.5449,3.5508,3.5956,3.6363,3.6622,3.7105,3.7564,3.7726,3.8243,3.8606,3.8813,3.8847,3.914,3.9802,3.9986,4.0215,4.0722,4.0894,4.0843,4.0808,4.0894,4.0894,4.0894,4.0894,4.0894,4.0894,4.0894,4.0825,4.0894,4.086,4.0848,4.0894,4.0894,4.0894,4.0894,4.0894,4.0894,4.0894,4.0894,4.0894,4.0894,4.0894,4.0935,4.1023,4.1047,4.1064,4.1146,4.1186,4.1255,4.1403,4.1437,4.1526,4.1515,4.1426,4.1426,4.1352,4.1255,4.122,4.1197,4.1098,4.1058,4.1045,4.1106,4.036,4.0048,3.9967,3.9179,3.8831,3.8744,3.8049,3.762,3.7477,3.6859,3.6461,3.6388,3.6339,3.6391,3.6482,3.6267,3.5863,3.5269,3.5141,3.4744,3.4089,3.4002,3.3968,3.3879,3.3191,3.2466,3.1776,3.1724,3.1388,3.0628,3.0628,3.0265,2.9636,2.9437,2.9403,2.948,3.0093,3.0498,3.0567,3.1215,3.1603,3.162,3.168,3.1991,3.2654,3.3509,3.4259,3.4914,3.5104,3.5501,3.6094,3.618,3.6197,3.6232,3.6266,3.6656,3.7277,3.7502,3.7881,3.8433,3.8657,3.8847,3.9468,3.9606,3.9917,4.0693,4.0693,4.0843,4.0877,4.0894,4.0894,4.0894,4.0894,4.0894,4.0894,4.0894,4.0894,4.0894,4.0894,4.0894,4.0894,4.0894,4.0894,4.0894,4.0894,4.0894,4.0894,4.0894,4.0894,4.0894,4.0894,4.0894,4.0894,4.0894,4.0894,4.0935,4.0947,4.0942,4.1076,4.114,4.1215,4.1244,4.1283,4.129,4.1301,4.1283,4.1295,4.1243,4.1209,4.1163,4.1146,4.1186,4.1071,4.1094,4.1266,4.0907,4.0745,4.0693,3.9867,3.9503,3.9423,3.8668,3.8239,3.8119,3.7439,3.7061,3.695,3.6536,3.6322,3.6371,3.6322,3.6128,3.5897,3.5852,3.5483,3.4811,3.4759,3.4535,3.4103,3.3766,3.3465,3.3086,3.2275,3.1671,3.1395,3.1334,3.1214,3.0903,3.0869,3.0869,3.0869,3.1179,3.1343,3.1361,3.2051,3.2455,3.2472,3.2913,3.3293,3.3603,3.4318,3.488,3.518,3.5621,3.6001,3.6284,3.6725,3.7019,3.7019,3.7157,3.7346,3.7571,3.8278,3.8933,3.925,3.9658,4.0072,4.0348,4.0417,4.0572,4.086,4.0894,4.0894,4.0894,4.0894,4.0894,4.0894,4.0894,4.0894,4.0894,4.0894,4.0894,4.0894,4.0894,4.0894,4.0894,4.0894,4.0894,4.0894,4.0894,4.0894,4.0894,4.0894,4.0894,4.0894,4.0894,4.0894,4.0894,4.0894,4.0894,4.0894,4.0894,4.0906,4.0971,4.1018,4.1035,4.1123,4.1175,4.1146,4.114,4.1169,4.1169,4.1157,4.1123,4.1064,4.1076,4.11,4.0965,4.0989,4.1094,4.1117,4.1105,4.1024,4.0458,4.017,4.0072,3.9295,3.8899,3.883,3.8157,3.7674,3.7433,3.6915,3.6525,3.6335,3.6284,3.6284,3.6284,3.6284,3.6042,3.5559,3.5508,3.5259,3.4759,3.4517,3.4407,3.4224,3.3103,3.2344,3.2127,3.2093,3.2016,3.18,3.18,3.18,3.18,3.1972,3.2093,3.2127,3.2817,3.3231,3.3293,3.3965,3.4397,3.4387,3.5087,3.549,3.5542,3.6035,3.6387,3.668,3.7226,3.764,3.7847,3.8341,3.8588,3.8278,3.906,3.9733,4.0008,4.0589,4.0894,4.0877,4.0894,4.0877,4.0894,4.0894,4.0894,4.0894,4.0894,4.0894,4.0894,4.0894,4.0894,4.0894,4.0894,4.0894,4.0894,4.0894,4.0894,4.0894,4.0894,4.0894,4.0894,4.0894,4.0894,4.0894,4.0894,4.0894,4.0894,4.0894,4.0894,4.0894,4.0894,4.0894,4.0894,4.0894,4.0894,4.0923,4.0935,4.0976,4.1111,4.1099,4.1169,4.1163,4.1105,4.1105,4.1047,4.093,4.0923,4.0906,4.0918,4.0923,4.0894,4.0918,4.093,4.0906,4.0918,4.0837,4.0803,4.0716,4.0003,3.9646,3.9606,3.8888,3.8209,3.7737,3.7547,3.707,3.6387,3.6318,3.6284,3.6284,3.6284,3.6284,3.618,3.618,3.6215,3.599,3.5456,3.5156,3.5087,3.4397,3.3638,3.3007,3.2842,3.2559,3.1972,3.1834,3.1852,3.1834,3.2507,3.2869,3.2921,3.362,3.4052,3.4138,3.4759,3.5156,3.5242,3.5801,3.618,3.6215,3.6318,3.6628,3.7295,3.776,3.8168,3.8537,3.9744,4.0256,3.9658,3.9692,4.0089,4.067,4.0843,4.0894,4.0894,4.0894,4.0894,4.0894,4.0894,4.0894,4.0894,4.0894,4.0894,4.0894,4.0894,4.0894,4.0894,4.0894,4.0894,4.0894,4.0894,4.0894,4.0894,4.0894,4.0894,4.0894,4.0894,4.0894,4.0894,4.0894,4.0894,4.0894,4.0894,4.0894,4.0894,4.0894,4.0894,4.0894,4.0894,4.0894,4.0894,4.1011,4.1035,4.0971,4.0971,4.1,4.1006,4.0971,4.0971,4.0947,4.0894,4.0894,4.0894,4.0894,4.0894,4.0894,4.0894,4.0894,4.0894,4.0894,4.0894,4.0894,4.0877,4.0607,4.0469,4.0382,3.9675,3.9181,3.8899,3.8433,3.7812,3.7139,3.707,3.6794,3.6353,3.6284,3.6284,3.6284,3.6284,3.6284,3.6266,3.6025,3.5897,3.587,3.5656,3.5145,3.4414,3.3914,3.3551,3.3266,3.3258,3.3285,3.3258,3.3534,3.3655,3.3741,3.4397,3.5035,3.5456,3.5759,3.5915,3.5949,3.6128,3.6284,3.6318,3.6794,3.7191,3.7588,3.8416,3.9112,3.9468,4.0244,4.0676,4.0572,4.0469,4.0572,4.0825,4.0894,4.0894,4.0894,4.0894,4.0894,4.0894,4.0894,4.0894,4.0894,4.0894,4.0894,4.0894,4.0894,4.0894,4.0894,4.0894,4.0894,4.0894,4.0894,4.0894,4.0894,4.0894,4.0894,4.0894,4.0894,4.0894,4.0894,4.0894,4.0894,4.0894,4.0894,4.0894,4.0894,4.0894,4.0894,4.0894,4.0894,4.0894,4.0894,4.0971,4.0971,4.0894,4.0894,4.0894,4.0894,4.0894,4.0894,4.0894,4.0894,4.0894,4.0894,4.0894,4.0894,4.0894,4.0894,4.0894,4.0894,4.0894,4.0894,4.0894,4.0894,4.0894,4.0894,4.0808,4.0348,3.9939,3.9612,3.8951,3.8312,3.7916,3.7864,3.7571,3.7077,3.6818,3.6697,3.6656,3.6439,3.6284,3.6284,3.6284,3.6284,3.6284,3.6284,3.6087,3.557,3.5069,3.4542,3.4138,3.4086,3.4086,3.4121,3.431,3.4569,3.4818,3.5266,3.5749,3.6215,3.6266,3.6284,3.6346,3.6542,3.668,3.6715,3.7387,3.7927,3.8226,3.914,3.9744,4.0141,4.052,4.0894,4.0894,4.0894,4.0894,4.0894,4.0894,4.0894,4.0894,4.0894,4.0894,4.0894,4.0894,4.0894,4.0894,4.0894,4.0894,4.0894,4.0894,4.0894,4.0894,4.0894,4.0894,4.0894,4.0894,4.0894,4.0894,4.0894,4.0894,4.0894,4.0894,4.0894,4.0894,4.0894,4.0894,4.0894,4.0894,4.0894,4.0894,4.0894,4.0894,4.0894,4.0894,4.0894,4.0894,4.0894,4.0906,4.0894,4.0894,4.0894,4.0894,4.0894,4.0894,4.0894,4.0894,4.0894,4.0894,4.0894,4.0894,4.0894,4.0894,4.0894,4.0894,4.0894,4.0894,4.0894,4.0894,4.0894,4.0894,4.0877,4.0814,4.0446,3.9819,3.9054,3.8692,3.8623,3.8606,3.8537,3.8399,3.7778,3.7495,3.7495,3.6881,3.6422,3.6422,3.6422,3.6353,3.6284,3.6284,3.6277,3.6215,3.6156,3.5535,3.4276,3.4224,3.4293,3.4345,3.4862,3.5542,3.6008,3.618,3.6249,3.6266,3.6284,3.6284,3.6422,3.7019,3.7381,3.7588,3.8192,3.8864,3.933,3.9692,4.0089,4.0624,4.0825,4.0894,4.0894,4.0894,4.0894,4.0894,4.0894,4.0894,4.0894,4.0894,4.0894,4.0894,4.0894,4.0894,4.0894,4.0894,4.0894,4.0894,4.0894,4.0894,4.0894,4.0894,4.0894,4.0894,4.0894,4.0894,4.0894,4.0894,4.0894,4.0894,4.0894,4.0894,4.0894,4.0894,4.0894,4.0894,4.0894,4.0894,4.0894,4.0894,4.0894,4.0894,4.0894,4.0894,4.0894,4.0894,4.0894,4.0894,4.0894,4.0894,4.0894,4.0894,4.0894,4.0894,4.0894,4.0894,4.0894,4.0894,4.0894,4.0894,4.0894,4.0894,4.0894,4.0894,4.0894,4.0894,4.0894,4.0894,4.0894,4.0894,4.0894,4.0762,4.052,4.0296,3.9865,3.9451,3.9365,3.9129,3.864,3.8399,3.8261,3.8261,3.8002,3.7674,3.7174,3.7122,3.6881,3.6353,3.6301,3.6301,3.6284,3.6284,3.6042,3.5645,3.5611,3.5621,3.5587,3.5835,3.6059,3.626,3.6284,3.6284,3.6284,3.6284,3.6605,3.707,3.7381,3.7795,3.8261,3.8933,3.9399,3.9727,4.021,4.0572,4.0883,4.0894,4.0894,4.0894,4.0894,4.0894,4.0894,4.0894,4.0894,4.0894,4.0894,4.0894,4.0894,4.0894,4.0894,4.0894,4.0894,4.0894,4.0894,4.0894,4.0894,4.0894,4.0894,4.0894,4.0894,4.0894,4.0894,4.0894,4.0894,4.0894,4.0894,4.0894,4.0894,4.0894,4.0894,4.0894,4.0894,4.0894,4.0894,4.0894,4.0894,4.0894,4.0894,4.0894,4.0894,4.0894,4.0894,4.0894,4.0894,4.0894,4.0894,4.0894,4.0894,4.0894,4.0894,4.0894,4.0894,4.0894,4.0894,4.0894,4.0894,4.0894,4.0894,4.0894,4.0894,4.0894,4.0894,4.0894,4.0894,4.0894,4.0894,4.0894,4.0894,4.0894,4.0894,4.0641,4.0175,4.0124,3.9917,3.952,3.9175,3.902,3.8957,3.8709,3.833,3.795,3.7909,3.7674,3.7267,3.7163,3.7157,3.7146,3.7146,3.7174,3.7146,3.7163,3.6887,3.6422,3.6284,3.6284,3.6301,3.6559,3.676,3.6794,3.7025,3.7404,3.7864,3.8209,3.8485,3.9037,3.971,4.0141,4.0244,4.0693,4.0865,4.0894,4.0894,4.0894,4.0894,4.0894,4.0894,4.0894,4.0894,4.0894,4.0894,4.0894,4.0894,4.0894,4.0894,4.0894,4.0894,4.0894,4.0894,4.0894,4.0894,4.0894,4.0894,4.0894,4.0894,4.0894,4.0894,4.0894,4.0894,4.0894,4.0894,4.0894,4.0894,4.0894,4.0894,4.0894,4.0894,4.0894,4.0894,4.0894,4.0894,4.0894,4.0894,4.0894,4.0894,4.0894,4.0894,4.0894,4.0894,4.0894,4.0894,4.0894,4.0894,4.0894,4.0894,4.0894,4.0894,4.0894,4.0894,4.0894,4.0894,4.0894,4.0894,4.0894,4.0894,4.0894,4.0894,4.0894,4.0894,4.0894,4.0894,4.0894,4.0894,4.0894,4.0894,4.0894,4.0877,4.0745,4.0762,4.0894,4.0641,4.0072,3.9761,3.9692,3.91,3.883,3.8681,3.8657,3.8623,3.8468,3.8485,3.8485,3.845,3.8433,3.8416,3.8353,3.8347,3.7818,3.6663,3.6611,3.6674,3.6639,3.7185,3.7547,3.7571,3.8209,3.8468,3.8761,3.9112,3.9589,3.9796,4.0365,4.0894,4.0825,4.0825,4.0894,4.0894,4.0894,4.0894,4.0894,4.0894,4.0894,4.0894,4.0894,4.0894,4.0894,4.0894,4.0894,4.0894,4.0894,4.0894,4.0894,4.0894,4.0894,4.0894,4.0894,4.0894,4.0894,4.0894,4.0894,4.0894,4.0894,4.0894,4.0894,4.0894,4.0894,4.0894,4.0894,4.0894,4.0894,4.0894,4.0894,4.0894,4.0894,4.0894,4.0894,4.0894,4.0894,4.0894,4.0894,4.0894,4.0894,4.0894,4.0894,4.0894,4.0894,4.0894,4.0894,4.0894,4.0894,4.0894,4.0894,4.0894,4.0894,4.0894,4.0894,4.0894,4.0894,4.0894,4.0894,4.0894,4.0894,4.0894,4.0894,4.0894,4.0894,4.0894,4.0894,4.0894,4.0894,4.0894,4.0894,4.0894,4.0894,4.0894,4.0894,4.067,4.0555,4.052,4.0325,3.9968,3.9503,3.9405,3.914,3.8726,3.8675,3.8606,3.8606,3.8657,3.8657,3.8623,3.8606,3.8485,3.8088,3.8002,3.7991,3.7922,3.8157,3.8312,3.8364,3.8519,3.8882,3.9347,3.9595,3.9968,4.0503,4.0727,4.0894,4.0894,4.0894,4.0894,4.0894,4.0894,4.0894,4.0894,4.0894,4.0894,4.0894,4.0894,4.0894,4.0894,4.0894,4.0894,4.0894,4.0894,4.0894,4.0894,4.0894,4.0894,4.0894,4.0894,4.0894,4.0894,4.0894,4.0894,4.0894,4.0894,4.0894,4.0894,4.0894,4.0894,4.0894,4.0894,4.0894,4.0894,4.0894,4.0894,4.0894,4.0894,4.0894,4.0894,4.0894,4.0894,4.0894,4.0894,4.0894,4.0894,4.0894,4.0894,4.1188,4.0894,4.0894,4.0894,4.0894,4.0894,4.0894,4.0894,4.0894,4.0894,4.0894,4.0894,4.0894,4.0894,4.0894,4.0894,4.0894,4.0894,4.0894,4.0894,4.0894,4.0894,4.0894,4.0894,4.0894,4.0894,4.0894,4.0894,4.0894,4.0894,4.0894,4.0894,4.0894,4.0894,4.086,4.0877,4.0676,4.0279,4.021,3.9968,3.9606,3.9554,3.9572,3.9572,3.9572,3.9572,3.9572,3.9572,3.9313,3.8795,3.8606,3.8606,3.864,3.8916,3.9037,3.9089,3.9347,3.9813,4.0089,4.0193,4.04,4.0791,4.0894,4.0894,4.0894,4.0894,4.0894,4.0894,4.0894,4.0894,4.0894,4.0894,4.0894,4.0894,4.0894,4.0894,4.0894,4.0894,4.0894,4.0894,4.0894,4.0894,4.0894,4.0894,4.0894,4.0894,4.0894,4.0894,4.0894,4.0894,4.0894,4.0894,4.0894,4.0894,4.0894,4.0894,4.0894,4.0894,4.0894,4.0894,4.0894,4.0894,4.0894,4.0894,4.0894,4.0894,4.0894,4.0894,4.0894,4.0894,4.0894,4.0906,4.0918,4.0989,4.0977,4.1607,4.1015,4.0917,4.0894,4.0894,4.0894,4.0894,4.0894,4.0894,4.0894,4.0894,4.0894,4.0894,4.0894,4.0894,4.0894,4.0894,4.0894,4.0894,4.0894,4.0894,4.0894,4.0894,4.0894,4.0894,4.0894,4.0894,4.0894,4.0894,4.0894,4.0894,4.0894,4.0894,4.0894,4.0894,4.0894,4.0894,4.0825,4.0756,4.0722,4.0618,4.0618,4.0572,4.0589,4.0618,4.0653,4.0687,4.0705,4.0239,3.8916,3.883,3.8985,3.902,3.9554,3.9779,3.9917,4.0331,4.0722,4.086,4.0791,4.0843,4.0894,4.0894,4.0894,4.0894,4.0894,4.0894,4.0894,4.0894,4.0894,4.0894,4.0894,4.0894,4.0894,4.0894,4.0894,4.0894,4.0894,4.0894,4.0894,4.0894,4.0894,4.0894,4.0894,4.0894,4.0894,4.0894,4.0894,4.0894,4.0894,4.0894,4.0894,4.0894,4.0894,4.0894,4.0894,4.0894,4.0894,4.0894,4.0894,4.0894,4.0894,4.0894,4.0894,4.0894,4.0894,4.0894,4.0894,4.0894,4.0894,4.0894,4.0942,4.0989,4.1111,4.1128,4.19,4.1711,4.1136,4.0894,4.0894,4.0894,4.0894,4.0894,4.0894,4.0894,4.0894,4.0894,4.0894,4.0894,4.0894,4.0894,4.0894,4.0894,4.0894,4.0894,4.0894,4.0894,4.0894,4.0894,4.0894,4.0894,4.0894,4.0894,4.0894,4.0894,4.0894,4.0894,4.0894,4.0894,4.0894,4.0894,4.0894,4.0894,4.0894,4.0894,4.0894,4.0894,4.0894,4.0894,4.0894,4.0894,4.0894,4.0894,4.0722,4.048,4.0331,4.021,4.0279,4.0451,4.0555,4.0589,4.0722,4.0894,4.0894,4.0894,4.0894,4.0894,4.0894,4.0894,4.0894,4.0894,4.0894,4.0894,4.0894,4.0894,4.0894,4.0894,4.0894,4.0894,4.0894,4.0894,4.0894,4.0894,4.0894,4.0894,4.0894,4.0894,4.0894,4.0894,4.0894,4.0894,4.0894,4.0894,4.0894,4.0894,4.0894,4.0894,4.0894,4.0894,4.0894,4.0894,4.0894,4.0894,4.0894,4.0894,4.0894,4.0894,4.0894,4.0894,4.0894,4.0894,4.0894,4.0894,4.0894,4.0894,4.0918,4.1041,4.1157,4.1243,4.1418,4.2879,4.2487,4.174,4.1429,4.136,4.1067,4.0894,4.0894,4.0894,4.0894,4.0894,4.0894,4.0894,4.0894,4.0894,4.0894,4.0894,4.0894,4.0894,4.0894,4.0894,4.0894,4.0894,4.0894,4.0894,4.0894,4.0894,4.0894,4.0894,4.0894,4.0894,4.0894,4.0894,4.0894,4.0894,4.0894,4.0894,4.0894,4.0894,4.0894,4.0894,4.0894,4.0894,4.0894,4.0894,4.0894,4.0894,4.0894,4.0894,4.0894,4.0894,4.0894,4.0894,4.0894,4.0894,4.0894,4.0894,4.0894,4.0894,4.0894,4.0894,4.0894,4.0894,4.0894,4.0894,4.0894,4.0894,4.0894,4.0894,4.0894,4.0894,4.0894,4.0894,4.0894,4.0894,4.0894,4.0894,4.0894,4.0894,4.0894,4.0894,4.0894,4.0894,4.0894,4.0894,4.0894,4.0894,4.0894,4.0894,4.0894,4.0894,4.0894,4.0894,4.0894,4.0894,4.0894,4.0894,4.0894,4.0894,4.0894,4.0894,4.0894,4.0894,4.0894,4.0894,4.0894,4.0894,4.0894,4.0894,4.0894,4.0977,4.1152,4.1317,4.1434,4.1687,4.3949,4.3293,4.2516,4.2176,4.2056,4.1429,4.1107,4.1084,4.0946,4.0894,4.0894,4.0894,4.0894,4.0894,4.0894,4.0894,4.0894,4.0894,4.0894,4.0894,4.0894,4.0894,4.0894,4.0894,4.0894,4.0894,4.0894,4.0894,4.0894,4.0894,4.0894,4.0894,4.0894,4.0894,4.0894,4.0894,4.0894,4.0894,4.0894,4.0894,4.0894,4.0894,4.0894,4.0894,4.0894,4.0894,4.0894,4.0894,4.0894,4.0894,4.0894,4.0894,4.0894,4.0894,4.0894,4.0894,4.0894,4.0894,4.0894,4.0894,4.0894,4.0894,4.0894,4.0894,4.0894,4.0894,4.0894,4.0894,4.0894,4.0894,4.0894,4.0894,4.0894,4.0894,4.0894,4.0894,4.0894,4.0894,4.0894,4.0894,4.0894,4.0894,4.0894,4.0894,4.0894,4.0894,4.0894,4.0894,4.0894,4.0894,4.0894,4.0894,4.0894,4.0894,4.0894,4.0894,4.0894,4.0894,4.0894,4.0894,4.0894,4.0894,4.0894,4.0894,4.0894,4.0894,4.0894,4.0894,4.0894,4.0894,4.1076,4.1328,4.1501,4.1637,4.2001,4.4225,4.4052,4.331,4.3,4.2861,4.2142,4.1797,4.1693,4.1176,4.0912,4.0894,4.0894,4.0894,4.0894,4.0894,4.0894,4.0894,4.0894,4.0894,4.0894,4.0894,4.0894,4.0894,4.0894,4.0894,4.0894,4.0894,4.0894,4.0894,4.0894,4.0894,4.0894,4.0894,4.0894,4.0894,4.0894,4.0894,4.0894,4.0894,4.0894,4.0894,4.0894,4.0894,4.0894,4.0894,4.0894,4.0894,4.0894,4.0894,4.0894,4.0894,4.0894,4.0894,4.0894,4.0894,4.0894,4.0894,4.0894,4.0894,4.0894,4.0894,4.0894,4.0894,4.0894,4.0894,4.0894,4.0894,4.0894,4.0894,4.0894,4.0894,4.0894,4.0894,4.0894,4.0894,4.0894,4.0894,4.0894,4.0894,4.0894,4.0894,4.0894,4.0894,4.0894,4.0894,4.0894,4.0894,4.0894,4.0894,4.0894,4.0894,4.0894,4.0894,4.0894,4.0894,4.0894,4.0894,4.0894,4.0894,4.0894,4.0894,4.0894,4.0894,4.0894,4.0894,4.0894,4.0894,4.0894,4.0894,4.0894,4.1186,4.1523,4.1789,4.2053,4.2625,4.4872,4.4803,4.4087,4.3776,4.3638,4.2935,4.2366,4.1969,4.1624,4.1257,4.0998,4.0894,4.0894,4.0894,4.0894,4.0894,4.0894,4.0894,4.0894,4.0894,4.0894,4.0894,4.0894,4.0894,4.0894,4.0894,4.0894,4.0894,4.0894,4.0894,4.0894,4.0894,4.0894,4.0894,4.0894,4.0894,4.0894,4.0894,4.0894,4.0894,4.0894,4.0894,4.0894,4.0894,4.0894,4.0894,4.0894,4.0894,4.0894,4.0894,4.0894,4.0894,4.0894,4.0894,4.0894,4.0894,4.0894,4.0894,4.0894,4.0894,4.0894,4.0894,4.0894,4.0894,4.0894,4.0894,4.0894,4.0894,4.0894,4.0894,4.0894,4.0894,4.0894,4.0894,4.0894,4.0894,4.0894,4.0894,4.0894,4.0894,4.0894,4.0894,4.0894,4.0894,4.0894,4.0894,4.0894,4.0894,4.0894,4.0894,4.0894,4.0894,4.0894,4.0894,4.0894,4.0894,4.0894,4.0894,4.0894,4.0894,4.0894,4.0894,4.0894,4.0894,4.0894,4.0977,4.0894,4.0894,4.0894,4.0953,4.1283,4.1637,4.2095,4.2547,4.3041,4.5414,4.5345,4.4751,4.4522,4.4402,4.3741,4.3086,4.2504,4.2327,4.1947,4.1395,4.121,4.117,4.1101,4.0981,4.0894,4.0894,4.0894,4.0894,4.0894,4.0894,4.0894,4.0894,4.0894,4.0894,4.0894,4.0894,4.0894,4.0894,4.0894,4.0894,4.0894,4.0894,4.0894,4.0894,4.0894,4.0894,4.0894,4.0894,4.0894,4.0894,4.0894,4.0894,4.0894,4.0894,4.0894,4.0894,4.0894,4.0894,4.0894,4.0894,4.0894,4.0894,4.0894,4.0894,4.0894,4.0894,4.0894,4.0894,4.0894,4.0894,4.0894,4.0894,4.0894,4.0894,4.0894,4.0894,4.0894,4.0894,4.0894,4.0894,4.0894,4.0894,4.0894,4.0894,4.0894,4.0894,4.0894,4.0894,4.0894,4.0894,4.0894,4.0894,4.0894,4.0894,4.0894,4.0894,4.0894,4.0894,4.0894,4.0894,4.0894,4.0894,4.0894,4.0894,4.0894,4.0894,4.0894,4.0894,4.0894,4.0894,4.0894,4.0906,4.0965,4.11,4.114,4.1018,4.0942,4.0983,4.1128,4.1412,4.1821,4.2378,4.2788,4.3196,4.5414,4.5397,4.5307,4.5259,4.5134,4.4471,4.4121,4.3897,4.3276,4.3017,4.2672,4.2194,4.1866,4.1659,4.1119,4.0929,4.0894,4.0894,4.0894,4.0894,4.0894,4.0894,4.0894,4.0894,4.0894,4.0894,4.0894,4.0894,4.0894,4.0894,4.0894,4.0894,4.0894,4.0894,4.0894,4.0894,4.0894,4.0894,4.0894,4.0894,4.0894,4.0894,4.0894,4.0894,4.0894,4.0894,4.0894,4.0894,4.0894,4.0894,4.0894,4.0894,4.0894,4.0894,4.0894,4.0894,4.0894,4.0894,4.0894,4.0894,4.0894,4.0894,4.0894,4.0894,4.0894,4.0894,4.0894,4.0894,4.0894,4.0894,4.0894,4.0894,4.0894,4.0894,4.0894,4.0894,4.0894,4.0894,4.0894,4.0894,4.0894,4.0894,4.0894,4.0894,4.0894,4.0894,4.0894,4.0894,4.0894,4.0894,4.0894,4.0894,4.0894,4.0894,4.0894,4.0894,4.0906,4.0894,4.0906,4.093,4.1018,4.1065,4.1035,4.11,4.1277,4.1373,4.13,4.1232,4.1175,4.1384,4.1724,4.2198,4.2731,4.3078,4.3366,4.5414,4.5414,4.5414,4.5414,4.5363,4.5061,4.4682,4.4294,4.3966,4.3586,4.3207,4.2861,4.2447,4.1935,4.124,4.0912,4.0894,4.0894,4.0894,4.0894,4.0894,4.0894,4.0894,4.0894,4.0894,4.0894,4.0894,4.0894,4.0894,4.0894,4.0894,4.0894,4.0894,4.0894,4.0894,4.0894,4.0894,4.0894,4.0894,4.0894,4.0894,4.0894,4.0894,4.0894,4.0894,4.0894,4.0894,4.0894,4.0894,4.0894,4.0894,4.0894,4.0894,4.0894,4.0894,4.0894,4.0894,4.0894,4.0894,4.0894,4.0894,4.0894,4.0894,4.0894,4.0894,4.0894,4.0894,4.0894,4.0894,4.0894,4.0894,4.0894,4.0894,4.0894,4.0894,4.0894,4.0894,4.0894,4.0894,4.0894,4.0894,4.0894,4.0894,4.0894,4.0894,4.0894,4.0894,4.0894,4.0894,4.0894,4.0894,4.0894,4.0894,4.0894,4.0894,4.0894,4.093,4.093,4.0953,4.1018,4.1214,4.1271,4.1305,4.1507,4.1806,4.1796,4.1629,4.1611,4.1655,4.1871,4.2102,4.2527,4.2957,4.3196,4.3427,4.5414,4.5414,4.5414,4.5414,4.5414,4.5414,4.51,4.4626,4.4591,4.4281,4.3815,4.3522,4.2948,4.2073,4.1452,4.1141,4.0894,4.0894,4.0894,4.0894,4.0894,4.0894,4.0894,4.0894,4.0894,4.0894,4.0894,4.0894,4.0894,4.0894,4.0894,4.0894,4.0894,4.0894,4.0894,4.0894,4.0894,4.0894,4.0894,4.0894,4.0894,4.0894,4.0894,4.0894,4.0894,4.0894,4.0894,4.0894,4.0894,4.0894,4.0894,4.0894,4.0894,4.0894,4.0894,4.0894,4.0894,4.0894,4.0894,4.0894,4.0894,4.0894,4.0894,4.0894,4.0894,4.0894,4.0894,4.0894,4.0894,4.0894,4.0894,4.0894,4.0894,4.0894,4.0894,4.0894,4.0894,4.0894,4.0894,4.0894,4.0894,4.0894,4.0894,4.0894,4.0894,4.0894,4.0894,4.0894,4.0906,4.0906,4.093,4.093,4.0942,4.0953,4.0953,4.0953,4.0965,4.1076,4.1111,4.126,4.1578,4.1702,4.1746,4.2001,4.2307,4.2195,4.1998,4.2081,4.2167,4.2348,4.2545,4.2788,4.3105,4.3348,4.347,4.5414,4.5414,4.5414,4.5414,4.5414,4.5414,4.5363,4.5238,4.5272,4.5221,4.4945,4.4479,4.3407,4.2381,4.1997,4.1553,4.097,4.0912,4.0894,4.0894,4.0894,4.0894,4.0894,4.0894,4.0894,4.0894,4.0894,4.0894,4.0894,4.0894,4.0894,4.0894,4.0894,4.0894,4.0894,4.0894,4.0894,4.0894,4.0894,4.0894,4.0894,4.0894,4.0894,4.0894,4.0894,4.0894,4.0894,4.0894,4.0894,4.0894,4.0894,4.0894,4.0894,4.0894,4.0894,4.0894,4.0894,4.0894,4.0894,4.0894,4.0894,4.0894,4.0894,4.0894,4.0894,4.0894,4.0894,4.0894,4.0894,4.0894,4.0894,4.0894,4.0894,4.0894,4.0894,4.0894,4.0894,4.0894,4.0894,4.0894,4.0894,4.0894,4.0894,4.0894,4.0894,4.0894,4.0894,4.0894,4.0953,4.0965,4.0989,4.1,4.1024,4.1035,4.103,4.1128,4.1407,4.1556,4.1622,4.1821,4.2105,4.2177,4.2198,4.243,4.2664,4.2518,4.2428,4.2509,4.2635,4.2769,4.2939,4.3123,4.3241,4.341,4.3479,4.5414,4.5414,4.5414,4.5414,4.5414,4.5414,4.5414,4.5414,4.5414,4.5414,4.5372,4.491,4.4417,4.3719,4.2736,4.23,4.1888,4.1139,4.1033,4.0894,4.0894,4.0894,4.0894,4.0929,4.0894,4.0894,4.0894,4.0894,4.0894,4.0894,4.0894,4.0894,4.0894,4.0894,4.0894,4.0894,4.0894,4.0894,4.0894,4.0894,4.0894,4.0894,4.0894,4.0894,4.0894,4.0894,4.0894,4.0894,4.0894,4.0894,4.0894,4.0894,4.0894,4.0894,4.0894,4.0894,4.0894,4.0894,4.0894,4.0894,4.0894,4.0894,4.0894,4.0894,4.0894,4.0894,4.0894,4.0894,4.0894,4.0894,4.0894,4.0894,4.0894,4.0894,4.0894,4.0894,4.0894,4.0894,4.0894,4.0894,4.0894,4.0894,4.0894,4.0894,4.0894,4.0894,4.0894,4.0918,4.1006,4.1163,4.1255,4.1346,4.1402,4.1507,4.1523,4.1731,4.1927,4.2022,4.2144,4.235,4.2577,4.2616,4.2692,4.2902,4.3041,4.2995,4.2958,4.2986,4.3023,4.3013,4.3133,4.3339,4.3427,4.3479,4.3488,4.5414,4.5414,4.5414,4.5414,4.5414,4.5414,4.5414,4.5414,4.5414,4.5414,4.5385,4.5344,4.5197,4.4718,4.3997,4.3225,4.287,4.2171,4.1748,4.1585,4.1481,4.1274,4.1153,4.1015,4.0894,4.0894,4.0894,4.0894,4.0894,4.0894,4.0894,4.0894,4.0894,4.0894,4.0894,4.0894,4.0894,4.0894,4.0894,4.0894,4.0894,4.0894,4.0894,4.0894,4.0894,4.0894,4.0894,4.0894,4.0894,4.0894,4.0894,4.0894,4.0894,4.0894,4.0894,4.0894,4.0894,4.0894,4.0912,4.0894,4.0894,4.0894,4.0894,4.0894,4.0894,4.0894,4.0894,4.0894,4.0894,4.0912,4.0929,4.0894,4.0894,4.0894,4.0894,4.0894,4.0894,4.0894,4.0894,4.0894,4.0912,4.0929,4.0946,4.0963,4.1032,4.1063,4.1128,4.1175,4.1249,4.1434,4.1709,4.1806,4.1903,4.204,4.2185,4.2307,4.2418,4.2498,4.2616,4.2836,4.3004,4.3022,4.3069,4.3205,4.333,4.3453,4.3418,4.3277,4.3196,4.3142,4.3304,4.3444,4.3453,4.3488,4.3488,4.5414,4.5414,4.541,4.541,4.5414,4.5414,4.5414,4.5414,4.5414,4.5414,4.5476,4.5828,4.5707,4.5174,4.4753,4.4325,4.3787,4.3235,4.2891,4.2684,4.224,4.2033,4.1797,4.1521,4.1309,4.0981,4.1032,4.1072,4.0894,4.0894,4.0894,4.0894,4.0894,4.0894,4.0894,4.0894,4.0894,4.0894,4.0894,4.0894,4.0894,4.0894,4.0894,4.0894,4.0894,4.0894,4.0894,4.0894,4.0894,4.0894,4.0894,4.0894,4.0894,4.0894,4.0894,4.0894,4.0894,4.0912,4.0946,4.0929,4.0963,4.0929,4.0894,4.0894,4.0894,4.0894,4.1015,4.1119,4.1072,4.1067,4.0998,4.1032,4.117,4.124,4.1309,4.1343,4.1412,4.1429,4.155,4.1619,4.1257,4.0981,4.0998,4.1032,4.1136,4.1226,4.1364,4.144,4.1491,4.172,4.1998,4.2297,4.2408,4.2519,4.2664,4.2797,4.2892,4.2976,4.305,4.3178,4.3295,4.3313,4.3383,4.3506,4.3488,4.3488,4.3488,4.3462,4.3383,4.3294,4.3383,4.3479,4.3488,4.3488,4.3488,4.5414,4.541,4.5502,4.5489,4.541,4.5414,4.5414,4.5414,4.5414,4.5414,4.5515,4.5968,4.611,4.5724,4.525,4.4881,4.4535,4.353,4.3219,4.3202,4.2913,4.2844,4.2654,4.243,4.2102,4.1757,4.1607,4.1331,4.0894,4.1067,4.0963,4.0894,4.1119,4.0894,4.0894,4.0894,4.0894,4.0894,4.0894,4.0894,4.0894,4.0894,4.0894,4.0894,4.0894,4.0894,4.0894,4.0894,4.0894,4.0894,4.0894,4.0894,4.0894,4.0894,4.09,4.0929,4.0946,4.117,4.1452,4.1607,4.136,4.1153,4.105,4.1067,4.0929,4.0912,4.1136,4.1533,4.1676,4.1878,4.2309,4.243,4.2516,4.2534,4.2568,4.2568,4.2585,4.2568,4.262,4.2654,4.2447,4.2275,4.2223,4.1964,4.193,4.174,4.1852,4.1768,4.1764,4.1991,4.2282,4.2682,4.2902,4.3023,4.3178,4.3524,4.3625,4.3643,4.3514,4.3383,4.3462,4.3708,4.3616,4.3671,4.3579,4.3488,4.3488,4.3488,4.3488,4.3479,4.3598,4.3561,4.3488,4.3488,4.3488,4.5423,4.5476,4.5515,4.5515,4.5476,4.5459,4.5467,4.541,4.5414,4.5414,4.5528,4.5968,4.6181,4.6005,4.5689,4.5408,4.5295,4.4478,4.3988,4.3919,4.3672,4.3603,4.3534,4.3327,4.281,4.2487,4.2378,4.2154,4.1861,4.174,4.1792,4.1843,4.1671,4.1861,4.1688,4.1412,4.0894,4.0894,4.0894,4.0894,4.0894,4.0894,4.0894,4.0894,4.0894,4.0894,4.0894,4.0894,4.0912,4.0929,4.0929,4.0929,4.0946,4.0917,4.1038,4.1176,4.1636,4.193,4.2309,4.243,4.2206,4.1895,4.1705,4.1705,4.1636,4.1654,4.1912,4.224,4.2482,4.2775,4.3167,4.3323,4.331,4.331,4.3293,4.3258,4.3224,4.3172,4.3189,4.3276,4.3327,4.331,4.3323,4.3133,4.2891,4.262,4.2386,4.2323,4.2327,4.2661,4.305,4.3499,4.3917,4.42,4.4373,4.4519,4.4545,4.436,4.4222,4.4093,4.4195,4.4507,4.4176,4.3836,4.3745,4.3635,4.3524,4.3506,4.3635,4.3763,4.3883,4.3773,4.3543,4.3616,4.3726,4.5489,4.5563,4.5476,4.5502,4.5594,4.5581,4.5515,4.5414,4.5414,4.5414,4.545,4.5912,4.6062,4.6107,4.6084,4.6007,4.5898,4.5381,4.5217,4.5031,4.4544,4.4419,4.4143,4.381,4.3522,4.3327,4.3172,4.3086,4.312,4.2822,4.2857,4.2995,4.2805,4.2792,4.2447,4.1964,4.1395,4.1429,4.1429,4.1447,4.1481,4.1141,4.1141,4.109,4.1003,4.0929,4.0946,4.1003,4.1055,4.1072,4.109,4.1084,4.105,4.0986,4.1435,4.1987,4.2723,4.2943,4.3202,4.3224,4.3362,4.3211,4.3276,4.3258,4.2879,4.243,4.2521,4.2982,4.3362,4.3414,4.3534,4.3569,4.3586,4.3574,4.3574,4.3539,4.3522,4.3522,4.3539,4.3591,4.3625,4.366,4.3759,4.3672,4.3827,4.3729,4.3627,4.3875,4.3891,4.3954,4.4363,4.4823,4.5205,4.5563,4.5626,4.5388,4.5305,4.5066,4.5287,4.5241,4.5333,4.5223,4.4929,4.4552,4.4057,4.3928,4.4222,4.413,4.391,4.4075,4.4507,4.425,4.4103,4.4149,4.4277,4.5615,4.5744,4.5812,4.5749,4.5607,4.5485,4.5437,4.5414,4.5414,4.5414,4.5427,4.555,4.5675,4.5624,4.5611,4.5654,4.5589,4.5485,4.5419,4.5272,4.51,4.5083,4.4962,4.4734,4.4406,4.4108,4.3919,4.3776,4.3327,4.3271,4.3305,4.3185,4.3414,4.3374,4.3172,4.2758,4.262,4.2465,4.243,4.2309,4.2189,4.193,4.1797,4.1624,4.1291,4.1188,4.1159,4.1521,4.1642,4.1693,4.224,4.2482,4.2546,4.2534,4.2741,4.2792,4.3138,4.3379,4.3862,4.3983,4.4126,4.4509,4.4647,4.4022,4.3483,4.3051,4.3091,4.3677,4.4052,4.4069,4.4298,4.4389,4.4371,4.4371,4.4371,4.4371,4.4354,4.4354,4.4371,4.4371,4.4389,4.4371,4.4423,4.4625,4.4802,4.4768,4.4862,4.5136,4.5252,4.5256,4.5446,4.5878,4.6175,4.6415,4.614,4.5865,4.5847,4.5828,4.6104,4.6214,4.6012,4.5847,4.5645,4.5314,4.4901,4.4993,4.5296,4.5057,4.4699,4.5076,4.5443,4.5012,4.4718,4.48,4.5011,4.5761,4.5889,4.5909,4.5795,4.5589,4.5446,4.5414,4.5414,4.5414,4.5414,4.5414,4.541,4.5414,4.5423,4.5437,4.5437,4.5437,4.5423,4.5414,4.5414,4.5414,4.5363,4.5397,4.538,4.5083,4.482,4.4682,4.4561,4.4074,4.4057,4.4126,4.416,4.4057,4.4057,4.4096,4.4126,4.4108,4.3815,4.3556,4.331,4.3034,4.2775,4.2573,4.2383,4.193,4.1809,4.1792,4.2297,4.2418,4.2465,4.3069,4.3172,4.3288,4.3379,4.3603,4.3707,4.4044,4.432,4.4665,4.4734,4.5014,4.5259,4.5397,4.4945,4.4492,4.4113,4.4285,4.4613,4.463,4.4699,4.5083,4.538,4.5363,4.5345,4.5345,4.5345,4.5345,4.5345,4.5328,4.5328,4.5311,4.5276,4.5407,4.5602,4.5722,4.5662,4.577,4.6046,4.6106,4.6057,4.6273,4.6635,4.6902,4.7131,4.6801,4.6636,4.6783,4.6929,4.7131,4.7131,4.6801,4.6489,4.6305,4.6067,4.5773,4.5883,4.5957,4.5828,4.5645,4.6012,4.6287,4.6113,4.5782,4.559,4.5847,4.5884,4.5998,4.5876,4.5761,4.5602,4.5463,4.5414,4.5414,4.5414,4.5414,4.5414,4.5414,4.5414,4.5414,4.5414,4.5414,4.5414,4.5414,4.5414,4.5427,4.5414,4.5414,4.5414,4.5397,4.5307,4.5363,4.5311,4.51,4.5307,4.5134,4.5031,4.538,4.5242,4.51,4.5031,4.5048,4.4979,4.4807,4.4216,4.3729,4.3586,4.3396,4.3276,4.3276,4.315,4.3081,4.3103,4.3207,4.3293,4.3293,4.3414,4.3517,4.3776,4.4022,4.4315,4.4505,4.4824,4.5031,4.5169,4.5203,4.5272,4.538,4.5397,4.5276,4.4996,4.4859,4.4996,4.5048,4.5048,4.5048,4.5328,4.5414,4.5414,4.5414,4.5414,4.5414,4.5414,4.5437,4.5515,4.5537,4.568,4.5718,4.595,4.6107,4.6217,4.6327,4.6447,4.6713,4.6803,4.6722,4.6938,4.7246,4.7491,4.7681,4.7764,4.7691,4.7929,4.8095,4.8049,4.7994,4.7609,4.7269,4.6938,4.6856,4.6783,4.6489,4.6416,4.6507,4.6617,4.6636,4.6911,4.7122,4.6957,4.6599,4.6728,4.6023,4.6122,4.5897,4.5782,4.5718,4.5502,4.5414,4.5414,4.5414,4.5423,4.5427,4.541,4.5423,4.5476,4.5511,4.5537,4.5498,4.5628,4.5437,4.5463,4.5476,4.5463,4.5414,4.5414,4.5414,4.5414,4.5414,4.5414,4.5414,4.5414,4.5414,4.5397,4.5414,4.5414,4.5414,4.5414,4.538,4.5359,4.5014,4.46,4.46,4.4246,4.4035,4.3862,4.3724,4.3414,4.35,4.381,4.3949,4.4069,4.4617,4.4824,4.491,4.5031,4.51,4.5186,4.529,4.538,4.5414,4.5414,4.5414,4.5414,4.5414,4.5414,4.538,4.5414,4.5414,4.5414,4.5414,4.5414,4.5414,4.5414,4.5414,4.5414,4.5414,4.5414,4.5427,4.5515,4.5602,4.5765,4.5942,4.6156,4.6406,4.6584,4.6689,4.6747,4.6771,4.692,4.7122,4.7136,4.7323,4.7601,4.7926,4.8149,4.8287,4.8315,4.8315,4.8315,4.8205,4.8241,4.8315,4.7966,4.7599,4.7819,4.7801,4.7416,4.7324,4.7709,4.7764,4.7498,4.748,4.7672,4.7819,4.7581,4.7746,4.6122,4.6142,4.5909,4.5757,4.568,4.5489,4.5414,4.545,4.5654,4.577,4.5752,4.5752,4.5752,4.5829,4.5963,4.5995,4.6008,4.61,4.5988,4.5854,4.5693,4.5576,4.5511,4.5414,4.5414,4.5414,4.5414,4.5414,4.5414,4.5414,4.5414,4.5414,4.5414,4.5414,4.5414,4.5414,4.5414,4.5397,4.5414,4.5397,4.5397,4.4979,4.4768,4.4578,4.4436,4.4143,4.4268,4.4596,4.4682,4.482,4.5134,4.5259,4.5276,4.5311,4.5363,4.5363,4.5397,4.5414,4.5414,4.5414,4.5414,4.5414,4.5414,4.5414,4.5414,4.5414,4.5414,4.5414,4.5414,4.5414,4.5414,4.5414,4.5414,4.5414,4.5414,4.5414,4.5554,4.5701,4.5841,4.6,4.6247,4.6537,4.6805,4.706,4.7171,4.7302,4.7291,4.746,4.7588,4.7545,4.7733,4.7897,4.8152,4.8277,4.8287,4.8315,4.8315,4.8315,4.8315,4.8315,4.8315,4.8315,4.8278,4.8241,4.8223,4.8168,4.8205,4.8315,4.8315,4.8003,4.8058,4.8223,4.8315,4.8315,4.826,4.6184,4.6135,4.5897,4.5787,4.5693,4.5563,4.5576,4.5688,4.607,4.6278,4.6315,4.6375,4.6351,4.6442,4.6666,4.6817,4.6828,4.6643,4.6507,4.6235,4.6137,4.579,4.5511,4.5414,4.5414,4.5414,4.5414,4.5414,4.5414,4.5414,4.5414,4.5414,4.5414,4.5414,4.5414,4.5414,4.5414,4.5414,4.5414,4.5414,4.5414,4.5414,4.5328,4.5345,4.5414,4.5414,4.5397,4.538,4.5393,4.5376,4.5359,4.538,4.5414,4.5414,4.5414,4.5414,4.5414,4.5414,4.5414,4.5414,4.5414,4.5414,4.5414,4.5414,4.5414,4.5414,4.5414,4.5414,4.5414,4.5414,4.5414,4.5414,4.5414,4.541,4.541,4.5502,4.5718,4.5925,4.6124,4.6291,4.6654,4.6976,4.7266,4.7517,4.765,4.7775,4.7925,4.8142,4.8238,4.8053,4.8043,4.8113,4.8229,4.8315,4.8315,4.8315,4.8315,4.8315,4.8315,4.8315,4.8315,4.8315,4.8315,4.8315,4.8296,4.8315,4.8315,4.8315,4.8315,4.8315,4.8315,4.8315,4.8315,4.8315,4.8315,4.6122,4.6023,4.5859,4.5985,4.6204,4.6087,4.6254,4.6584,4.6689,4.6771,4.6856,4.7149,4.716,4.6771,4.6828,4.6965,4.7133,4.7066,4.6654,4.6259,4.6332,4.59,4.555,4.5463,4.541,4.5414,4.5414,4.5414,4.5414,4.5414,4.5414,4.5414,4.5414,4.5414,4.5414,4.5414,4.5414,4.5414,4.5414,4.5414,4.5414,4.5414,4.5414,4.5414,4.5414,4.5414,4.5397,4.5414,4.5397,4.5414,4.5414,4.5414,4.5414,4.5414,4.5414,4.5414,4.5414,4.5414,4.5414,4.5414,4.5414,4.5414,4.5414,4.5414,4.5414,4.5414,4.5414,4.5414,4.5414,4.5414,4.5414,4.5414,4.5414,4.5423,4.5437,4.5731,4.598,4.6254,4.6501,4.6879,4.7295,4.7619,4.7895,4.8043,4.8043,4.8123,4.8123,4.8315,4.8315,4.8315,4.8315,4.8315,4.8315,4.8315,4.8315,4.8315,4.8315,4.8315,4.8315,4.8315,4.8315,4.8315,4.8315,4.8315,4.8315,4.8315,4.8315,4.8315,4.8315,4.8315,4.8315,4.8315,4.8315,4.8315,4.8315]}]]